[[{"header":{"parameterUnit":"m.s-1","parameterCategory":1,"la1":30.6,"la2":29.2853,"lo1":-89.7004,"lo2":-87.6739,"dy":0.0162,"dx":0.0183,"nx":112,"ny":82,"refTime":"2023-08-07T06:00:00:Z","depth":0,"parameterNumber":2,"parameterNumberName":"U-component_of_WINDS"},"data":[0.0,0.0,0.0,0.0,0.0,0.0,0.0,0.0,0.0,0.0,0.0,0.0,0.0,0.0,0.0,0.0,0.0,0.0,0.0,0.0,0.0,0.0,0.0,0.0,0.0,0.0,0.0,0.0,0.0,0.0,0.0,0.0,0.0,0.0,0.0,0.0,0.0,0.0,0.0,0.0,0.0,0.0,0.0,0.0,0.0,0.0,0.0,0.0,0.0,0.0,0.0,0.0,0.0,0.0,0.0,0.0,0.0,0.0,0.0,0.0,0.0,0.0,0.0,0.0,0.0,0.0,0.0,0.0,0.0,0.0,0.0,0.0,0.0,0.0,0.0,0.0,0.0,0.0,0.0,0.0,0.0,0.0,0.0,0.0,0.0,0.0,0.0,0.0,0.0,0.0,0.0,-5.6797,-5.6095,-5.5706,-5.5706,-5.5706,-5.5706,-5.5706,0.0,0.0,0.0,0.0,0.0,0.0,0.0,0.0,0.0,0.0,0.0,0.0,0.0,0.0,0.0,0.0,0.0,0.0,0.0,0.0,0.0,0.0,0.0,0.0,0.0,0.0,0.0,0.0,0.0,0.0,0.0,0.0,0.0,0.0,0.0,0.0,0.0,0.0,0.0,0.0,0.0,0.0,0.0,0.0,0.0,0.0,0.0,0.0,0.0,0.0,0.0,0.0,0.0,0.0,0.0,0.0,0.0,0.0,0.0,0.0,0.0,0.0,0.0,0.0,0.0,0.0,0.0,0.0,0.0,0.0,0.0,0.0,0.0,0.0,0.0,0.0,0.0,0.0,0.0,0.0,0.0,0.0,0.0,0.0,0.0,0.0,0.0,0.0,0.0,0.0,0.0,0.0,0.0,0.0,0.0,0.0,0.0,0.0,0.0,0.0,0.0,0.0,0.0,0.0,-5.7529,-5.6042,-5.5777,-5.5706,-5.5706,-5.5706,-5.5706,-5.5706,0.0,0.0,0.0,0.0,0.0,0.0,0.0,0.0,0.0,0.0,0.0,0.0,0.0,0.0,0.0,0.0,0.0,0.0,0.0,0.0,0.0,0.0,0.0,0.0,0.0,0.0,0.0,0.0,0.0,0.0,0.0,0.0,0.0,0.0,0.0,0.0,0.0,0.0,0.0,0.0,0.0,0.0,0.0,0.0,0.0,0.0,0.0,0.0,0.0,0.0,0.0,0.0,0.0,0.0,0.0,0.0,0.0,0.0,0.0,0.0,0.0,0.0,0.0,0.0,0.0,0.0,0.0,0.0,0.0,0.0,0.0,0.0,0.0,0.0,0.0,0.0,0.0,0.0,0.0,0.0,0.0,0.0,0.0,0.0,0.0,0.0,0.0,0.0,0.0,0.0,0.0,0.0,0.0,0.0,0.0,0.0,0.0,0.0,0.0,0.0,0.0,0.0,0.0,-5.6675,-5.5776,-5.462,-5.4499,-5.4499,-5.4499,-5.4499,-5.4499,-5.4499,-5.4499,0.0,0.0,0.0,0.0,0.0,0.0,0.0,0.0,0.0,0.0,0.0,0.0,0.0,0.0,0.0,0.0,0.0,0.0,0.0,0.0,0.0,0.0,0.0,0.0,0.0,0.0,0.0,0.0,0.0,0.0,0.0,0.0,0.0,0.0,0.0,0.0,0.0,0.0,0.0,0.0,0.0,0.0,0.0,0.0,0.0,0.0,0.0,0.0,0.0,0.0,0.0,0.0,0.0,0.0,0.0,0.0,0.0,0.0,0.0,0.0,0.0,0.0,0.0,0.0,0.0,0.0,0.0,0.0,0.0,0.0,0.0,0.0,0.0,0.0,0.0,0.0,0.0,0.0,0.0,0.0,0.0,0.0,0.0,0.0,0.0,0.0,0.0,0.0,0.0,0.0,0.0,0.0,0.0,0.0,0.0,0.0,0.0,0.0,0.0,0.0,0.0,0.0,-5.4905,-5.411,-5.3568,-5.3501,-5.3501,-5.3501,-5.3501,-5.3382,-5.3144,-5.311,0.0,0.0,0.0,0.0,0.0,0.0,0.0,0.0,0.0,0.0,0.0,0.0,0.0,0.0,0.0,0.0,0.0,0.0,0.0,0.0,0.0,0.0,0.0,0.0,0.0,0.0,0.0,0.0,0.0,0.0,0.0,0.0,0.0,0.0,0.0,0.0,0.0,0.0,0.0,0.0,0.0,0.0,0.0,0.0,0.0,0.0,0.0,0.0,0.0,0.0,0.0,0.0,0.0,0.0,0.0,0.0,0.0,0.0,0.0,0.0,0.0,0.0,0.0,0.0,0.0,0.0,0.0,0.0,0.0,0.0,0.0,0.0,0.0,0.0,0.0,0.0,0.0,0.0,0.0,0.0,0.0,0.0,0.0,0.0,0.0,0.0,0.0,0.0,0.0,0.0,0.0,0.0,0.0,0.0,0.0,0.0,0.0,0.0,0.0,0.0,0.0,0.0,-5.4465,-5.3568,-5.3518,-5.3501,-5.3501,-5.3501,-5.3501,-5.3076,-5.2082,-5.1993,0.0,0.0,0.0,0.0,0.0,0.0,0.0,0.0,0.0,0.0,0.0,0.0,0.0,0.0,0.0,0.0,0.0,0.0,0.0,0.0,0.0,0.0,0.0,0.0,0.0,0.0,0.0,0.0,0.0,0.0,0.0,0.0,0.0,0.0,0.0,0.0,0.0,0.0,0.0,0.0,0.0,0.0,0.0,0.0,0.0,0.0,0.0,0.0,0.0,0.0,0.0,0.0,0.0,0.0,0.0,0.0,0.0,0.0,0.0,0.0,0.0,0.0,0.0,0.0,0.0,0.0,0.0,0.0,0.0,0.0,0.0,0.0,0.0,0.0,0.0,0.0,0.0,0.0,0.0,0.0,0.0,0.0,0.0,0.0,0.0,0.0,0.0,0.0,0.0,0.0,0.0,0.0,0.0,0.0,0.0,0.0,0.0,0.0,0.0,0.0,0.0,0.0,-5.4532,-5.3769,0.0,-5.2505,-5.2241,-5.161,-5.1557,-5.141,-5.0968,0.0,0.0,0.0,0.0,0.0,0.0,0.0,0.0,0.0,0.0,0.0,0.0,0.0,0.0,0.0,0.0,0.0,0.0,0.0,0.0,0.0,0.0,0.0,0.0,0.0,0.0,0.0,0.0,0.0,0.0,0.0,0.0,0.0,0.0,0.0,0.0,0.0,0.0,0.0,0.0,0.0,0.0,0.0,0.0,0.0,0.0,0.0,0.0,0.0,0.0,0.0,0.0,0.0,0.0,0.0,0.0,0.0,0.0,0.0,0.0,0.0,0.0,0.0,0.0,0.0,0.0,0.0,0.0,0.0,0.0,0.0,0.0,0.0,0.0,0.0,0.0,0.0,0.0,0.0,0.0,0.0,0.0,0.0,0.0,0.0,0.0,0.0,0.0,0.0,0.0,0.0,0.0,0.0,0.0,0.0,0.0,0.0,0.0,0.0,0.0,0.0,0.0,-5.4684,-5.3827,-5.2912,0.0,-5.1614,-5.1171,-5.0435,-5.0397,-5.0242,-4.9931,0.0,0.0,0.0,0.0,0.0,0.0,0.0,0.0,0.0,0.0,0.0,0.0,0.0,0.0,0.0,0.0,0.0,0.0,0.0,0.0,0.0,0.0,0.0,0.0,0.0,0.0,0.0,0.0,0.0,0.0,0.0,0.0,0.0,0.0,0.0,0.0,0.0,0.0,0.0,0.0,0.0,0.0,0.0,0.0,0.0,0.0,0.0,0.0,0.0,0.0,0.0,0.0,0.0,0.0,0.0,0.0,0.0,0.0,0.0,0.0,0.0,0.0,0.0,0.0,0.0,0.0,0.0,0.0,0.0,0.0,0.0,0.0,0.0,0.0,0.0,0.0,0.0,0.0,0.0,0.0,0.0,0.0,0.0,0.0,0.0,0.0,0.0,0.0,0.0,0.0,0.0,0.0,0.0,0.0,0.0,0.0,0.0,0.0,0.0,0.0,0.0,0.0,-5.4411,-5.211,-5.0779,-5.176,-5.0968,-5.0374,-5.0374,-5.0374,-4.9931,0.0,0.0,0.0,0.0,0.0,0.0,0.0,0.0,0.0,0.0,0.0,0.0,0.0,0.0,0.0,0.0,0.0,0.0,0.0,0.0,0.0,0.0,0.0,0.0,0.0,0.0,0.0,0.0,0.0,0.0,0.0,0.0,0.0,0.0,0.0,0.0,0.0,0.0,0.0,0.0,0.0,0.0,0.0,0.0,0.0,0.0,0.0,0.0,0.0,0.0,0.0,0.0,0.0,0.0,0.0,0.0,0.0,0.0,0.0,0.0,0.0,0.0,0.0,0.0,0.0,0.0,0.0,0.0,0.0,0.0,0.0,0.0,0.0,0.0,0.0,0.0,0.0,0.0,0.0,0.0,0.0,0.0,0.0,0.0,0.0,0.0,0.0,0.0,0.0,0.0,0.0,0.0,0.0,0.0,0.0,0.0,0.0,0.0,0.0,0.0,0.0,0.0,0.0,-5.1748,-5.0924,-5.0242,-4.9758,-4.9456,-4.8988,-4.8267,-4.8198,-4.8088,-4.7764,0.0,0.0,0.0,0.0,0.0,0.0,0.0,0.0,0.0,0.0,0.0,0.0,0.0,0.0,0.0,0.0,0.0,0.0,0.0,0.0,0.0,0.0,0.0,0.0,0.0,0.0,0.0,0.0,0.0,0.0,0.0,0.0,0.0,0.0,0.0,0.0,0.0,0.0,0.0,0.0,0.0,0.0,0.0,0.0,0.0,0.0,0.0,0.0,0.0,0.0,0.0,0.0,0.0,0.0,0.0,0.0,0.0,0.0,0.0,0.0,0.0,0.0,0.0,0.0,0.0,0.0,0.0,0.0,0.0,0.0,0.0,0.0,0.0,0.0,0.0,0.0,0.0,0.0,0.0,0.0,0.0,0.0,0.0,0.0,0.0,0.0,0.0,0.0,0.0,0.0,0.0,0.0,0.0,0.0,0.0,0.0,0.0,0.0,0.0,0.0,0.0,0.0,-5.0499,-4.9671,-4.9085,-4.8825,-4.8444,-4.7961,-4.7337,-4.7309,-4.7309,-4.7309,0.0,0.0,0.0,0.0,0.0,0.0,0.0,0.0,0.0,0.0,0.0,0.0,0.0,0.0,0.0,0.0,0.0,0.0,0.0,0.0,0.0,0.0,0.0,0.0,0.0,0.0,0.0,0.0,0.0,0.0,0.0,0.0,0.0,0.0,0.0,0.0,0.0,0.0,0.0,0.0,0.0,0.0,0.0,0.0,0.0,0.0,0.0,0.0,0.0,0.0,0.0,0.0,0.0,0.0,0.0,0.0,0.0,0.0,0.0,0.0,0.0,0.0,0.0,0.0,0.0,0.0,0.0,0.0,0.0,0.0,0.0,0.0,0.0,0.0,0.0,0.0,0.0,0.0,0.0,0.0,0.0,0.0,0.0,0.0,0.0,0.0,0.0,0.0,0.0,0.0,0.0,0.0,0.0,0.0,0.0,0.0,0.0,0.0,0.0,0.0,0.0,0.0,-5.0009,-4.8475,-4.7651,-4.8553,-4.7834,-4.7309,-4.7309,-4.7309,-4.7309,-4.7309,0.0,0.0,0.0,0.0,0.0,0.0,0.0,0.0,0.0,0.0,0.0,0.0,0.0,0.0,0.0,0.0,0.0,0.0,0.0,0.0,0.0,0.0,0.0,0.0,0.0,0.0,0.0,0.0,0.0,0.0,0.0,0.0,0.0,0.0,0.0,0.0,0.0,0.0,0.0,0.0,0.0,0.0,0.0,0.0,0.0,0.0,0.0,0.0,0.0,0.0,0.0,0.0,0.0,0.0,0.0,0.0,0.0,0.0,0.0,0.0,-6.08,0.0,0.0,0.0,0.0,0.0,0.0,0.0,0.0,0.0,0.0,0.0,0.0,0.0,0.0,0.0,0.0,0.0,0.0,0.0,0.0,0.0,0.0,0.0,0.0,0.0,0.0,0.0,0.0,0.0,0.0,0.0,0.0,0.0,0.0,0.0,0.0,0.0,0.0,0.0,0.0,0.0,-4.803,-4.7581,-4.7381,-4.7609,-4.7424,-4.7309,-4.7309,-4.7309,-4.7309,-4.7309,0.0,0.0,0.0,0.0,0.0,0.0,0.0,0.0,0.0,0.0,0.0,0.0,0.0,0.0,0.0,0.0,0.0,0.0,0.0,0.0,0.0,0.0,0.0,0.0,0.0,0.0,0.0,0.0,0.0,0.0,0.0,0.0,0.0,0.0,0.0,0.0,0.0,0.0,0.0,0.0,0.0,0.0,0.0,0.0,0.0,0.0,0.0,0.0,0.0,0.0,0.0,0.0,0.0,0.0,0.0,0.0,0.0,0.0,0.0,0.0,0.0,-6.08,0.0,0.0,0.0,0.0,0.0,0.0,0.0,0.0,0.0,0.0,0.0,0.0,0.0,0.0,0.0,0.0,0.0,0.0,0.0,0.0,0.0,0.0,0.0,0.0,0.0,0.0,0.0,0.0,0.0,0.0,0.0,0.0,0.0,0.0,0.0,0.0,0.0,0.0,0.0,0.0,-4.7381,-4.7309,-4.7309,-4.7309,-4.7309,-4.7309,-4.7309,-4.7309,-4.7309,-4.7309,-4.7309,0.0,0.0,0.0,0.0,0.0,0.0,0.0,0.0,0.0,0.0,0.0,0.0,0.0,0.0,0.0,0.0,0.0,0.0,0.0,0.0,0.0,0.0,0.0,0.0,0.0,0.0,0.0,0.0,0.0,0.0,0.0,0.0,0.0,0.0,0.0,0.0,0.0,0.0,0.0,0.0,0.0,0.0,0.0,0.0,0.0,0.0,0.0,0.0,0.0,0.0,0.0,0.0,0.0,0.0,-6.3288,-6.3288,-6.3207,-6.3182,-6.3105,-6.162,-6.0942,-6.0865,0.0,0.0,0.0,0.0,0.0,0.0,0.0,0.0,0.0,0.0,0.0,0.0,0.0,0.0,0.0,0.0,0.0,0.0,0.0,0.0,0.0,0.0,0.0,0.0,0.0,-5.3929,-5.3501,0.0,0.0,0.0,0.0,0.0,0.0,0.0,0.0,0.0,0.0,0.0,0.0,-4.7309,-4.7309,-4.7309,-4.7309,-4.7309,-4.7309,-4.7309,-4.7309,-4.7309,-4.7309,-4.7189,-4.689,0.0,0.0,0.0,0.0,0.0,0.0,0.0,0.0,0.0,0.0,0.0,0.0,0.0,0.0,0.0,0.0,0.0,0.0,0.0,0.0,0.0,0.0,0.0,0.0,0.0,0.0,0.0,0.0,0.0,0.0,0.0,0.0,-6.1259,-6.1053,0.0,0.0,0.0,0.0,0.0,0.0,0.0,0.0,0.0,0.0,0.0,0.0,0.0,0.0,-6.3147,-6.325,-6.3288,-6.3288,-6.3288,-6.3288,-6.3288,-6.2877,-6.2699,-6.265,-6.1966,0.0,-6.1268,-6.074,0.0,0.0,0.0,0.0,0.0,0.0,0.0,0.0,0.0,0.0,0.0,0.0,0.0,0.0,0.0,0.0,0.0,0.0,0.0,0.0,0.0,0.0,-5.4437,-5.3799,-5.3551,-5.3501,0.0,-5.3501,-5.3501,-5.3501,0.0,0.0,0.0,0.0,0.0,0.0,0.0,0.0,-4.7309,-4.7309,-4.7309,-4.7309,-4.7309,-4.7309,-4.7309,-4.7309,-4.7309,-4.7309,-4.677,-4.6369,-4.6279,-4.52,0.0,0.0,0.0,0.0,0.0,0.0,0.0,0.0,0.0,0.0,0.0,0.0,0.0,0.0,0.0,0.0,0.0,0.0,0.0,0.0,0.0,0.0,0.0,0.0,0.0,0.0,0.0,0.0,0.0,-6.133,-6.1276,-6.0935,-6.0954,-6.1138,0.0,0.0,0.0,0.0,0.0,0.0,0.0,0.0,0.0,-6.3288,-6.3782,-6.4032,-6.4032,-6.4532,-6.4603,-6.4302,-6.4302,-6.4167,-6.3899,-6.3702,-6.3617,-6.3582,-6.3029,-6.25,-6.1864,-6.0679,-6.0001,-5.9588,0.0,0.0,0.0,0.0,0.0,-5.7997,-5.7997,0.0,0.0,0.0,0.0,0.0,0.0,0.0,0.0,0.0,0.0,0.0,0.0,0.0,0.0,-5.3584,-5.3501,-5.3501,-5.3501,-5.3501,-5.3501,0.0,-5.3501,-5.3025,-5.1504,0.0,0.0,0.0,0.0,0.0,-4.7309,-4.7309,-4.7309,-4.7309,-4.7309,-4.7309,-4.7309,-4.7309,-4.7145,-4.677,-4.6444,-4.5935,-4.5229,-4.4631,-4.4137,0.0,0.0,0.0,0.0,0.0,0.0,0.0,0.0,0.0,0.0,0.0,0.0,0.0,0.0,0.0,0.0,0.0,0.0,0.0,0.0,0.0,0.0,0.0,0.0,0.0,0.0,0.0,0.0,-6.1201,-6.1265,-6.115,-6.1211,-6.1581,0.0,0.0,0.0,0.0,0.0,0.0,-6.3955,-6.3974,-6.3974,-6.3974,-6.4589,-6.4936,-6.4936,-6.5442,-6.5494,-6.5099,-6.4968,-6.475,-6.4389,-6.4255,-6.4197,-6.4177,-6.3634,-6.3074,-6.2387,-6.0936,-6.0079,-5.9631,-5.8671,-5.818,0.0,-5.7997,-5.7997,-5.7997,-5.7997,-5.7997,-5.7997,-5.7997,0.0,-5.7997,-5.7997,0.0,0.0,0.0,0.0,-5.4848,-5.4651,0.0,-5.3501,-5.3501,-5.3501,-5.3501,-5.3501,-5.3501,-5.3501,0.0,-5.3501,-5.3144,-5.2082,0.0,0.0,0.0,0.0,-4.7309,-4.7309,-4.7309,-4.7309,-4.7309,-4.7309,-4.7309,-4.7309,-4.7309,-4.7025,-4.6324,-4.6115,-4.5544,-4.4362,-4.4152,-4.3798,-4.3305,0.0,0.0,0.0,0.0,0.0,0.0,0.0,0.0,0.0,0.0,0.0,0.0,0.0,0.0,0.0,0.0,0.0,0.0,0.0,0.0,0.0,0.0,0.0,0.0,0.0,0.0,0.0,0.0,0.0,-6.1947,-6.2036,0.0,0.0,0.0,0.0,-6.4474,-6.4532,-6.4897,-6.5724,-6.5763,-6.5763,-6.5763,-6.5801,-6.582,-6.582,-6.5365,-6.513,-6.508,-6.4662,-6.4426,-6.4389,-6.3853,-6.3656,-6.3612,-6.3068,-6.2812,-6.2701,-6.1863,-6.0614,-5.9231,-5.9171,-5.8676,-5.7997,-5.7997,-5.7997,-5.7997,-5.7997,-5.7997,-5.7997,-5.7997,-5.7997,-5.7997,-5.7997,-5.7973,0.0,0.0,-5.6286,-5.5477,-5.4787,-5.4042,-5.3501,-5.3501,-5.3501,-5.3501,-5.3501,-5.3501,-5.3501,0.0,-5.3501,-5.3144,-5.2082,0.0,0.0,-4.8948,-4.7946,-4.7309,-4.7309,-4.7309,-4.7309,-4.7309,-4.7309,-4.7309,-4.7309,-4.7309,-4.7025,-4.6324,-4.5708,-4.5035,-4.4347,-4.3678,-4.3319,-4.329,-4.329,0.0,0.0,0.0,0.0,0.0,0.0,0.0,0.0,0.0,0.0,0.0,0.0,0.0,0.0,0.0,0.0,0.0,0.0,0.0,0.0,0.0,0.0,0.0,0.0,0.0,0.0,0.0,0.0,-6.2009,-6.2101,0.0,0.0,-6.4147,-6.4493,-6.5378,-6.5436,-6.557,-6.5878,-6.5897,-6.5897,-6.5897,-6.5897,-6.5736,-6.5384,-6.5196,-6.4782,-6.412,-6.3977,-6.3702,-6.3363,-6.3168,-6.3091,-6.3068,-6.2886,-6.278,-6.2762,-6.2493,-6.1429,-5.9924,-5.9386,-5.8712,-5.7997,-5.7997,-5.7997,-5.7997,-5.7997,-5.7997,-5.7997,-5.7997,-5.7997,-5.7997,-5.7997,-5.7679,-5.7234,-5.6964,-5.5984,-5.4922,-5.4682,-5.4042,-5.3501,-5.3501,-5.3501,-5.3501,-5.3501,-5.3501,-5.3501,-5.3501,-5.3501,-5.3382,-5.299,-5.2046,-5.1005,-4.997,-4.8963,-4.803,-4.7381,-4.7309,-4.7309,-4.7309,-4.7309,-4.7309,-4.7309,-4.7309,-4.7025,-4.6324,-4.5678,-4.5005,-4.4347,-4.3648,-4.329,-4.329,-4.329,-4.329,0.0,0.0,0.0,0.0,0.0,0.0,0.0,0.0,0.0,0.0,0.0,0.0,0.0,0.0,0.0,0.0,0.0,0.0,0.0,0.0,0.0,0.0,0.0,0.0,0.0,0.0,-6.1753,-6.2817,-6.2935,-6.3493,-6.4897,-6.5032,-6.5282,-6.5859,-6.5897,-6.5897,-6.5897,-6.5897,-6.5897,-6.5897,-6.5991,-6.5734,-6.5115,-6.5031,-6.4538,-6.359,-6.3408,-6.3144,-6.278,-6.278,-6.278,-6.278,-6.278,-6.278,-6.278,-6.278,-6.2016,-6.0731,-5.9924,-5.9116,-5.8364,-5.8107,-5.7997,-5.7997,-5.7997,-5.7997,-5.7997,-5.7997,-5.7997,-5.7997,-5.7997,-5.7679,-5.7141,-5.6642,-5.577,-5.4848,-5.4359,-5.3865,-5.3501,-5.3501,-5.3501,-5.3501,-5.3501,-5.3501,-5.3501,-5.3501,-5.3501,-5.3501,-5.3501,-5.2627,-5.1687,-5.1005,-4.9679,-4.8553,-4.7876,-4.7495,-4.7309,-4.7309,-4.7309,-4.7309,-4.7309,-4.7309,-4.7025,-4.6324,-4.5888,-4.5244,-4.4347,-4.3858,-4.3514,-4.329,-4.329,-4.329,-4.329,0.0,0.0,0.0,0.0,0.0,0.0,0.0,0.0,0.0,0.0,0.0,0.0,0.0,0.0,0.0,0.0,0.0,0.0,0.0,0.0,0.0,0.0,0.0,-6.2101,-6.212,-6.2743,-6.4397,-6.4609,-6.4936,-6.582,-6.5897,-6.5897,-6.5897,-6.5897,-6.5897,-6.5936,-6.5923,-6.5923,-6.5974,-6.6204,-6.5947,-6.5159,-6.4944,-6.4447,-6.3661,-6.3136,-6.2853,-6.286,-6.286,-6.2817,-6.278,-6.278,-6.278,-6.278,-6.278,-6.2346,-6.1557,-6.0731,-5.9924,-5.9093,-5.8309,-5.7997,-5.7997,-5.7997,-5.7997,-5.7997,-5.7997,-5.7997,-5.7997,-5.7997,-5.7997,-5.7684,-5.6169,-5.5706,-5.5379,-5.3913,-5.3534,-5.3501,-5.3501,-5.3501,-5.3501,-5.3501,-5.3501,-5.3501,-5.3501,-5.3501,-5.3501,-5.3501,-5.2627,-5.1921,-5.1921,-5.0172,0.0,-4.8866,-4.7946,-4.7337,-4.7381,-4.7352,-4.7294,-4.7337,-4.7309,-4.704,-4.6354,-4.6294,-4.5696,-4.4407,-4.4332,-4.4003,-4.3344,-4.3369,-4.3369,-4.3329,0.0,0.0,0.0,0.0,0.0,0.0,0.0,0.0,0.0,0.0,0.0,0.0,0.0,0.0,0.0,0.0,0.0,0.0,0.0,0.0,0.0,0.0,-6.2101,-6.2101,-6.2589,-6.3378,-6.4474,-6.4609,-6.4936,-6.582,-6.5897,-6.5897,-6.5897,-6.5897,-6.6147,-6.6744,-6.6409,-6.6667,-6.7673,-6.7024,-6.656,-6.6332,-6.5881,-6.5389,-6.482,-6.468,-6.431,-6.3741,-6.3741,-6.3392,-6.278,-6.278,-6.278,-6.278,-6.278,-6.2652,-6.2346,-6.0951,-5.9924,-5.9093,-5.8309,-5.7997,-5.7997,-5.7997,-5.7997,-5.7997,-5.7997,-5.7997,-5.7997,-5.7997,-5.7997,-5.7797,-5.6825,-5.6159,-5.5495,-5.4544,-5.3913,-5.3501,-5.3501,-5.3501,-5.3501,-5.3501,-5.3501,-5.3501,-5.3501,-5.3501,-5.3501,-5.3501,-5.3264,-5.28,-5.2029,0.0,0.0,-5.0048,-4.9029,-4.8692,-4.9472,-4.8198,-4.7609,-4.8335,-4.7722,-4.7234,0.0,-4.6591,-4.5933,-4.5065,-4.4571,-4.4348,-4.4389,-4.5064,-4.5048,0.0,0.0,0.0,0.0,0.0,0.0,0.0,0.0,0.0,0.0,0.0,0.0,0.0,0.0,0.0,0.0,0.0,0.0,0.0,0.0,0.0,0.0,-6.2685,-6.3147,-6.3147,-6.3551,-6.4166,-6.5032,-6.5147,-6.534,-6.584,-6.5897,-6.6032,-6.6378,-6.6397,-6.6763,-6.7609,-6.7353,-6.7442,-6.8052,-6.7557,-6.7023,-6.6479,-6.6314,-6.5903,-6.5319,-6.5319,-6.5063,-6.4604,-6.4604,-6.4145,0.0,-6.3337,-6.3154,-6.278,-6.278,-6.278,0.0,0.0,0.0,0.0,0.0,-5.829,-5.7997,-5.7997,-5.7997,-5.7997,-5.7997,-5.7997,-5.7997,-5.7997,-5.7997,-5.7774,-5.6703,-5.6077,-5.5466,-5.4405,-5.3832,-5.3501,-5.3501,-5.3501,-5.3501,-5.3501,-5.3501,-5.3501,-5.3501,0.0,0.0,-5.3501,-5.3501,-5.3298,-5.2662,-5.2189,-5.1687,0.0,-5.0126,-4.9694,-5.032,-4.9327,-4.8856,-4.9416,-4.8922,0.0,0.0,0.0,-4.7567,-4.6606,-4.555,0.0,0.0,0.0,-4.5525,0.0,0.0,0.0,0.0,-4.3347,-4.3135,0.0,0.0,0.0,0.0,0.0,0.0,0.0,0.0,0.0,0.0,0.0,0.0,0.0,0.0,0.0,0.0,-6.3628,-6.4628,-6.4724,-6.4743,-6.5032,-6.5801,-6.5897,-6.5897,-6.5897,-6.5974,-6.632,-6.7051,-6.7186,-6.7596,-6.8408,0.0,0.0,0.0,0.0,-6.741,-6.629,-6.6517,-6.6274,-6.5576,-6.5576,-6.5521,-6.5448,-6.5448,-6.5007,-6.4237,-6.4237,-6.3741,-6.297,-6.297,-6.2872,-6.2707,-6.1906,-6.1539,-6.1282,-5.9869,-5.8896,0.0,0.0,0.0,0.0,-5.8033,-5.7997,-5.7997,-5.7997,-5.7997,-5.7708,-5.6223,-5.5762,-5.5379,-5.4011,-5.3551,-5.3501,-5.3501,-5.3501,-5.3501,-5.3501,-5.3501,-5.3501,-5.3501,-5.3501,-5.3501,-5.3501,-5.3501,-5.3501,-5.3501,-5.2714,0.0,-5.2082,-5.1208,-5.0643,-5.0757,0.0,0.0,-5.055,-5.0474,-5.0397,-5.0397,-5.0333,-4.9725,-4.8498,-4.6997,-4.6303,-4.6477,-4.5681,-4.5577,-4.6208,-4.6208,-4.5654,-4.4624,-4.3849,-4.3409,0.0,0.0,0.0,0.0,0.0,0.0,0.0,0.0,0.0,0.0,0.0,0.0,0.0,0.0,0.0,-6.3897,-6.4397,-6.4859,-6.5551,-6.5647,-6.5705,-6.5878,-6.5897,-6.5897,-6.5897,-6.6494,-6.6917,-6.709,-6.7744,-6.832,-6.8699,-6.831,0.0,-6.8942,-6.8176,-6.7839,-6.8027,-6.7668,-6.7375,-6.7228,0.0,0.0,-6.6274,-6.6274,-6.5833,-6.5081,-6.5081,-6.4604,-6.3851,-6.3851,-6.3429,-6.2707,-6.1906,-6.119,-6.0584,-6.0291,-6.007,-5.985,-5.9184,-5.8964,-5.8854,-5.8217,-5.7997,-5.7997,-5.7997,-5.7997,0.0,-5.692,-5.6186,-5.5495,-5.4637,-5.3946,-5.3501,-5.3501,-5.3501,-5.3501,-5.3501,-5.3501,-5.3501,-5.3501,-5.3501,-5.3501,-5.3501,-5.3501,-5.3501,-5.3501,-5.3298,-5.3195,-5.3195,-5.2277,-5.1938,-5.28,-5.141,-5.0741,-5.1541,-5.0855,-5.0397,-5.0397,-4.9891,-4.948,-4.9192,-4.8531,-4.8184,-4.8225,-4.8216,-4.7523,-4.6208,-4.6208,-4.529,-4.3591,-4.422,-4.4082,0.0,0.0,0.0,0.0,0.0,0.0,0.0,0.0,0.0,0.0,0.0,-6.0832,0.0,0.0,-6.3234,-6.4057,-6.4575,-6.5104,-6.5795,-6.5676,-6.5603,-6.5865,-6.5897,-6.5897,-6.5897,-6.6628,-6.7282,-6.7725,-6.8277,-6.8851,-6.9425,-6.8944,-6.8717,-6.8891,-6.8387,-6.8097,-6.8097,-6.7836,-6.7687,-6.7687,-6.7687,-6.7485,-6.71,-6.71,-6.6659,-6.5907,-6.5907,-6.5448,-6.4677,-6.4255,-6.3594,-6.2768,-6.2365,-6.1704,-6.1006,-6.1006,-6.075,-6.0346,-5.9942,-5.9813,-5.974,-5.9336,-5.8933,-5.8602,-5.8602,-5.8327,-5.7774,-5.6624,-5.6004,-5.5437,-5.4328,-5.3783,-5.3501,-5.3501,-5.3501,-5.3501,-5.3501,-5.3501,-5.3501,-5.3501,-5.3501,-5.3501,-5.3501,-5.3501,-5.3501,-5.3501,-5.3501,-5.3501,-5.3501,-5.3025,-5.2921,-5.3433,-5.2574,-5.2134,-5.2679,-5.2258,-5.1954,-5.1954,-5.1644,-5.1284,-5.0853,-5.0195,-4.9838,-4.9959,-4.9224,-4.8382,-4.7454,-4.7097,-4.5941,-4.4066,-4.4548,-4.4259,0.0,0.0,0.0,0.0,0.0,0.0,0.0,0.0,-5.9284,-5.9372,-6.0051,-6.0655,-6.0825,-6.2404,-6.3717,-6.3905,-6.4514,-6.5099,-6.5561,-6.523,-6.5165,-6.5676,-6.584,-6.5955,-6.6109,-6.6859,-6.7679,-6.8424,-6.8839,-6.9266,-6.9755,-6.9374,-6.891,-6.8363,-6.8338,-6.8129,-6.7714,-6.7687,-6.7687,-6.7687,-6.7687,-6.7687,-6.7687,-6.7687,-6.7338,-6.6714,-6.6568,-6.6127,-6.5485,-6.4659,-6.3833,-6.3062,-6.3062,-6.2548,-6.1832,-6.1832,-6.1429,-6.0841,-6.0694,-6.0639,-6.0621,-6.0456,-5.996,-5.9386,-5.9239,-5.8655,-5.7723,-5.6331,-5.5724,-5.5203,-5.4027,-5.3618,-5.3501,-5.3501,-5.3501,-5.3501,-5.3501,-5.3501,-5.3501,-5.3501,-5.3501,-5.3501,-5.3501,-5.3501,-5.3501,-5.3501,-5.3501,-5.3501,-5.3501,-5.3501,-5.3501,-5.3501,-5.3501,-5.3501,-5.3501,-5.3501,-5.3501,-5.3501,-5.3501,-5.3213,-5.2553,-5.1663,-5.1244,-5.1405,-4.9942,-4.9043,-4.8693,-4.8083,-4.6789,-4.4812,-4.4812,-4.4259,-5.9439,-5.9441,-5.9302,-5.8894,-5.8795,-5.8795,0.0,0.0,-5.8894,-5.9302,-6.0051,-6.0844,-6.1597,-6.2538,-6.3443,-6.4217,-6.4406,-6.45,-6.4555,-6.4518,-6.4662,-6.513,-6.5616,-6.6186,-6.6898,-6.7744,-6.8383,-6.8744,-6.9499,-6.9569,-6.8732,-6.8614,-6.8338,-6.781,-6.7784,-6.7776,-6.7687,-6.7687,-6.7687,-6.7687,-6.7687,-6.7687,-6.7687,-6.7687,-6.7659,-6.7522,-6.6806,-6.6439,-6.6292,-6.5503,-6.4695,-6.3943,-6.3943,-6.3429,-6.2677,-6.2677,-6.2597,-6.2438,-6.1704,-6.1465,-6.1355,-6.0639,-6.0346,-6.0144,-5.9404,-5.867,-5.79,-5.7015,-5.577,-5.4682,-5.4513,-5.3994,-5.3501,-5.3501,-5.3501,-5.3501,-5.3501,-5.3501,-5.3501,-5.3501,-5.3501,-5.3501,-5.3501,-5.3501,-5.3501,-5.3501,-5.3501,-5.3501,-5.3501,-5.3501,-5.3501,-5.3501,-5.3501,-5.3501,-5.3501,-5.3501,-5.3501,-5.3501,-5.3501,-5.3467,-5.3365,-5.2572,-5.215,-5.2181,-5.1356,-5.0191,-4.8693,-4.861,-4.7289,-4.4812,-4.4812,-4.4259,-5.8591,-5.8591,-5.8547,0.0,-5.8286,-5.8286,-5.8286,-5.8286,-5.848,-5.9139,-5.9905,-6.0741,-6.158,-6.2641,-6.3503,0.0,-6.3936,-6.4037,-6.4351,-6.4137,-6.4287,-6.5271,-6.5593,-6.5944,-6.6574,-6.7848,-6.8556,-6.8356,-6.8843,-6.8978,-6.8516,-6.8185,-6.793,-6.7714,-6.7687,-6.7687,-6.7687,-6.7687,-6.7687,-6.7687,-6.7687,-6.7687,-6.7687,-6.7687,-6.7687,-6.7696,-6.7338,-6.6916,-6.6476,-6.6145,-6.5521,-6.4751,-6.4273,-6.387,-6.3503,-6.3007,-6.278,-6.2743,-6.242,-6.231,-6.2236,-6.1924,-6.1484,-6.1043,-6.0694,-5.9714,-5.8493,-5.7262,-5.6094,-5.5052,-5.4194,-5.3717,-5.3501,-5.3501,-5.3501,-5.3501,-5.3501,-5.3501,-5.3501,-5.3501,-5.3501,-5.3501,-5.3501,-5.3501,-5.3501,-5.3501,-5.3501,-5.3501,-5.3501,-5.3501,-5.3501,-5.3501,-5.3501,-5.3501,-5.3501,-5.3501,-5.3501,-5.3501,-5.3501,-5.3501,-5.3501,-5.3179,-5.301,-5.301,-5.2249,-5.1212,-4.9981,-4.8961,-4.7428,-4.5423,-4.4801,-4.4071,-5.7997,0.0,0.0,-5.7997,-5.7997,-5.7997,-5.7997,-5.7997,-5.8235,-5.9019,-5.985,-6.0658,-6.1447,-6.2567,-6.3363,-6.3363,-6.3363,-6.3502,-6.3894,-6.3615,-6.3885,-6.5225,-6.5586,-6.5951,-6.6501,-6.7782,-6.8451,-6.8165,-6.8373,-6.844,-6.8284,-6.7923,-6.7687,-6.7687,-6.7687,-6.7687,-6.7687,-6.7687,-6.7687,-6.7687,-6.7687,-6.7687,-6.7687,-6.7687,-6.7687,-6.7687,-6.7687,-6.7357,-6.6824,-6.6824,-6.6366,-6.5558,-6.4751,-6.4292,-6.398,-6.3135,-6.278,-6.278,-6.278,-6.278,-6.278,-6.278,-6.2258,-6.1558,-6.1339,-6.0151,-5.8581,-5.7258,-5.6168,-5.5149,-5.4076,-5.3653,-5.3501,-5.3501,-5.3501,-5.3501,-5.3501,-5.3501,-5.3501,-5.3501,-5.3501,-5.3501,-5.3501,-5.3501,-5.3501,-5.3501,-5.3501,-5.3501,-5.3501,-5.3501,-5.3501,-5.3501,-5.3501,-5.3501,-5.3501,-5.3501,-5.3501,-5.3501,-5.3501,-5.3501,-5.3501,-5.3501,-5.3501,-5.3501,-5.2942,-5.2186,-5.1271,-4.9743,-4.8147,-4.6548,-4.5275,-4.4273,0.0,0.0,-5.7997,-5.7997,-5.7997,-5.7997,-5.7997,-5.7997,-5.8235,-5.9019,-5.985,-6.0658,-6.1447,-6.2254,-6.283,-6.283,-6.283,-6.283,-6.2855,-6.283,-6.3333,-6.4663,-6.5576,-6.6377,0.0,-6.7682,-6.8145,-6.8451,-6.8474,-6.8284,-6.7749,-6.7714,-6.7687,-6.7687,-6.7687,-6.7687,-6.7687,-6.7687,-6.7687,-6.7687,-6.7687,-6.7687,-6.7687,-6.7687,-6.7687,-6.7687,-6.7687,-6.7687,-6.765,-6.765,-6.7173,-6.6384,-6.5595,-6.4787,-6.398,-6.3135,-6.278,-6.278,-6.278,-6.278,-6.278,-6.278,-6.2253,-6.1451,-6.0666,-5.9313,-5.786,-5.7032,-5.5753,-5.4617,-5.4601,-5.4042,-5.3501,-5.3501,-5.3501,-5.3501,-5.3501,-5.3501,-5.3501,-5.3501,-5.3501,-5.3501,-5.3501,-5.3501,-5.3501,-5.3501,-5.3501,-5.3501,-5.3501,-5.3501,-5.3501,-5.3501,-5.3501,-5.3501,-5.3501,-5.3501,-5.3501,-5.3501,-5.3501,-5.3501,-5.3501,-5.3501,-5.3501,-5.3501,-5.3484,-5.3078,-5.2267,-5.1237,-4.9857,-4.82,-4.645,-4.5168,-5.7997,0.0,-5.7997,-5.7997,-5.7997,-5.7997,-5.7997,-5.7997,-5.8382,-5.9722,-6.0217,-6.0823,-6.2163,-6.2622,-6.278,-6.278,-6.278,-6.278,-6.278,-6.3301,-6.4019,-6.5017,-6.5853,0.0,0.0,0.0,0.0,-6.7996,-6.7982,-6.7897,-6.7714,-6.7687,-6.7687,-6.7687,-6.7687,-6.7687,-6.7687,-6.7687,-6.7687,-6.7687,-6.7687,-6.7687,-6.7687,-6.7687,-6.7687,-6.7687,-6.7687,-6.7687,-6.7687,-6.7687,-6.7522,-6.7155,-6.5815,-6.5136,-6.4732,-6.3337,-6.278,-6.278,-6.278,-6.278,-6.2712,-6.2174,-6.1815,-6.1466,-6.0634,-5.9618,-5.8574,-5.7796,-5.6833,-5.5953,-5.5463,-5.4786,-5.4228,-5.4228,-5.3856,-5.3501,-5.3501,-5.3501,-5.3501,-5.3501,-5.3501,-5.3501,-5.3501,-5.3501,-5.3501,-5.3501,-5.3501,-5.3501,-5.3501,-5.3501,-5.3501,-5.3501,-5.3501,-5.3501,-5.3501,-5.3501,-5.3501,-5.3501,-5.3501,-5.3501,-5.3501,-5.3501,-5.3501,-5.3501,-5.3501,-5.301,-5.2036,-5.1019,-4.9639,-4.7919,-4.6676,-4.5468,-5.7997,-5.7997,-5.7997,-5.7997,-5.7997,-5.7997,-5.7997,-5.8217,-5.8804,-6.0126,-6.0639,-6.1227,-6.2542,-6.278,-6.278,-6.278,-6.278,-6.278,-6.278,-6.3558,-6.4402,-6.5209,-6.6017,-6.6824,0.0,0.0,0.0,-6.7741,-6.7687,-6.7687,-6.7687,-6.7687,-6.7687,-6.7687,-6.7687,-6.7687,-6.7687,-6.7687,-6.7687,-6.7687,-6.7687,-6.7687,-6.7687,-6.7687,-6.7687,-6.7687,-6.7687,-6.7687,-6.7687,-6.7687,-6.7687,-6.7522,-6.5925,-6.5319,-6.5118,-6.3429,-6.278,-6.278,-6.278,-6.261,-6.2298,-6.1788,-6.1182,-6.0605,-6.01,-5.9361,-5.8548,-5.8118,-5.7395,-5.6697,-5.6224,-5.5547,-5.4921,-5.4651,-5.4228,-5.3822,-5.3568,-5.3501,-5.3501,-5.3501,-5.3501,-5.3501,-5.3501,-5.3501,-5.3501,-5.3501,-5.3501,-5.3501,-5.3501,-5.3501,-5.3501,-5.3501,-5.3501,-5.3501,-5.3501,-5.3501,-5.3501,-5.3501,-5.3501,-5.3501,-5.3501,-5.3501,-5.3501,-5.3501,-5.3501,-5.3144,-5.247,-5.1096,-4.981,-4.8678,-4.708,-4.5723,-5.7997,-5.7997,-5.7997,-5.7997,-5.7997,-5.7997,-5.7997,-5.8621,-5.9423,-6.0236,-6.1043,-6.1851,0.0,0.0,-6.278,-6.278,-6.278,-6.278,-6.278,-6.3594,-6.4439,0.0,0.0,0.0,0.0,0.0,0.0,-6.7687,0.0,-6.7687,-6.7687,-6.7687,-6.7687,-6.7687,-6.7687,-6.7687,-6.7687,-6.7687,-6.7687,-6.7687,-6.7687,-6.7687,-6.7687,-6.7687,-6.7687,-6.7687,-6.7687,-6.7687,-6.7687,-6.7687,-6.7696,-6.7467,-6.5907,-6.5283,-6.5044,-6.3386,-6.278,-6.278,-6.278,-6.2298,-6.1659,-6.1576,-6.0453,-5.9144,-5.9044,-5.8511,-5.7881,-5.7881,-5.7391,-5.6867,-5.6867,-5.6325,-5.5598,-5.4871,-5.4634,-5.4397,-5.3704,-5.3534,-5.3501,-5.3501,-5.3501,-5.3501,-5.3501,-5.3501,-5.3501,-5.3501,-5.3501,-5.3501,-5.3501,-5.3501,-5.3501,-5.3501,-5.3501,-5.3501,-5.3501,-5.3501,-5.3501,-5.3501,-5.3501,-5.3501,-5.3501,-5.3501,-5.3501,-5.3501,-5.3501,-5.3467,-5.3416,-5.1373,-5.0358,-5.0265,-4.7583,-4.5978,-5.7997,-5.7997,-5.7997,-5.7997,-5.7997,-5.7997,-5.7997,-5.8621,-5.9423,-6.0236,-6.1043,-6.1851,0.0,0.0,0.0,-6.278,-6.278,0.0,-6.278,-6.4071,0.0,-6.5283,0.0,-6.7467,-6.7696,-6.7687,0.0,0.0,-6.7687,-6.7687,-6.7687,-6.7687,-6.7687,-6.7687,-6.7687,-6.7687,-6.7687,-6.7687,-6.7687,-6.7687,-6.7687,-6.7687,-6.7687,-6.7687,-6.7687,-6.7687,-6.7687,-6.7687,-6.7687,-6.7687,-6.7338,-6.6714,-6.5705,-6.4934,-6.4273,-6.3209,-6.278,-6.278,-6.278,-6.2661,-6.2298,-6.1102,-6.0427,-5.9832,-5.8564,-5.8082,-5.7881,-5.7881,-5.7746,-5.7611,-5.7611,-5.707,-5.6478,-5.6275,-5.5395,-5.4532,-5.4346,-5.389,-5.3501,-5.3501,-5.3501,-5.3501,-5.3501,-5.3501,-5.3501,-5.3501,-5.3501,-5.3501,-5.3501,-5.3501,-5.3501,-5.3501,-5.3501,-5.3501,-5.3501,-5.3501,-5.3501,-5.3501,-5.3501,-5.3501,-5.3501,-5.3501,-5.3501,-5.3501,-5.3501,-5.311,-5.2312,-5.1021,-5.0009,-4.9175,-4.771,-4.6426,-5.7997,-5.7997,-5.7997,-5.7997,-5.7997,-5.8088,-5.8455,-5.9153,-5.996,-6.0768,-6.1575,0.0,0.0,0.0,0.0,0.0,0.0,0.0,-6.278,-6.4255,-6.5319,0.0,-6.6714,0.0,-6.7687,-6.7687,-6.7687,0.0,-6.7687,-6.7687,-6.7687,-6.7687,-6.7687,-6.7687,-6.7687,-6.7687,-6.7687,-6.7687,-6.7687,-6.7687,-6.7687,-6.7687,-6.7687,-6.7687,-6.7687,-6.7687,0.0,-6.7687,-6.765,-6.7302,-6.6898,-6.6384,-6.5228,-6.4494,-6.398,-6.3135,-6.278,-6.278,-6.278,-6.278,-6.2541,-6.0926,-6.0149,-5.9574,-5.8298,-5.7881,-5.7881,-5.7881,-5.7881,-5.7881,-5.7881,-5.7577,-5.7205,-5.6884,-5.5919,-5.4989,-5.4668,-5.4008,-5.3501,-5.3501,-5.3501,-5.3501,-5.3501,-5.3501,-5.3501,-5.3501,-5.3501,-5.3501,-5.3501,-5.3501,-5.3501,-5.3501,-5.3501,-5.3501,-5.3501,-5.3501,-5.3501,-5.3501,-5.3501,-5.3501,-5.3501,-5.3501,-5.3501,-5.3501,-5.3501,-5.3195,-5.2592,-5.1541,-5.0496,-4.948,-4.8152,-4.6709,-5.7997,-5.7997,-5.7997,-5.7997,-5.7997,-5.818,-5.8872,-5.9758,-6.0603,-6.13,0.0,-6.278,-6.278,-6.278,-6.278,-6.278,0.0,-6.278,-6.278,-6.4255,-6.5319,-6.5319,-6.6714,-6.7687,-6.7687,-6.7687,-6.7687,-6.7687,-6.7687,-6.7687,-6.7687,-6.7687,-6.7687,-6.7687,-6.7687,-6.7687,-6.7687,-6.7687,-6.7687,-6.7687,-6.7687,-6.7687,-6.7687,-6.7687,-6.7632,-6.7522,0.0,0.0,-6.732,-6.6623,-6.6274,-6.6035,-6.464,-6.4016,-6.3833,-6.3099,-6.273,-6.2661,-6.2755,-6.2661,-6.2245,-6.0867,-5.9896,-5.9095,-5.8173,-5.7881,-5.7881,-5.7881,-5.7881,-5.7881,-5.7881,-5.7881,-5.7729,-5.7103,-5.6325,-5.553,-5.4871,-5.4093,-5.3501,-5.3501,-5.3501,-5.3501,-5.3501,-5.3501,-5.3501,-5.3501,-5.3501,-5.3501,-5.3501,-5.3501,-5.3501,-5.3501,-5.3501,-5.3501,-5.3501,-5.3501,-5.3501,-5.3501,-5.3501,-5.3501,-5.3501,-5.3501,-5.3501,-5.3501,-5.3501,-5.3501,-5.3501,-5.2435,-5.1394,-5.0342,-4.8592,-4.6915,-5.7997,-5.7997,-5.7997,-5.7997,-5.7997,-5.8033,-5.818,-5.9355,0.0,0.0,0.0,-6.278,-6.278,-6.278,0.0,-6.278,0.0,0.0,0.0,0.0,-6.5319,0.0,0.0,0.0,0.0,0.0,0.0,0.0,0.0,0.0,-6.7687,-6.7687,-6.7687,-6.7687,-6.7687,-6.7687,-6.7687,-6.7687,-6.7687,-6.7687,-6.7687,-6.7687,-6.7687,-6.7687,-6.7338,-6.6714,0.0,0.0,-6.5723,-6.5576,-6.5118,-6.4475,-6.42,-6.3649,-6.3025,-6.2853,-6.2394,-6.1897,-6.2567,-6.1942,-6.0778,-6.0506,-6.0291,-5.9914,-5.8352,-5.7881,-5.7881,-5.7881,-5.7881,-5.7881,-5.7881,-5.7881,-5.7865,-5.7729,-5.6681,-5.5647,-5.5547,-5.4465,-5.3501,-5.3501,-5.3501,-5.3501,-5.3501,-5.3501,-5.3501,-5.3501,-5.3501,-5.3501,-5.3501,-5.3501,-5.3501,-5.3501,-5.3501,-5.3501,-5.3501,-5.3501,-5.3501,-5.3501,-5.3501,-5.3501,-5.3501,-5.3501,-5.3501,-5.3501,-5.3501,-5.3501,-5.3501,-5.2435,-5.1394,-5.0342,-4.8592,-4.6915,-5.7997,-5.7997,-5.7997,-5.7997,-5.7997,-5.8107,-5.8529,0.0,0.0,0.0,-6.1979,-6.278,-6.278,0.0,0.0,0.0,0.0,0.0,0.0,0.0,0.0,0.0,0.0,0.0,0.0,0.0,0.0,0.0,0.0,0.0,-6.7687,-6.7687,-6.7687,-6.7687,-6.7687,-6.7687,-6.7687,-6.7687,-6.7687,-6.7687,-6.7687,-6.7467,-6.7063,-6.7063,-6.6641,-6.5888,0.0,0.0,-6.4603,-6.4157,-6.3529,-6.2748,-6.2334,-6.1909,-6.1548,-6.1548,-6.1304,-6.1044,-6.1436,-6.1044,-6.0322,-5.9864,-5.9736,-5.9509,-5.8263,-5.7881,-5.7881,-5.7881,-5.7881,-5.7881,-5.7881,-5.7881,-5.7881,-5.7881,-5.6782,-5.5478,-5.4735,-5.4008,-5.3501,-5.3501,-5.3501,-5.3501,-5.3501,-5.3501,-5.3501,-5.3501,-5.3501,-5.3501,-5.3501,-5.3501,-5.3501,-5.3501,-5.3501,-5.3501,-5.3501,-5.3501,-5.3501,-5.3501,-5.3501,-5.3501,-5.3501,-5.3501,-5.3501,-5.3501,-5.3501,-5.3501,-5.3501,-5.2435,-5.1182,-4.9859,-4.8138,-4.6395,-5.7997,-5.7997,-5.7997,-5.7997,-5.7997,-5.8162,-5.8804,-5.9575,0.0,0.0,-6.1979,-6.2603,-6.2762,0.0,0.0,0.0,0.0,0.0,0.0,0.0,0.0,0.0,0.0,0.0,0.0,0.0,0.0,0.0,0.0,0.0,0.0,-6.7687,-6.7687,-6.7687,-6.7687,-6.7687,-6.7687,-6.7687,-6.7595,-6.743,-6.743,-6.691,-6.5969,-6.5969,-6.5432,-6.4503,0.0,0.0,0.0,-6.2547,-6.1926,-6.1278,-6.0645,-6.0414,-6.0414,-6.0414,-6.0291,-6.0149,-6.0353,-6.0166,-5.9786,-5.9278,-5.9111,-5.8959,-5.8137,-5.7881,-5.7881,-5.7881,-5.7881,-5.7881,-5.7881,-5.7881,-5.7814,-5.7492,-5.6427,-5.5108,-5.3788,-5.3501,-5.3501,-5.3501,-5.3501,-5.3501,-5.3501,-5.3501,-5.3501,-5.3501,-5.3501,-5.3501,-5.3501,-5.3501,-5.3501,-5.3501,-5.3501,-5.3501,-5.3501,-5.3501,-5.3501,-5.3501,-5.3501,-5.3501,-5.3501,-5.3501,-5.3501,-5.3501,-5.3501,-5.3501,-5.3501,-5.2269,-5.0892,-4.9368,-4.7518,-4.5822,-5.7997,-5.7997,-5.7997,-5.7997,-5.7997,-5.8015,-5.8088,0.0,0.0,-6.0346,-6.1153,-6.1924,-6.2677,-6.278,0.0,0.0,0.0,0.0,0.0,0.0,0.0,0.0,0.0,0.0,0.0,0.0,0.0,0.0,0.0,0.0,0.0,-6.7687,-6.7687,-6.7687,-6.7687,-6.7687,-6.7687,-6.7687,-6.732,-6.6604,-6.6604,-6.577,-6.4238,-6.4238,-6.3392,-6.1951,0.0,0.0,0.0,-6.063,-6.0582,-6.0503,-6.045,-6.0414,-6.0414,-6.0414,-5.9896,-5.9344,-6.0117,-5.9394,-5.8244,-5.8909,-5.9111,-5.8959,-5.8137,-5.7881,-5.7881,-5.7881,-5.7881,-5.7881,-5.7881,-5.7881,-5.756,-5.6224,-5.5294,-5.4482,-5.367,-5.3501,-5.3501,-5.3501,-5.3501,-5.3501,-5.3501,-5.3501,-5.3501,-5.3501,-5.3501,-5.3501,-5.3501,-5.3501,-5.3501,-5.3501,-5.3501,-5.3501,-5.3501,-5.3501,-5.3501,-5.3501,-5.3501,-5.3501,-5.3501,-5.3501,-5.3501,-5.3501,-5.3501,-5.3501,-5.3501,-5.1806,-5.0442,-4.9352,-4.7085,-4.5377,-5.7997,-5.7997,-5.7997,-5.7997,-5.7997,-5.7997,-5.7997,0.0,0.0,-5.9606,-6.0694,-6.1686,-6.2016,-6.2475,-6.278,0.0,0.0,0.0,0.0,0.0,0.0,0.0,0.0,0.0,0.0,0.0,0.0,0.0,0.0,0.0,0.0,-6.7687,-6.7687,-6.7687,-6.7687,-6.7467,-6.6971,-6.6971,-6.6326,-6.4993,-6.4993,-6.4126,-6.2563,-6.2563,-6.1923,-6.0875,0.0,0.0,0.0,-5.9639,-5.9328,-5.8909,-5.8909,-5.8909,-5.8909,-5.8909,-5.8668,-5.8423,-5.8772,-5.8458,-5.7954,-5.8281,-5.8388,-5.8317,-5.801,-5.7881,-5.7881,-5.7881,-5.7881,-5.7881,-5.7881,-5.756,-5.6867,-5.5395,-5.4803,-5.4397,-5.367,-5.3501,-5.3501,-5.3501,-5.3501,-5.3501,-5.3501,-5.3501,-5.3501,-5.3501,-5.3501,-5.3501,-5.3501,-5.3501,-5.3501,-5.3501,-5.3501,-5.3501,-5.3501,-5.3501,-5.3501,-5.3501,-5.3501,-5.3501,-5.3501,-5.3501,-5.3501,-5.3501,-5.3501,-5.3179,-5.2505,-5.0841,-4.9272,-4.7853,-4.5863,-4.4503,-5.7997,-5.7997,-5.7997,-5.7997,-5.7997,-5.7997,0.0,0.0,0.0,-5.9148,-6.0107,-6.1043,-6.1502,-6.2053,-6.253,0.0,0.0,0.0,0.0,0.0,0.0,0.0,0.0,0.0,0.0,0.0,0.0,0.0,0.0,0.0,0.0,0.0,-6.7186,-6.7669,-6.7467,-6.6964,-6.6126,-6.5888,-6.4929,-6.3298,-6.3298,-6.2449,-6.0882,-6.0864,-6.0405,0.0,0.0,0.0,0.0,-5.8755,-5.8406,-5.7881,-5.7881,-5.7881,-5.7881,-5.7881,-5.7881,-5.7881,-5.7881,-5.7881,-5.7881,-5.7881,-5.7881,-5.7881,-5.7881,-5.7881,-5.7881,-5.7881,-5.7729,-5.7509,-5.7306,-5.6697,-5.5886,-5.4837,-5.4431,-5.4126,-5.3619,-5.3501,-5.3501,-5.3501,-5.3501,-5.3501,-5.3501,-5.3501,-5.3501,-5.3501,-5.3501,-5.3501,-5.3501,-5.3501,-5.3501,-5.3501,-5.3501,-5.3501,-5.3501,-5.3501,-5.3501,-5.3501,-5.3501,-5.3501,-5.3501,-5.3501,-5.3501,-5.3501,-5.3195,-5.2562,-5.1592,-4.9619,-4.7952,-4.6579,-4.4809,-4.3738,-5.7997,-5.7997,-5.7997,-5.7997,-5.7997,-5.7997,0.0,0.0,-5.8235,-5.9038,-5.9203,-5.9698,-6.13,-6.1594,-6.1869,-6.2652,0.0,0.0,0.0,0.0,0.0,0.0,0.0,0.0,0.0,0.0,0.0,0.0,0.0,0.0,0.0,0.0,-6.6009,-6.765,-6.6916,-6.608,-6.521,-6.4423,-6.3232,-6.1628,-6.1628,-6.0797,-5.9231,-5.9145,0.0,0.0,0.0,0.0,0.0,-5.7918,-5.7918,-5.7881,-5.7881,-5.7881,-5.7881,-5.7881,-5.7881,-5.7881,-5.7881,-5.7881,-5.7881,-5.7881,-5.7881,-5.7881,-5.7881,-5.7881,-5.7881,-5.7881,-5.7357,-5.6647,-5.5919,-5.5175,-5.4617,-5.4583,-5.4042,-5.3518,-5.3501,-5.3501,-5.3501,-5.3501,-5.3501,-5.3501,-5.3501,-5.3501,-5.3501,-5.3501,-5.3501,-5.3501,-5.3501,-5.3501,-5.3501,-5.3501,-5.3501,-5.3501,-5.3501,-5.3501,-5.3501,-5.3501,-5.3501,-5.3501,-5.3501,-5.3501,-5.3501,-5.3501,-5.247,-5.1578,-5.0907,-4.8225,-4.6586,-4.5865,-4.4128,-4.3305,-5.7997,-5.7997,-5.7997,-5.7997,-5.7997,-5.7997,-5.7997,0.0,-5.807,-5.8327,-5.8822,-5.9349,-5.9887,-6.086,-6.1667,-6.1942,0.0,0.0,0.0,0.0,0.0,0.0,0.0,0.0,0.0,0.0,0.0,0.0,0.0,0.0,0.0,0.0,0.0,-6.5079,-6.4387,-6.3585,-6.2758,-6.2478,-6.1543,-5.989,-5.989,-5.9337,-5.8315,-5.8298,0.0,0.0,0.0,0.0,0.0,-5.7881,-5.7881,-5.7881,-5.7881,-5.7881,-5.7881,-5.7881,-5.7881,-5.7881,-5.7881,-5.7881,-5.7881,-5.7881,-5.7543,-5.7154,-5.7154,-5.7492,-5.778,-5.7289,-5.663,-5.5886,-5.5141,-5.4769,-5.4465,-5.3974,-5.367,-5.3501,-5.3501,-5.3501,-5.3501,-5.3501,-5.3501,-5.3501,-5.3501,-5.3501,-5.3501,-5.3501,-5.3501,-5.3501,-5.3501,-5.3501,-5.3501,-5.3501,-5.3501,-5.3501,-5.3501,-5.3501,-5.3501,-5.3501,-5.3501,-5.3501,-5.3501,-5.3501,-5.3501,-5.3501,-5.264,-5.1416,-4.9867,-4.8067,-4.6122,-4.4113,-4.3578,-4.329,0.0,-5.7997,-5.7997,-5.7997,-5.7997,0.0,0.0,0.0,-5.7997,-5.7997,-5.84,-5.8859,-5.9129,-6.0034,-6.0786,-6.1098,0.0,0.0,0.0,0.0,0.0,0.0,0.0,0.0,0.0,0.0,0.0,0.0,0.0,0.0,0.0,0.0,0.0,-6.2056,-6.2232,-6.1962,-6.1152,-6.0821,-5.9979,-5.8651,-5.8651,-5.837,-5.7881,0.0,0.0,0.0,0.0,0.0,0.0,-5.7881,-5.7881,-5.7881,-5.7881,-5.7881,-5.7881,-5.7881,-5.7712,-5.7476,-5.7476,-5.7289,-5.707,-5.707,-5.6765,-5.6393,-5.6393,-5.6714,-5.6917,-5.6173,-5.5649,-5.5124,-5.438,-5.4177,-5.4059,-5.3619,-5.3501,-5.3501,-5.3501,-5.3501,-5.3501,-5.3501,-5.3501,-5.3501,-5.3501,-5.3501,-5.3501,-5.3501,-5.3501,-5.3501,-5.3501,-5.3501,-5.3501,-5.3501,-5.3501,-5.3501,-5.3501,-5.3501,-5.3501,-5.3501,-5.3501,-5.3501,-5.3501,-5.3501,-5.3365,-5.3061,-5.2186,-5.0884,-4.9127,-4.726,-4.5297,-4.329,-4.329,-4.329,0.0,-5.7997,0.0,0.0,0.0,0.0,0.0,0.0,0.0,-5.7997,-5.7997,-5.8235,-5.8964,-5.9124,-5.9375,0.0,0.0,0.0,0.0,0.0,0.0,0.0,0.0,0.0,0.0,0.0,0.0,0.0,0.0,0.0,0.0,0.0,0.0,-5.8967,-6.049,-6.0967,-6.022,-5.9424,-5.8616,-5.7881,-5.7881,-5.7881,-5.7881,0.0,0.0,0.0,0.0,0.0,0.0,-5.7763,-5.7729,-5.7729,-5.7729,-5.7729,-5.7729,-5.7729,-5.7306,-5.6731,-5.6731,-5.6275,-5.57,-5.5649,-5.5632,-5.5632,-5.5546,-5.5563,-5.5497,-5.4786,-5.4549,-5.4346,-5.3687,-5.3501,-5.3501,-5.3501,-5.3501,-5.3501,-5.3501,-5.3501,-5.3501,-5.3501,-5.3501,-5.3501,-5.3501,-5.3501,-5.3501,-5.3501,-5.3501,-5.3501,-5.3501,-5.3501,-5.3501,-5.3501,-5.3501,-5.3501,-5.3501,-5.3501,-5.3501,-5.3501,-5.3501,-5.3501,-5.3501,-5.345,-5.3061,-5.2317,-5.1188,-4.9977,-4.861,-4.6038,-4.4335,-4.3409,-4.3329,-4.329,-5.7997,0.0,-5.7997,-5.7997,-5.7997,-5.7997,0.0,0.0,-5.7997,-5.7997,-5.7997,-5.8052,-5.8253,0.0,0.0,0.0,0.0,0.0,0.0,0.0,0.0,0.0,0.0,0.0,0.0,0.0,0.0,0.0,0.0,0.0,0.0,0.0,0.0,-5.8169,-5.8571,-5.8696,-5.85,-5.8294,-5.8101,-5.7881,-5.7881,-5.7881,-5.7881,0.0,0.0,0.0,0.0,0.0,-5.7019,-5.6461,-5.6224,-5.6224,-5.6224,-5.6224,-5.6224,-5.6224,-5.6122,-5.597,-5.597,-5.5869,-5.5632,-5.504,-5.4854,-5.4752,-5.4194,-5.4414,-5.482,-5.4634,-5.4194,-5.3721,-5.3551,-5.3501,-5.3501,-5.3501,-5.3501,-5.3501,-5.3501,-5.3501,-5.3501,-5.3501,-5.3501,-5.3501,-5.3501,-5.3501,-5.3501,-5.3501,-5.3501,-5.3501,-5.3501,-5.3501,-5.3501,-5.3501,-5.3501,-5.3501,-5.3501,-5.3501,-5.3501,-5.3501,-5.3501,-5.3501,-5.3501,-5.2909,-5.2486,-5.23,-5.0242,-4.8742,-4.7836,-4.5801,-4.4662,-4.4434,-4.3669,-4.329,-5.7054,-5.7456,-5.7997,-5.7997,-5.7997,-5.7997,-5.7997,0.0,0.0,0.0,0.0,0.0,0.0,0.0,0.0,0.0,0.0,0.0,0.0,0.0,0.0,0.0,0.0,0.0,0.0,0.0,0.0,0.0,0.0,0.0,0.0,0.0,0.0,0.0,-5.7881,-5.7881,-5.7881,-5.7881,-5.7881,-5.7881,-5.7543,-5.7391,-5.7374,0.0,0.0,0.0,0.0,0.0,-5.6275,-5.5869,-5.5681,-5.5681,-5.5681,-5.5681,-5.5681,-5.5681,-5.5497,-5.5209,-5.5209,-5.4972,-5.4634,-5.4228,-5.4093,-5.4008,-5.3619,-5.3788,-5.4093,-5.4093,-5.3805,-5.3501,-5.3501,-5.3501,-5.3501,-5.3501,-5.3501,-5.3501,-5.3501,-5.3501,-5.3501,-5.3501,-5.3501,-5.3501,-5.3501,-5.3501,-5.3501,-5.3501,-5.3501,-5.3501,-5.3501,-5.3501,-5.3501,-5.3501,-5.3501,-5.3501,-5.3501,-5.3501,-5.3501,-5.3501,-5.3501,-5.3501,-5.3501,-5.2739,-5.1978,-5.1302,-4.9687,-4.8233,-4.6952,-4.5941,-4.4989,-4.4105,-4.3551,-4.329,-5.592,-5.6641,-5.766,-5.766,-5.766,-5.766,-5.766,0.0,0.0,0.0,0.0,0.0,0.0,0.0,0.0,0.0,0.0,0.0,0.0,0.0,0.0,0.0,0.0,0.0,0.0,0.0,0.0,0.0,0.0,0.0,0.0,0.0,0.0,0.0,-5.778,-5.7729,-5.7729,-5.7729,-5.7729,-5.7712,-5.6985,-5.663,-5.6613,-5.6004,0.0,0.0,0.0,0.0,-5.553,-5.5429,-5.5378,-5.5378,-5.5378,-5.5431,-5.5518,-5.5413,-5.5111,-5.4769,-5.4652,-5.4177,-5.3634,-5.3534,-5.3501,-5.3501,-5.3501,-5.3501,-5.3501,-5.3501,-5.3501,-5.3501,-5.3501,-5.3501,-5.3501,-5.3501,-5.3501,-5.3501,-5.3501,-5.3501,-5.3501,-5.3501,-5.3501,-5.3501,-5.3501,-5.3501,-5.3501,-5.3501,-5.3501,-5.3501,-5.3501,-5.3501,-5.3501,-5.3501,-5.3501,-5.3501,-5.3501,-5.3501,-5.3501,-5.3501,-5.3501,-5.3399,-5.3162,-5.2384,-5.1319,-4.9949,-4.9181,-4.8015,-4.6419,-4.6119,-4.5159,-4.3512,-4.3369,-4.329,-5.592,-5.5875,-5.6059,-5.6059,-5.6059,-5.6059,-5.6059,0.0,0.0,0.0,0.0,0.0,0.0,0.0,0.0,0.0,0.0,0.0,0.0,0.0,0.0,0.0,0.0,0.0,0.0,0.0,0.0,0.0,0.0,0.0,0.0,0.0,0.0,0.0,0.0,-5.6968,-5.6968,-5.6968,-5.6968,-5.6968,-5.6224,-5.5886,-5.5886,-5.5732,-5.5681,0.0,0.0,-5.4769,-5.4718,-5.411,-5.3839,-5.3839,-5.3839,-5.4222,-5.4687,-5.4057,-5.4557,-5.5437,-5.4824,-5.4523,-5.4328,-5.3684,-5.3501,-5.3501,-5.3501,-5.3501,-5.3501,-5.3501,-5.3501,-5.3501,-5.3501,-5.3501,-5.3501,-5.3501,-5.3501,-5.3501,-5.3501,-5.3501,-5.3501,-5.3501,-5.3501,-5.3501,-5.3501,-5.3501,-5.3501,-5.3501,-5.3501,-5.3501,-5.3501,-5.3501,-5.3501,-5.3501,-5.3501,-5.3501,-5.3501,-5.3501,-5.3501,-5.3501,-5.3501,-5.2926,-5.1623,-5.0828,-5.0033,-4.9187,-4.8292,-4.7655,-4.7373,-4.5778,-4.4871,-4.4548,-4.3708,-4.329,-5.473,-5.4499,-5.4499,-5.4499,-5.5102,-5.5706,-5.5706,0.0,0.0,0.0,0.0,0.0,0.0,0.0,0.0,0.0,0.0,0.0,0.0,0.0,0.0,0.0,0.0,0.0,0.0,0.0,0.0,0.0,0.0,0.0,0.0,0.0,0.0,0.0,0.0,0.0,-5.6224,-5.5801,-5.5801,-5.6207,-5.5463,-5.5108,-5.5091,-5.4702,-5.4515,0.0,0.0,-5.4008,-5.3974,-5.3653,-5.3501,-5.3501,-5.3501,-5.3701,-5.4027,-5.4074,-5.4774,-5.5592,-5.4848,-5.4589,-5.4482,-5.375,-5.3501,-5.3501,-5.3501,-5.3501,-5.3501,-5.3501,-5.3501,-5.3501,-5.3501,-5.3501,-5.3501,-5.3501,-5.3501,-5.3501,-5.3501,-5.3501,-5.3501,-5.3501,-5.3501,-5.3501,-5.3501,-5.3501,-5.3501,-5.3501,-5.3501,-5.3501,-5.3501,-5.3501,-5.3501,-5.3501,-5.3501,-5.3501,-5.3501,-5.3501,-5.3315,-5.2892,-5.2858,-5.2181,-5.0676,-5.027,-4.9746,-4.9018,-4.808,-4.734,-4.685,-4.5468,-4.451,-4.3966,-4.3512,-4.329,-5.3684,-5.3501,-5.3501,-5.3501,0.0,0.0,0.0,-5.5191,0.0,0.0,0.0,0.0,0.0,0.0,0.0,0.0,0.0,0.0,0.0,0.0,0.0,0.0,0.0,0.0,0.0,0.0,0.0,0.0,0.0,0.0,0.0,0.0,0.0,0.0,0.0,0.0,-5.5446,-5.4718,-5.4718,-5.5446,-5.4685,-5.4329,-5.4313,-5.3754,-5.3501,-5.3501,-5.3501,-5.3501,-5.3501,-5.3501,-5.3501,-5.3501,-5.3501,-5.3501,-5.3618,-5.4513,-5.5102,-5.535,-5.4787,-5.4589,-5.4482,-5.375,-5.3501,-5.3501,-5.3501,-5.3501,-5.3501,-5.3501,-5.3501,-5.3501,-5.3501,-5.3501,-5.3501,-5.3501,-5.3501,-5.3501,-5.3501,-5.3501,-5.3501,-5.3501,-5.3501,-5.3501,-5.3501,-5.3501,-5.3501,-5.3501,-5.3501,-5.3501,-5.3501,-5.3501,-5.3501,-5.3501,-5.3501,-5.3501,-5.3501,-5.3331,-5.2892,-5.2097,-5.1877,-5.1285,-5.0135,-4.9915,-4.9466,-4.8704,-4.777,-4.6815,-4.5869,-4.4893,-4.4028,-4.329,-4.329,-4.329,-5.3684,-5.3501,-5.3501,-5.3501,-5.3584,0.0,-5.3668,-5.3668,0.0,-5.4544,0.0,0.0,0.0,0.0,0.0,0.0,0.0,0.0,0.0,0.0,0.0,0.0,0.0,0.0,0.0,0.0,0.0,0.0,0.0,0.0,0.0,0.0,0.0,0.0,0.0,0.0,-5.4668,-5.3957,-5.3957,-5.4668,-5.3923,-5.3585,-5.3585,-5.3518,-5.3501,-5.3501,-5.3501,-5.3501,-5.3501,-5.3501,-5.3501,-5.3501,-5.3501,-5.3501,-5.3668,-5.5102,-5.5232,-5.4665,-5.462,-5.4589,-5.4482,-5.375,-5.3501,-5.3501,-5.3501,-5.3501,-5.3501,-5.3501,-5.3501,-5.3501,-5.3501,-5.3501,-5.3501,-5.3501,-5.3501,-5.3501,-5.3501,-5.3501,-5.3501,-5.3501,-5.3501,-5.3501,-5.3501,-5.3501,-5.3501,-5.3501,-5.3501,-5.3501,-5.3501,-5.3501,-5.3501,-5.3501,-5.3501,-5.3501,-5.3501,-5.2824,-5.208,-5.1352,-5.0642,-5.0202,-5.0084,-4.9441,-4.8627,-4.7737,-4.6781,-4.5834,-4.4909,-4.3888,-4.3369,-4.329,-4.329,-4.329,-5.3584,-5.3501,-5.3501,-5.3501,-5.3501,0.0,0.0,-5.3501,-5.3584,-5.3865,-5.3701,0.0,0.0,0.0,0.0,0.0,0.0,0.0,0.0,0.0,0.0,0.0,0.0,0.0,0.0,0.0,0.0,0.0,0.0,0.0,0.0,0.0,0.0,0.0,0.0,0.0,0.0,-5.3653,-5.3653,-5.3907,-5.3636,-5.3501,-5.3501,-5.3501,-5.3501,-5.3501,-5.3501,-5.3501,-5.3501,-5.3501,-5.3501,-5.3501,-5.3501,-5.3766,-5.4232,-5.4818,-5.5114,-5.5203,-5.4757,-5.4589,-5.4482,-5.375,-5.3501,-5.3501,-5.3501,-5.3501,-5.3501,-5.3501,-5.3501,-5.3501,-5.3501,-5.3501,-5.3501,-5.3501,-5.3501,-5.3501,-5.3501,-5.3501,-5.3501,-5.3501,-5.3501,-5.3501,-5.3501,-5.3501,-5.3501,-5.3501,-5.3501,-5.3501,-5.3501,-5.3501,-5.3501,-5.3501,-5.3061,-5.2756,-5.2756,-5.1623,-5.0811,-5.0524,-5.0253,-4.9881,-4.9424,-4.9154,-4.8829,-4.8482,-4.6986,-4.6048,-4.567,-4.409,-4.329,-4.329,-4.329,-4.329,-5.3501,-5.3501,-5.3501,-5.3501,0.0,0.0,-5.3501,-5.3501,-5.3501,-5.3501,-5.3501,-5.3501,-5.3501,0.0,0.0,0.0,0.0,0.0,0.0,0.0,0.0,0.0,0.0,0.0,0.0,0.0,0.0,0.0,0.0,0.0,0.0,0.0,0.0,0.0,0.0,0.0,0.0,-5.3501,-5.3501,-5.3501,-5.3501,-5.3501,-5.3501,-5.3501,-5.3501,-5.3501,-5.3501,-5.3501,-5.3501,-5.3501,-5.3501,-5.3501,-5.3501,-5.3799,-5.4232,-5.4232,-5.4575,-5.4939,-5.4437,-5.4232,-5.4154,-5.3668,-5.3501,-5.3501,-5.3501,-5.3501,-5.3501,-5.3501,-5.3501,-5.3501,-5.3501,-5.3501,-5.3501,-5.3501,-5.3501,-5.3501,-5.3501,-5.3501,-5.3501,-5.3501,-5.3501,-5.3501,-5.3501,-5.3501,-5.3501,-5.3501,-5.3501,-5.3501,-5.3501,-5.3501,-5.3399,-5.3145,-5.2638,-5.2215,-5.1978,-5.0811,-5.0084,-5.0084,-4.9864,-4.9526,-4.9018,-4.9001,-4.8861,-4.8576,-4.702,-4.6032,-4.5762,-4.409,-4.329,-4.329,-4.329,-4.329,-5.3501,-5.3501,-5.3501,0.0,0.0,0.0,-5.3501,-5.3501,-5.3501,-5.3501,0.0,-5.3501,-5.3501,0.0,0.0,0.0,0.0,0.0,0.0,0.0,0.0,0.0,0.0,0.0,0.0,0.0,0.0,0.0,0.0,0.0,0.0,0.0,0.0,0.0,0.0,0.0,0.0,-5.3501,-5.3501,-5.3501,-5.3501,-5.3501,-5.3501,-5.3501,-5.3501,-5.3501,-5.3501,-5.3501,-5.3501,-5.3501,-5.3501,-5.3501,-5.3501,-5.3501,-5.3501,-5.3501,-5.3501,-5.3501,-5.3501,-5.3501,-5.3501,-5.3501,-5.3501,-5.3501,-5.3501,-5.3501,-5.3501,-5.3501,-5.3501,-5.3501,-5.3501,-5.3501,-5.3501,-5.3501,-5.3501,-5.3501,-5.3501,-5.3501,-5.3501,-5.3501,-5.3501,-5.3501,-5.3501,-5.3501,-5.3501,-5.3501,-5.3501,-5.3501,-5.3501,-5.3501,-5.3179,-5.2384,-5.2283,-5.1995,-5.1236,-5.0507,-5.0084,-5.0084,-4.9407,-4.9001,-4.9001,-4.9001,-4.8545,-4.7622,-4.6678,-4.5726,-4.4812,-4.3771,-4.329,-4.329,-4.329,-4.329,-5.3501,-5.3501,0.0,-5.3501,0.0,0.0,0.0,-5.3501,0.0,0.0,0.0,0.0,0.0,0.0,0.0,0.0,0.0,0.0,0.0,0.0,0.0,0.0,0.0,0.0,0.0,0.0,0.0,0.0,0.0,0.0,0.0,0.0,0.0,0.0,0.0,0.0,0.0,0.0,-5.3501,-5.3501,-5.3501,-5.3501,-5.3501,-5.3501,-5.3501,-5.3501,-5.3501,-5.3501,-5.3501,-5.3501,-5.3501,-5.3501,-5.3501,-5.3501,-5.3501,-5.3501,-5.3501,-5.3501,-5.3501,-5.3501,-5.3501,-5.3501,-5.3501,-5.3501,-5.3501,-5.3501,-5.3501,-5.3501,-5.3501,-5.3501,-5.3501,-5.3501,-5.3501,-5.3501,-5.3501,-5.3501,-5.3501,-5.3501,-5.3501,-5.3501,-5.3501,-5.3501,-5.3501,-5.3501,-5.3501,-5.3501,-5.3501,-5.3501,-5.3501,-5.301,-5.2553,-5.2334,-5.1369,-5.0659,-5.0439,-4.9746,-4.9323,-4.9323,-4.912,-4.9001,-4.9001,-4.9001,-4.8545,-4.7622,-4.6678,-4.5726,-4.4812,-4.3771,-4.329,-4.329,-4.329,-4.329,-5.3501,-5.3501,0.0,-5.3501,-5.3501,-5.3501,-5.3501,0.0,0.0,0.0,0.0,0.0,0.0,0.0,0.0,0.0,0.0,0.0,0.0,0.0,0.0,0.0,0.0,0.0,0.0,0.0,0.0,0.0,0.0,0.0,0.0,0.0,0.0,0.0,0.0,0.0,0.0,0.0,0.0,-5.3501,-5.3501,-5.3501,-5.3501,-5.3501,-5.3501,-5.3501,-5.3501,-5.3501,-5.3501,-5.3501,-5.3501,-5.3501,-5.3501,-5.3501,-5.3501,-5.3501,-5.3501,-5.3501,-5.3501,-5.3501,-5.3501,-5.3501,-5.3501,-5.3501,-5.3501,-5.3501,-5.3501,-5.3501,-5.3501,-5.3501,-5.3501,-5.3501,-5.3501,-5.3501,-5.3501,-5.3501,-5.3501,-5.3501,-5.3501,-5.3501,-5.3501,-5.3501,-5.3501,-5.3501,-5.3501,-5.3501,-5.323,-5.3027,-5.3027,-5.235,-5.1758,-5.1454,-5.0625,-4.9965,-4.9678,-4.9255,-4.9001,-4.9001,-4.9001,-4.9001,-4.9001,-4.8639,-4.8193,-4.7622,-4.6295,-4.5358,-4.4812,-4.3771,-4.329,-4.329,-4.329,-4.329,-5.3484,0.0,0.0,0.0,0.0,0.0,0.0,0.0,0.0,0.0,0.0,0.0,0.0,0.0,0.0,0.0,0.0,0.0,0.0,0.0,0.0,0.0,0.0,0.0,0.0,0.0,0.0,0.0,0.0,0.0,0.0,0.0,0.0,0.0,0.0,0.0,0.0,0.0,0.0,0.0,-5.3501,-5.3501,-5.3501,-5.3501,-5.3501,-5.3501,-5.3501,-5.3501,-5.3501,-5.3501,-5.3501,-5.3501,-5.3501,-5.3501,-5.3501,-5.3501,-5.3501,-5.3501,-5.3501,-5.3501,-5.3501,-5.3501,-5.3501,-5.3501,-5.3501,-5.3501,-5.3501,-5.3501,-5.3501,-5.3501,-5.3501,-5.3501,-5.3501,-5.3501,-5.3501,-5.3501,-5.3501,-5.3501,-5.3501,-5.3501,-5.3501,-5.3501,-5.3501,-5.3501,-5.3484,-5.3399,-5.2773,-5.2283,-5.2215,-5.1572,-5.0845,-5.0168,-5.0033,-4.9729,-4.9069,-4.9001,-4.9001,-4.9001,-4.9001,-4.897,-4.8861,-4.8047,-4.7556,-4.7473,-4.5706,-4.4737,-4.4662,-4.3747,-4.329,-4.329,-4.329,-4.329,0.0,-5.3044,0.0,0.0,0.0,0.0,0.0,0.0,0.0,0.0,0.0,0.0,0.0,0.0,0.0,0.0,0.0,0.0,0.0,0.0,0.0,0.0,0.0,0.0,0.0,0.0,0.0,0.0,0.0,0.0,0.0,0.0,0.0,0.0,0.0,0.0,-5.3501,-5.3501,-5.3501,0.0,-5.3501,-5.3501,-5.3501,-5.3501,-5.3501,-5.3501,-5.3501,-5.3501,-5.3501,-5.3501,-5.3501,-5.3501,-5.3501,-5.3501,-5.3501,-5.3501,-5.3501,-5.3501,-5.3501,-5.3501,-5.3501,-5.3501,-5.3501,-5.3501,-5.3501,-5.3501,-5.3501,-5.3501,-5.3501,-5.3501,-5.3501,-5.3501,-5.3501,-5.3501,-5.3501,-5.3501,-5.3501,-5.3501,-5.3501,-5.3501,-5.3501,-5.3501,-5.3501,-5.3501,-5.3298,-5.2655,-5.2418,-5.2097,-5.1522,-5.0794,-5.027,-5.0101,-4.9576,-4.9171,-4.9018,-4.9001,-4.9001,-4.9001,-4.9001,-4.8688,-4.7933,-4.7704,-4.7239,-4.6539,-4.5395,-4.4412,-4.363,-4.3409,-4.329,-4.329,-4.329,-4.329,0.0,0.0,0.0,0.0,0.0,0.0,0.0,0.0,0.0,0.0,0.0,0.0,0.0,0.0,0.0,0.0,0.0,0.0,0.0,0.0,0.0,0.0,0.0,0.0,0.0,0.0,0.0,0.0,0.0,0.0,0.0,0.0,0.0,0.0,0.0,0.0,-5.3501,-5.3501,-5.3501,-5.3501,-5.3501,-5.3501,-5.3501,-5.3501,-5.3501,-5.3501,-5.3501,-5.3501,-5.3501,-5.3501,-5.3501,-5.3501,-5.3501,-5.3501,-5.3501,-5.3501,-5.3501,-5.3501,-5.3501,-5.3501,-5.3501,-5.3501,-5.3501,-5.3501,-5.3501,-5.3501,-5.3501,-5.3501,-5.3501,-5.3501,-5.3501,-5.3501,-5.3501,-5.3501,-5.3501,-5.3501,-5.3501,-5.3501,-5.3501,-5.3501,-5.3501,-5.3501,-5.3501,-5.3179,-5.2672,-5.1894,-5.1471,-5.1099,-5.0727,-5.0033,-4.956,-4.956,-4.9238,-4.9001,-4.9001,-4.9001,-4.9001,-4.9001,-4.9001,-4.8781,-4.8289,-4.7836,-4.6968,-4.5561,-4.5058,-4.4297,-4.329,-4.3771,-4.3771,-4.329,-4.329,-4.329,0.0,0.0,0.0,0.0,0.0,0.0,0.0,0.0,0.0,0.0,0.0,0.0,0.0,0.0,0.0,0.0,0.0,0.0,0.0,0.0,0.0,0.0,0.0,0.0,0.0,0.0,0.0,0.0,0.0,0.0,0.0,0.0,0.0,0.0,0.0,-5.3501,-5.3501,-5.3501,-5.3433,-5.3298,-5.3162,-5.3112,-5.3112,-5.3112,-5.3264,-5.3501,-5.3501,-5.3501,-5.3501,-5.3501,-5.3501,-5.3501,-5.3501,-5.3501,-5.3501,-5.3501,-5.3501,-5.3501,-5.3501,-5.3501,-5.3501,-5.3501,-5.3501,-5.3501,-5.3501,-5.3501,-5.3501,-5.3501,-5.3501,-5.3501,-5.3501,-5.3501,-5.3501,-5.3501,-5.3501,-5.3501,-5.3501,-5.3501,-5.3501,-5.3501,-5.3399,-5.3264,-5.3129,-5.2553,-5.186,-5.1133,-5.049,-5.0033,-4.9915,-4.9373,-4.9001,-4.9001,-4.9001,-4.9001,-4.9001,-4.9001,-4.9001,-4.9001,-4.9001,-4.894,-4.8767,-4.8015,-4.6728,-4.4849,-4.4812,-4.4412,-4.3551,-4.422,-4.4105,-4.329,-4.329,-4.329,0.0,0.0,0.0,0.0,0.0,0.0,0.0,0.0,0.0,0.0,0.0,0.0,0.0,0.0,0.0,0.0,0.0,0.0,0.0,0.0,0.0,0.0,0.0,0.0,0.0,0.0,0.0,0.0,0.0,0.0,0.0,0.0,-5.3501,-5.3501,-5.3501,0.0,-5.3501,-5.3501,-5.3162,-5.2452,-5.1826,-5.1522,-5.1522,-5.1522,-5.2249,-5.3501,-5.3501,-5.3501,-5.3501,-5.3501,-5.3501,-5.3501,-5.3501,-5.3501,-5.3501,-5.3501,-5.3501,-5.3501,-5.3501,-5.3501,-5.3501,-5.3501,-5.3501,-5.3501,-5.3501,-5.3501,-5.3501,-5.3501,-5.3501,-5.3501,-5.3501,-5.3501,-5.3501,-5.3501,-5.3501,-5.3501,-5.3501,-5.3501,-5.3501,-5.3501,-5.2942,-5.2266,-5.164,-5.1437,-5.1116,-5.0355,-5.0152,-4.9864,-4.9221,-4.9069,-4.9001,-4.9001,-4.9001,-4.9001,-4.9001,-4.9001,-4.9001,-4.9001,-4.9001,-4.8656,-4.7836,-4.7655,-4.6728,-4.4849,-4.4812,-4.4737,-4.4586,-4.3849,-4.3433,-4.329,-4.329,-4.329,0.0,0.0,0.0,0.0,0.0,0.0,0.0,0.0,0.0,0.0,0.0,0.0,0.0,0.0,0.0,0.0,0.0,0.0,0.0,0.0,0.0,0.0,0.0,0.0,0.0,0.0,0.0,0.0,0.0,0.0,0.0,-5.3501,-5.3298,-5.2841,-5.2841,0.0,-5.2232,-5.2215,-5.2046,-5.1691,-5.1369,-5.1185,-5.1185,-5.1185,-5.1589,-5.2215,-5.2215,-5.2452,-5.2841,-5.2841,-5.3095,-5.3501,-5.3501,-5.3501,-5.3501,-5.3501,-5.3501,-5.3501,-5.3501,-5.3501,-5.3501,-5.3501,-5.3501,-5.3501,-5.3501,-5.3501,-5.3501,-5.3501,-5.3501,-5.3501,-5.3501,-5.3501,-5.3501,-5.3501,-5.3162,-5.2841,-5.2841,-5.2841,-5.2706,-5.23,-5.1944,-5.1454,-5.071,-5.0591,-5.0338,-4.9593,-4.9475,-4.9373,-4.9035,-4.9001,-4.9001,-4.9001,-4.9001,-4.9001,-4.9001,-4.9001,-4.9001,-4.9001,-4.9001,-4.8813,-4.8401,-4.7868,-4.7205,-4.6365,-4.585,-4.5064,-4.3966,-4.4066,-4.3849,-4.329,-4.329,-4.329,0.0,0.0,0.0,0.0,0.0,0.0,0.0,0.0,0.0,0.0,0.0,0.0,0.0,0.0,0.0,0.0,0.0,0.0,0.0,0.0,0.0,0.0,0.0,0.0,0.0,0.0,0.0,0.0,0.0,0.0,-5.2942,-5.2926,-5.2655,-5.2046,-5.2029,-5.1775,-5.1217,-5.1014,-5.093,-5.093,-5.0744,-5.0659,-5.0659,-5.0659,-5.0659,-5.0676,-5.1048,-5.1522,-5.2029,-5.2029,-5.2384,-5.2926,-5.2926,-5.2926,-5.2942,-5.3129,-5.3196,-5.323,-5.3433,-5.3501,-5.3501,-5.3501,-5.3501,-5.3501,-5.3501,-5.3501,-5.3501,-5.3501,-5.3501,-5.345,-5.3247,-5.3196,-5.3162,-5.2959,-5.2469,-5.2029,-5.2029,-5.2029,-5.1809,-5.1065,-5.093,-5.0693,-4.9949,-4.9813,-4.9627,-4.9086,-4.9001,-4.9001,-4.9001,-4.9001,-4.9001,-4.9001,-4.9001,-4.9001,-4.9001,-4.9001,-4.9001,-4.9001,-4.8798,-4.8639,-4.8639,-4.7737,-4.7138,-4.6884,-4.6032,-4.495,-4.3669,-4.4182,-4.4028,-4.329,-4.3125,-4.309,0.0,0.0,0.0,0.0,0.0,0.0,0.0,0.0,0.0,0.0,0.0,0.0,0.0,0.0,0.0,0.0,0.0,0.0,0.0,0.0,0.0,0.0,0.0,0.0,0.0,0.0,0.0,0.0,0.0,0.0,-5.1369,-5.1303,-5.1286,-5.1268,-5.1268,-5.1251,-5.1185,-5.0507,-5.0152,-5.0135,-4.9458,-4.912,-4.912,-4.912,-4.912,-4.9187,-5.0608,-5.1202,-5.1268,-5.1268,-5.1269,-5.1303,-5.1303,-5.1303,-5.142,-5.2114,-5.2367,-5.2469,-5.3247,-5.3501,-5.3501,-5.3501,-5.3501,-5.3501,-5.3501,-5.3501,-5.3501,-5.3501,-5.3501,-5.3331,-5.2553,-5.2367,-5.2198,-5.1505,-5.1269,-5.1268,-5.1268,-5.1268,-5.1048,-5.0287,-5.0152,-4.9915,-4.9187,-4.9069,-4.9035,-4.9018,-4.9001,-4.9001,-4.9001,-4.9001,-4.9001,-4.9001,-4.9001,-4.9001,-4.9001,-4.9001,-4.9001,-4.9001,-4.8144,-4.7655,-4.7655,-4.6781,-4.5834,-4.4946,-4.4278,-4.4204,-4.4699,-4.381,-4.3369,-4.329,-4.2701,-4.2455,0.0,0.0,0.0,0.0,0.0,0.0,0.0,0.0,0.0,0.0,0.0,0.0,0.0,0.0,0.0,0.0,0.0,0.0,0.0,0.0,0.0,0.0,0.0,0.0,0.0,0.0,0.0,0.0,0.0,0.0,-5.1202,-5.1185,-5.0997,-5.0507,-5.049,-5.027,-4.9796,-4.9526,-4.939,-4.939,-4.9137,-4.9001,-4.9001,-4.9001,-4.9001,-4.9035,-4.956,-5.0067,-5.049,-5.049,-5.0777,-5.1185,-5.1185,-5.1185,-5.1219,-5.1505,-5.1606,-5.1657,-5.1928,-5.2029,-5.2029,-5.2029,-5.2029,-5.2029,-5.2029,-5.2029,-5.2029,-5.2029,-5.2029,-5.1978,-5.1674,-5.1606,-5.142,-5.0676,-5.049,-5.0355,-4.9898,-5.0168,-5.027,-4.9543,-4.939,-4.9306,-4.9052,-4.9001,-4.9001,-4.9001,-4.9001,-4.9001,-4.9001,-4.9001,-4.9001,-4.9001,-4.9001,-4.9001,-4.9001,-4.9001,-4.875,-4.8161,-4.7803,-4.734,-4.6747,-4.5389,-4.4502,-4.4167,-4.2906,-4.2584,-4.3266,-4.2475,-4.2087,-4.2073,-4.1848,-4.1767,-4.9001,0.0,0.0,0.0,0.0,0.0,0.0,0.0,0.0,0.0,0.0,0.0,0.0,0.0,0.0,0.0,0.0,0.0,0.0,0.0,0.0,0.0,0.0,0.0,0.0,0.0,0.0,0.0,0.0,0.0,-5.049,-5.0473,-5.0253,-4.9746,-4.9729,-4.9492,-4.9001,-4.9001,-4.9001,-4.9001,-4.9001,-4.9001,-4.9001,-4.9001,-4.9001,-4.9001,-4.9001,-4.9272,-4.9729,-4.9729,-5.0016,-5.0473,-5.0473,-5.0473,-5.0507,-5.0744,-5.0845,-5.0879,-5.11,-5.1185,-5.1185,-5.1185,-5.1185,-5.1185,-5.1185,-5.1185,-5.1185,-5.1185,-5.1185,-5.115,-5.0913,-5.0659,-5.0355,-4.9847,-4.9729,-4.9593,-4.912,-4.9373,-4.9593,-4.9103,-4.9001,-4.9001,-4.9001,-4.9001,-4.9001,-4.9001,-4.9001,-4.9001,-4.9001,-4.9001,-4.9001,-4.9001,-4.9001,-4.9001,-4.9001,-4.8719,-4.8401,-4.808,-4.6977,-4.6185,-4.5891,-4.4013,-4.2993,-4.2993,-4.173,-4.1265,-4.1737,-4.1527,-4.1422,-4.1369,-4.116,-4.0935,0.0,0.0,0.0,0.0,0.0,0.0,0.0,0.0,0.0,0.0,0.0,0.0,0.0,0.0,0.0,0.0,0.0,0.0,0.0,0.0,0.0,0.0,0.0,0.0,0.0,0.0,0.0,0.0,0.0,-4.9746,-4.9035,-4.9001,-4.9001,-4.9001,-4.9001,-4.9001,-4.9001,-4.9001,-4.9001,-4.9001,-4.9001,-4.9001,-4.9001,-4.9001,-4.9001,-4.9001,-4.9001,-4.9001,-4.9001,-4.9001,-4.9001,-4.9001,-4.9001,-4.9001,-4.9086,-4.9796,-5.005,-5.0168,-5.0896,-5.115,-5.115,-5.115,-5.115,-5.115,-5.115,-5.115,-5.115,-5.115,-5.115,-5.098,-5.0253,-4.9543,-4.9001,-4.9001,-4.9001,-4.9001,-4.9001,-4.9001,-4.9001,-4.9001,-4.9001,-4.9001,-4.9001,-4.9001,-4.9001,-4.9001,-4.9001,-4.9001,-4.9001,-4.9001,-4.9001,-4.9001,-4.897,-4.897,-4.9001,-4.8112,-4.7933,-4.8827,-4.569,-4.4199,-4.5067,-4.2692,-4.1354,-4.1354,-4.0711,-4.0367,-4.0367,-4.101,-4.1324,-4.1347,-4.0666,-4.0023,-4.9001,0.0,0.0,0.0,0.0,0.0,0.0,0.0,0.0,0.0,0.0,0.0,0.0,0.0,0.0,0.0,0.0,0.0,0.0,0.0,0.0,0.0,0.0,0.0,0.0,0.0,0.0,0.0,0.0,-4.9221,-4.9018,-4.9001,-4.9001,-4.9001,-4.9001,-4.9001,-4.9001,-4.9001,-4.9001,-4.9001,-4.9001,-4.9001,-4.9001,-4.9001,-4.9001,-4.9001,-4.9001,-4.9001,-4.9001,-4.9001,-4.9001,-4.9001,-4.9001,-4.9001,-4.9018,-4.9221,-4.9306,-4.9323,-4.9543,-4.961,-4.961,-4.961,-4.961,-4.961,-4.961,-4.961,-4.961,-4.961,-4.961,-4.956,-4.9357,-4.9154,-4.9001,-4.9001,-4.9001,-4.9001,-4.9001,-4.9001,-4.9001,-4.9001,-4.9001,-4.9001,-4.9001,-4.9001,-4.9001,-4.9001,-4.9001,-4.9001,-4.9001,-4.9001,-4.9001,-4.9001,-4.8401,-4.8257,-4.894,-4.7523,-4.6486,-4.6287,-4.4721,-4.338,-4.2493,-4.1331,-4.0666,-4.0666,-4.0023,-3.9694,-3.9694,-3.9873,-3.9963,-3.9963,-3.9768,-3.9589,-4.9001,-4.9001,-4.9001,0.0,0.0,0.0,0.0,0.0,0.0,0.0,0.0,0.0,0.0,0.0,0.0,0.0,0.0,0.0,0.0,0.0,0.0,0.0,0.0,0.0,0.0,0.0,0.0,0.0,-4.9001,-4.9001,-4.9001,-4.9001,-4.9001,-4.9001,-4.9001,-4.9001,-4.9001,-4.9001,-4.9001,-4.9001,-4.9001,-4.9001,-4.9001,-4.9001,-4.9001,-4.9001,-4.9001,-4.9001,-4.9001,-4.9001,-4.9001,-4.9001,-4.9001,-4.9001,-4.9001,-4.9001,-4.9001,-4.9001,-4.9001,-4.9001,-4.9001,-4.9001,-4.9001,-4.9001,-4.9001,-4.9001,-4.9001,-4.9001,-4.9001,-4.9001,-4.9001,-4.9001,-4.9001,-4.9001,-4.9001,-4.9001,-4.9001,-4.9001,-4.9001,-4.9001,-4.9001,-4.9001,-4.9001,-4.9001,-4.9001,-4.9001,-4.9001,-4.9001,-4.9001,-4.9001,-4.9001,-4.9001,-4.8245,-4.7807,-4.7981,-4.6337,-4.5168,-4.482,-4.3261,-4.2151,-4.1602,-4.0543,-3.9993,-3.9993,-3.9619,-3.9388,-3.9388,-3.9388,-3.9388,-3.9388,-3.9388,-3.9388,-4.9001,-4.9001,-4.9001,0.0,0.0,0.0,-4.9001,-4.9001,-4.9001,0.0,0.0,0.0,0.0,0.0,0.0,0.0,0.0,0.0,0.0,0.0,0.0,0.0,0.0,0.0,0.0,0.0,0.0,-4.9001,-4.9001,-4.9001,-4.9001,-4.9001,-4.9001,-4.9001,-4.9001,-4.9001,-4.9001,-4.9001,-4.9001,-4.9001,-4.9001,-4.9001,-4.9001,-4.9001,-4.9001,-4.9001,-4.9001,-4.9001,-4.9001,-4.9001,-4.9001,-4.9001,-4.9001,-4.9001,-4.9001,-4.9001,-4.9001,-4.9001,-4.9001,-4.9001,-4.9001,-4.9001,-4.9001,-4.9001,-4.9001,-4.9001,-4.9001,-4.9001,-4.9001,-4.9001,-4.9001,-4.9001,-4.9001,-4.9001,-4.9001,-4.9001,-4.9001,-4.9001,-4.9001,-4.9001,-4.9001,-4.9001,-4.9001,-4.9001,-4.9001,-4.9001,-4.8934,-4.8883,-4.8883,-4.8815,-4.8717,-4.8608,-4.7942,-4.7166,-4.6386,-4.4765,-4.3824,-4.3932,-4.173,-4.0725,-4.1515,-4.0147,-3.9388,-3.9388,-3.9388,-3.9388,-3.9388,-3.9388,-3.9388,-3.9388,-3.9388,-3.9388,0.0,0.0,0.0,0.0,0.0,0.0,-4.9001,-4.9001,-4.9001,0.0,0.0,0.0,0.0,0.0,0.0,0.0,0.0,0.0,0.0,0.0,0.0,0.0,0.0,0.0,0.0,0.0,-4.9001,-4.9001,-4.9001,-4.9001,-4.9001,-4.9001,-4.9001,-4.9001,-4.9001,-4.9001,-4.9001,-4.9001,-4.9001,-4.9001,-4.9001,-4.9001,-4.9001,-4.9001,-4.9001,-4.9001,-4.9001,-4.9001,-4.9001,-4.9001,-4.9001,-4.9001,-4.9001,-4.9001,-4.9001,-4.9001,-4.9001,-4.9001,-4.9001,-4.9001,-4.9001,-4.9001,-4.9001,-4.9001,-4.9001,-4.9001,-4.9001,-4.9001,-4.9001,-4.9001,-4.9001,-4.9001,-4.9001,-4.9001,-4.9001,-4.9001,-4.9001,-4.9001,-4.9001,-4.9001,-4.9001,-4.9001,-4.9001,-4.9001,-4.9001,-4.9001,-4.8494,-4.8091,-4.8091,-4.7597,-4.6952,-4.6254,-4.5358,-4.4786,-4.467,-4.2976,-4.2031,-4.2244,-4.1106,-4.0231,-3.9892,-3.9556,-3.9388,-3.9388,-3.9388,-3.9388,-3.9388,-3.9388,-3.9388,-3.9388,-3.9388,-3.9388,0.0,0.0,0.0,-4.8545,0.0,0.0,0.0,-4.7902,0.0,0.0,0.0,0.0,0.0,0.0,0.0,0.0,0.0,0.0,0.0,0.0,0.0,0.0,0.0,0.0,0.0,0.0,-4.9001,-4.9001,-4.8663,-4.846,-4.846,-4.846,-4.846,-4.846,-4.8815,-4.9001,-4.9001,-4.9001,-4.9001,-4.9001,-4.9001,-4.9001,-4.9001,-4.9001,-4.9001,-4.9001,-4.9001,-4.9001,-4.9001,-4.9001,-4.9001,-4.9001,-4.9001,-4.9001,-4.9001,-4.9001,-4.9001,-4.9001,-4.9001,-4.9001,-4.9001,-4.9001,-4.9001,-4.9001,-4.9001,-4.9001,-4.9001,-4.9001,-4.9001,-4.9001,-4.9001,-4.9001,-4.9001,-4.9001,-4.9001,-4.9001,-4.9001,-4.8714,-4.846,-4.846,-4.8156,-4.802,-4.8392,-4.846,-4.8342,-4.7953,-4.7597,-4.7361,-4.7361,-4.7022,-4.6621,-4.621,-4.5384,-4.4541,-4.3715,-4.2438,-4.1379,-4.0649,-4.0179,-3.9768,-3.9388,-3.9388,-3.9388,-3.9388,-3.9388,-3.9388,-3.9388,-3.9388,-3.9388,-3.9388,-3.9388,-3.9388,0.0,0.0,0.0,0.0,0.0,-4.7547,0.0,0.0,0.0,0.0,0.0,0.0,0.0,0.0,0.0,0.0,0.0,0.0,0.0,0.0,0.0,0.0,0.0,0.0,0.0,0.0,-4.8578,-4.8578,-4.8037,-4.7669,-4.7669,-4.7669,-4.7669,-4.7669,-4.8274,-4.8578,-4.8578,-4.8578,-4.8578,-4.8578,-4.8578,-4.8578,-4.8578,-4.8731,-4.8798,-4.8798,-4.8951,-4.9001,-4.9001,-4.9001,-4.9001,-4.9001,-4.9001,-4.9001,-4.9001,-4.9001,-4.9001,-4.9001,-4.9001,-4.9001,-4.9001,-4.9001,-4.9001,-4.9001,-4.9001,-4.9001,-4.9001,-4.9001,-4.9001,-4.9001,-4.9001,-4.9001,-4.8968,-4.8832,-4.8798,-4.8748,-4.8612,-4.8122,-4.7669,-4.7669,-4.7208,-4.6989,-4.7597,-4.7669,-4.7496,-4.6887,-4.6667,-4.6583,-4.6583,-4.6447,-4.6304,-4.6123,-4.5601,-4.453,-4.2797,-4.2074,-4.1095,-3.9517,-3.9388,-3.9388,-3.9388,-3.9388,-3.9388,-3.9388,-3.9388,-3.9388,-3.9388,-3.9388,-3.9388,-3.9388,-3.9388,-3.9388,0.0,0.0,0.0,0.0,-4.7411,0.0,0.0,0.0,0.0,0.0,0.0,0.0,0.0,0.0,0.0,0.0,0.0,0.0,0.0,0.0,0.0,0.0,0.0,0.0,0.0,0.0,0.0,-4.7039,-4.6972,-4.6921,-4.6921,-4.6921,-4.6921,-4.6921,-4.7005,-4.7039,-4.7039,-4.7039,-4.7039,-4.7039,-4.7039,-4.7039,-4.7056,-4.7733,-4.8007,-4.8041,-4.8731,-4.9001,-4.9001,-4.9001,-4.9001,-4.9001,-4.9001,-4.9001,-4.9001,-4.9001,-4.9001,-4.9001,-4.9001,-4.9001,-4.9001,-4.9001,-4.9001,-4.9001,-4.9001,-4.9001,-4.9001,-4.9001,-4.9001,-4.9001,-4.9001,-4.9001,-4.8849,-4.8189,-4.8007,-4.7868,-4.7192,-4.6972,-4.6921,-4.6921,-4.6853,-4.6819,-4.6904,-4.6921,-4.6887,-4.6802,-4.6244,-4.5821,-4.5821,-4.5246,-4.4534,-4.378,-4.3608,-4.2868,-4.1122,-4.0891,-4.0432,-3.9445,-3.9388,-3.9388,-3.9388,-3.9388,-3.9388,-3.9388,-3.9388,-3.9388,-3.9388,-3.9388,-3.9388,-3.9388,-3.9388,-3.9388,0.0,0.0,0.0,0.0,0.0,0.0,-4.5602,0.0,-4.55,0.0,0.0,0.0,0.0,0.0,0.0,0.0,0.0,0.0,0.0,0.0,0.0,0.0,0.0,0.0,0.0,0.0,0.0,0.0,0.0,-4.616,-4.616,-4.616,-4.616,-4.616,-4.6583,-4.6786,-4.6786,-4.6786,-4.6786,-4.6786,-4.6786,-4.6786,-4.6802,-4.7124,-4.7259,-4.7276,-4.7581,-4.7716,-4.7716,-4.7716,-4.7986,-4.8376,-4.8376,-4.8629,-4.9001,-4.9001,-4.9001,-4.9001,-4.9001,-4.9001,-4.9001,-4.9001,-4.9001,-4.9001,-4.9001,-4.9001,-4.9001,-4.9001,-4.8697,-4.8376,-4.8376,-4.8054,-4.7648,-4.7344,-4.7259,-4.7175,-4.6853,-4.6464,-4.616,-4.616,-4.5805,-4.55,-4.55,-4.5872,-4.6007,-4.5585,-4.5246,-4.5043,-4.5043,-4.4801,-4.427,-4.3396,-4.3306,-4.2583,-4.0844,-4.069,-4.0343,-3.9445,-3.9388,-3.9388,-3.9388,-3.9388,-3.9388,-3.9388,-3.9388,-3.9388,-3.9388,-3.902,-3.8826,-3.8841,-3.923,-3.92,-4.8041,0.0,0.0,0.0,0.0,0.0,0.0,0.0,0.0,0.0,0.0,0.0,0.0,0.0,0.0,0.0,0.0,0.0,0.0,0.0,0.0,0.0,0.0,0.0,0.0,0.0,0.0,0.0,-4.5686,0.0,-4.5399,-4.5399,-4.5399,-4.5399,-4.5906,-4.6194,-4.6194,-4.6194,-4.6194,-4.6194,-4.6194,-4.6194,-4.6194,-4.6397,-4.6498,-4.6498,-4.6701,-4.6786,-4.6786,-4.6786,-4.7124,-4.7614,-4.7614,-4.7936,-4.8443,-4.8849,-4.9001,-4.9001,-4.9001,-4.9001,-4.9001,-4.9001,-4.8866,-4.8714,-4.8714,-4.8562,-4.8392,-4.8392,-4.802,-4.7614,-4.7614,-4.7208,-4.6735,-4.6549,-4.6498,-4.643,-4.6227,-4.5771,-4.5399,-4.5399,-4.4987,-4.4615,-4.4615,-4.5026,-4.5213,-4.4682,-4.4615,-4.4615,-4.4615,-4.4615,-4.4355,-4.371,-4.3651,-4.2939,-4.1213,-4.1046,-4.0569,-3.9481,-3.9388,-3.9388,-3.9388,-3.9388,-3.9388,-3.9388,-3.923,-3.914,-3.9125,-3.8452,-3.8123,-3.8138,-3.8631,-3.8601,0.0,0.0,0.0,-4.572,0.0,0.0,0.0,0.0,-4.4615,0.0,0.0,0.0,0.0,0.0,-4.4361,-4.3589,-4.4079,0.0,0.0,0.0,0.0,0.0,0.0,0.0,0.0,0.0,0.0,0.0,-4.4649,0.0,-4.4649,-4.4649,-4.4649,-4.4649,-4.4666,-4.4682,-4.4682,-4.4682,-4.4682,-4.4682,-4.4682,-4.4682,-4.4699,-4.5399,-4.5737,-4.5788,-4.6481,-4.6786,-4.6786,-4.6786,-4.6802,-4.6836,-4.6836,-4.6836,-4.7039,-4.8477,-4.9001,-4.9001,-4.9001,-4.9001,-4.9001,-4.9001,-4.8528,-4.7922,-4.7922,-4.7445,-4.6853,-4.6853,-4.6836,-4.6836,-4.6836,-4.6802,-4.6616,-4.5906,-4.5737,-4.5534,-4.4835,-4.4649,-4.4649,-4.4649,-4.4632,-4.4615,-4.4615,-4.4632,-4.4632,-4.4615,-4.4615,-4.4615,-4.4615,-4.4615,-4.4587,-4.4542,-4.4542,-4.3856,-4.2093,-4.1965,-4.1229,-3.9517,-3.9388,-3.9388,-3.9388,-3.9388,-3.9388,-3.9388,-3.8766,-3.8422,-3.8422,-3.7764,-3.7434,-3.7434,-3.7464,-3.7464,0.0,0.0,-4.5585,-4.5077,0.0,0.0,0.0,0.0,0.0,0.0,0.0,0.0,0.0,-4.4615,-4.4513,-4.4231,-4.4429,-4.4316,0.0,0.0,0.0,0.0,0.0,0.0,0.0,0.0,0.0,-4.4615,-4.4615,-4.4615,0.0,-4.4615,-4.4615,-4.4615,-4.4615,-4.4615,-4.4615,-4.4615,-4.4615,-4.4615,-4.4615,-4.4615,-4.4615,-4.4869,-4.4959,-4.5004,-4.5258,-4.5359,-4.5359,-4.5359,-4.5618,-4.6075,-4.6075,-4.6363,-4.6853,-4.7361,-4.753,-4.753,-4.753,-4.753,-4.753,-4.753,-4.7378,-4.7175,-4.7175,-4.7005,-4.6786,-4.6786,-4.6447,-4.6075,-4.6075,-4.5703,-4.5263,-4.501,-4.4959,-4.4919,-4.4649,-4.4615,-4.4615,-4.4615,-4.4615,-4.4615,-4.4615,-4.4615,-4.4615,-4.4615,-4.4615,-4.4615,-4.4615,-4.4615,-4.415,-4.2984,-4.2862,-4.2189,-4.0428,-4.0289,-4.0041,-3.946,-3.9388,-3.9388,-3.9388,-3.8975,-3.8736,-3.8736,-3.8078,-3.7749,-3.7749,-3.7105,-3.6791,-3.6791,-3.6357,-3.6387,-4.5974,-4.5517,0.0,0.0,-4.4615,0.0,-4.4615,0.0,0.0,0.0,0.0,0.0,0.0,0.0,-4.4615,-4.4615,-4.435,-4.3893,0.0,-4.2591,0.0,0.0,0.0,0.0,0.0,0.0,-4.3876,-4.4147,-4.4164,-4.4282,0.0,0.0,-4.4615,-4.4615,-4.4615,-4.4615,-4.4615,-4.4615,-4.4615,-4.4615,-4.4615,-4.4615,-4.4615,-4.4615,-4.4615,-4.4615,-4.4615,-4.4615,-4.4615,-4.4615,-4.4874,-4.5314,-4.5314,-4.5585,-4.6075,-4.6599,-4.6786,-4.6786,-4.6786,-4.6786,-4.6786,-4.6786,-4.6616,-4.6413,-4.6413,-4.6227,-4.6007,-4.6007,-4.5669,-4.5314,-4.5314,-4.4942,-4.4615,-4.4615,-4.4615,-4.4615,-4.4615,-4.4615,-4.4615,-4.4615,-4.4615,-4.4615,-4.4615,-4.4355,-4.4253,-4.4542,-4.4327,-4.4138,-4.4138,-4.3873,-4.3259,-4.2125,-4.1997,-4.1412,-3.999,-3.9574,-3.9388,-3.9388,-3.9185,-3.905,-3.905,-3.8392,-3.8033,-3.8033,-3.7404,-3.709,-3.7075,-3.6447,-3.6133,-3.6133,-3.5699,-3.5729]},{"header":{"parameterUnit":"m.s-1","parameterCategory":1,"la1":30.6,"la2":29.2853,"lo1":-89.7004,"lo2":-87.6739,"dy":0.0162,"dx":0.0183,"nx":112,"ny":82,"refTime":"2023-08-07T06:00:00:Z","depth":0,"parameterNumber":3,"parameterNumberName":"V-component_of_WINDS"},"data":[0.0,0.0,0.0,0.0,0.0,0.0,0.0,0.0,0.0,0.0,0.0,0.0,0.0,0.0,0.0,0.0,0.0,0.0,0.0,0.0,0.0,0.0,0.0,0.0,0.0,0.0,0.0,0.0,0.0,0.0,0.0,0.0,0.0,0.0,0.0,0.0,0.0,0.0,0.0,0.0,0.0,0.0,0.0,0.0,0.0,0.0,0.0,0.0,0.0,0.0,0.0,0.0,0.0,0.0,0.0,0.0,0.0,0.0,0.0,0.0,0.0,0.0,0.0,0.0,0.0,0.0,0.0,0.0,0.0,0.0,0.0,0.0,0.0,0.0,0.0,0.0,0.0,0.0,0.0,0.0,0.0,0.0,0.0,0.0,0.0,0.0,0.0,0.0,0.0,0.0,0.0,-2.6409,-2.6158,-2.5976,-2.5976,-2.5976,-2.5976,-2.5976,0.0,0.0,0.0,0.0,0.0,0.0,0.0,0.0,0.0,0.0,0.0,0.0,0.0,0.0,0.0,0.0,0.0,0.0,0.0,0.0,0.0,0.0,0.0,0.0,0.0,0.0,0.0,0.0,0.0,0.0,0.0,0.0,0.0,0.0,0.0,0.0,0.0,0.0,0.0,0.0,0.0,0.0,0.0,0.0,0.0,0.0,0.0,0.0,0.0,0.0,0.0,0.0,0.0,0.0,0.0,0.0,0.0,0.0,0.0,0.0,0.0,0.0,0.0,0.0,0.0,0.0,0.0,0.0,0.0,0.0,0.0,0.0,0.0,0.0,0.0,0.0,0.0,0.0,0.0,0.0,0.0,0.0,0.0,0.0,0.0,0.0,0.0,0.0,0.0,0.0,0.0,0.0,0.0,0.0,0.0,0.0,0.0,0.0,0.0,0.0,0.0,0.0,0.0,0.0,-2.6826,-2.6133,-2.6009,-2.5976,-2.5976,-2.5976,-2.5976,-2.5976,0.0,0.0,0.0,0.0,0.0,0.0,0.0,0.0,0.0,0.0,0.0,0.0,0.0,0.0,0.0,0.0,0.0,0.0,0.0,0.0,0.0,0.0,0.0,0.0,0.0,0.0,0.0,0.0,0.0,0.0,0.0,0.0,0.0,0.0,0.0,0.0,0.0,0.0,0.0,0.0,0.0,0.0,0.0,0.0,0.0,0.0,0.0,0.0,0.0,0.0,0.0,0.0,0.0,0.0,0.0,0.0,0.0,0.0,0.0,0.0,0.0,0.0,0.0,0.0,0.0,0.0,0.0,0.0,0.0,0.0,0.0,0.0,0.0,0.0,0.0,0.0,0.0,0.0,0.0,0.0,0.0,0.0,0.0,0.0,0.0,0.0,0.0,0.0,0.0,0.0,0.0,0.0,0.0,0.0,0.0,0.0,0.0,0.0,0.0,0.0,0.0,0.0,0.0,-2.9739,-2.9267,-2.8737,-2.8673,-2.8673,-2.8673,-2.8673,-2.8673,-2.8673,-2.8673,0.0,0.0,0.0,0.0,0.0,0.0,0.0,0.0,0.0,0.0,0.0,0.0,0.0,0.0,0.0,0.0,0.0,0.0,0.0,0.0,0.0,0.0,0.0,0.0,0.0,0.0,0.0,0.0,0.0,0.0,0.0,0.0,0.0,0.0,0.0,0.0,0.0,0.0,0.0,0.0,0.0,0.0,0.0,0.0,0.0,0.0,0.0,0.0,0.0,0.0,0.0,0.0,0.0,0.0,0.0,0.0,0.0,0.0,0.0,0.0,0.0,0.0,0.0,0.0,0.0,0.0,0.0,0.0,0.0,0.0,0.0,0.0,0.0,0.0,0.0,0.0,0.0,0.0,0.0,0.0,0.0,0.0,0.0,0.0,0.0,0.0,0.0,0.0,0.0,0.0,0.0,0.0,0.0,0.0,0.0,0.0,0.0,0.0,0.0,0.0,0.0,0.0,-3.1699,-3.124,-3.0928,-3.0889,-3.0889,-3.0889,-3.0889,-3.1054,-3.1383,-3.1441,0.0,0.0,0.0,0.0,0.0,0.0,0.0,0.0,0.0,0.0,0.0,0.0,0.0,0.0,0.0,0.0,0.0,0.0,0.0,0.0,0.0,0.0,0.0,0.0,0.0,0.0,0.0,0.0,0.0,0.0,0.0,0.0,0.0,0.0,0.0,0.0,0.0,0.0,0.0,0.0,0.0,0.0,0.0,0.0,0.0,0.0,0.0,0.0,0.0,0.0,0.0,0.0,0.0,0.0,0.0,0.0,0.0,0.0,0.0,0.0,0.0,0.0,0.0,0.0,0.0,0.0,0.0,0.0,0.0,0.0,0.0,0.0,0.0,0.0,0.0,0.0,0.0,0.0,0.0,0.0,0.0,0.0,0.0,0.0,0.0,0.0,0.0,0.0,0.0,0.0,0.0,0.0,0.0,0.0,0.0,0.0,0.0,0.0,0.0,0.0,0.0,0.0,-3.1445,-3.0928,-3.0898,-3.0889,-3.0889,-3.0889,-3.0889,-3.1498,-3.2861,-3.2964,0.0,0.0,0.0,0.0,0.0,0.0,0.0,0.0,0.0,0.0,0.0,0.0,0.0,0.0,0.0,0.0,0.0,0.0,0.0,0.0,0.0,0.0,0.0,0.0,0.0,0.0,0.0,0.0,0.0,0.0,0.0,0.0,0.0,0.0,0.0,0.0,0.0,0.0,0.0,0.0,0.0,0.0,0.0,0.0,0.0,0.0,0.0,0.0,0.0,0.0,0.0,0.0,0.0,0.0,0.0,0.0,0.0,0.0,0.0,0.0,0.0,0.0,0.0,0.0,0.0,0.0,0.0,0.0,0.0,0.0,0.0,0.0,0.0,0.0,0.0,0.0,0.0,0.0,0.0,0.0,0.0,0.0,0.0,0.0,0.0,0.0,0.0,0.0,0.0,0.0,0.0,0.0,0.0,0.0,0.0,0.0,0.0,0.0,0.0,0.0,0.0,0.0,-3.1484,-3.1515,0.0,-3.2254,-3.2644,-3.3596,-3.3642,-3.3866,-3.4459,0.0,0.0,0.0,0.0,0.0,0.0,0.0,0.0,0.0,0.0,0.0,0.0,0.0,0.0,0.0,0.0,0.0,0.0,0.0,0.0,0.0,0.0,0.0,0.0,0.0,0.0,0.0,0.0,0.0,0.0,0.0,0.0,0.0,0.0,0.0,0.0,0.0,0.0,0.0,0.0,0.0,0.0,0.0,0.0,0.0,0.0,0.0,0.0,0.0,0.0,0.0,0.0,0.0,0.0,0.0,0.0,0.0,0.0,0.0,0.0,0.0,0.0,0.0,0.0,0.0,0.0,0.0,0.0,0.0,0.0,0.0,0.0,0.0,0.0,0.0,0.0,0.0,0.0,0.0,0.0,0.0,0.0,0.0,0.0,0.0,0.0,0.0,0.0,0.0,0.0,0.0,0.0,0.0,0.0,0.0,0.0,0.0,0.0,0.0,0.0,0.0,0.0,-3.1651,-3.2183,-3.2823,0.0,-3.3519,-3.4191,-3.5233,-3.5288,-3.5508,-3.5945,0.0,0.0,0.0,0.0,0.0,0.0,0.0,0.0,0.0,0.0,0.0,0.0,0.0,0.0,0.0,0.0,0.0,0.0,0.0,0.0,0.0,0.0,0.0,0.0,0.0,0.0,0.0,0.0,0.0,0.0,0.0,0.0,0.0,0.0,0.0,0.0,0.0,0.0,0.0,0.0,0.0,0.0,0.0,0.0,0.0,0.0,0.0,0.0,0.0,0.0,0.0,0.0,0.0,0.0,0.0,0.0,0.0,0.0,0.0,0.0,0.0,0.0,0.0,0.0,0.0,0.0,0.0,0.0,0.0,0.0,0.0,0.0,0.0,0.0,0.0,0.0,0.0,0.0,0.0,0.0,0.0,0.0,0.0,0.0,0.0,0.0,0.0,0.0,0.0,0.0,0.0,0.0,0.0,0.0,0.0,0.0,0.0,0.0,0.0,0.0,0.0,0.0,-3.1732,-3.376,-3.4736,-3.3293,-3.4459,-3.5354,-3.5354,-3.5354,-3.5945,0.0,0.0,0.0,0.0,0.0,0.0,0.0,0.0,0.0,0.0,0.0,0.0,0.0,0.0,0.0,0.0,0.0,0.0,0.0,0.0,0.0,0.0,0.0,0.0,0.0,0.0,0.0,0.0,0.0,0.0,0.0,0.0,0.0,0.0,0.0,0.0,0.0,0.0,0.0,0.0,0.0,0.0,0.0,0.0,0.0,0.0,0.0,0.0,0.0,0.0,0.0,0.0,0.0,0.0,0.0,0.0,0.0,0.0,0.0,0.0,0.0,0.0,0.0,0.0,0.0,0.0,0.0,0.0,0.0,0.0,0.0,0.0,0.0,0.0,0.0,0.0,0.0,0.0,0.0,0.0,0.0,0.0,0.0,0.0,0.0,0.0,0.0,0.0,0.0,0.0,0.0,0.0,0.0,0.0,0.0,0.0,0.0,0.0,0.0,0.0,0.0,0.0,0.0,-3.417,-3.4836,-3.5508,-3.6151,-3.6595,-3.7252,-3.8307,-3.8425,-3.8594,-3.9025,0.0,0.0,0.0,0.0,0.0,0.0,0.0,0.0,0.0,0.0,0.0,0.0,0.0,0.0,0.0,0.0,0.0,0.0,0.0,0.0,0.0,0.0,0.0,0.0,0.0,0.0,0.0,0.0,0.0,0.0,0.0,0.0,0.0,0.0,0.0,0.0,0.0,0.0,0.0,0.0,0.0,0.0,0.0,0.0,0.0,0.0,0.0,0.0,0.0,0.0,0.0,0.0,0.0,0.0,0.0,0.0,0.0,0.0,0.0,0.0,0.0,0.0,0.0,0.0,0.0,0.0,0.0,0.0,0.0,0.0,0.0,0.0,0.0,0.0,0.0,0.0,0.0,0.0,0.0,0.0,0.0,0.0,0.0,0.0,0.0,0.0,0.0,0.0,0.0,0.0,0.0,0.0,0.0,0.0,0.0,0.0,0.0,0.0,0.0,0.0,0.0,0.0,-3.5278,-3.6337,-3.7156,-3.7465,-3.8019,-3.8752,-3.9633,-3.9697,-3.9697,-3.9697,0.0,0.0,0.0,0.0,0.0,0.0,0.0,0.0,0.0,0.0,0.0,0.0,0.0,0.0,0.0,0.0,0.0,0.0,0.0,0.0,0.0,0.0,0.0,0.0,0.0,0.0,0.0,0.0,0.0,0.0,0.0,0.0,0.0,0.0,0.0,0.0,0.0,0.0,0.0,0.0,0.0,0.0,0.0,0.0,0.0,0.0,0.0,0.0,0.0,0.0,0.0,0.0,0.0,0.0,0.0,0.0,0.0,0.0,0.0,0.0,0.0,0.0,0.0,0.0,0.0,0.0,0.0,0.0,0.0,0.0,0.0,0.0,0.0,0.0,0.0,0.0,0.0,0.0,0.0,0.0,0.0,0.0,0.0,0.0,0.0,0.0,0.0,0.0,0.0,0.0,0.0,0.0,0.0,0.0,0.0,0.0,0.0,0.0,0.0,0.0,0.0,0.0,-3.5836,-3.8043,-3.9193,-3.7849,-3.8908,-3.9697,-3.9697,-3.9697,-3.9697,-3.9697,0.0,0.0,0.0,0.0,0.0,0.0,0.0,0.0,0.0,0.0,0.0,0.0,0.0,0.0,0.0,0.0,0.0,0.0,0.0,0.0,0.0,0.0,0.0,0.0,0.0,0.0,0.0,0.0,0.0,0.0,0.0,0.0,0.0,0.0,0.0,0.0,0.0,0.0,0.0,0.0,0.0,0.0,0.0,0.0,0.0,0.0,0.0,0.0,0.0,0.0,0.0,0.0,0.0,0.0,0.0,0.0,0.0,0.0,0.0,0.0,-1.0721,0.0,0.0,0.0,0.0,0.0,0.0,0.0,0.0,0.0,0.0,0.0,0.0,0.0,0.0,0.0,0.0,0.0,0.0,0.0,0.0,0.0,0.0,0.0,0.0,0.0,0.0,0.0,0.0,0.0,0.0,0.0,0.0,0.0,0.0,0.0,0.0,0.0,0.0,0.0,0.0,0.0,-3.8635,-3.931,-3.9581,-3.9245,-3.953,-3.9697,-3.9697,-3.9697,-3.9697,-3.9697,0.0,0.0,0.0,0.0,0.0,0.0,0.0,0.0,0.0,0.0,0.0,0.0,0.0,0.0,0.0,0.0,0.0,0.0,0.0,0.0,0.0,0.0,0.0,0.0,0.0,0.0,0.0,0.0,0.0,0.0,0.0,0.0,0.0,0.0,0.0,0.0,0.0,0.0,0.0,0.0,0.0,0.0,0.0,0.0,0.0,0.0,0.0,0.0,0.0,0.0,0.0,0.0,0.0,0.0,0.0,0.0,0.0,0.0,0.0,0.0,0.0,-1.0721,0.0,0.0,0.0,0.0,0.0,0.0,0.0,0.0,0.0,0.0,0.0,0.0,0.0,0.0,0.0,0.0,0.0,0.0,0.0,0.0,0.0,0.0,0.0,0.0,0.0,0.0,0.0,0.0,0.0,0.0,0.0,0.0,0.0,0.0,0.0,0.0,0.0,0.0,0.0,0.0,-3.9581,-3.9697,-3.9697,-3.9697,-3.9697,-3.9697,-3.9697,-3.9697,-3.9697,-3.9697,-3.9697,0.0,0.0,0.0,0.0,0.0,0.0,0.0,0.0,0.0,0.0,0.0,0.0,0.0,0.0,0.0,0.0,0.0,0.0,0.0,0.0,0.0,0.0,0.0,0.0,0.0,0.0,0.0,0.0,0.0,0.0,0.0,0.0,0.0,0.0,0.0,0.0,0.0,0.0,0.0,0.0,0.0,0.0,0.0,0.0,0.0,0.0,0.0,0.0,0.0,0.0,0.0,0.0,0.0,0.0,-1.1231,-1.1231,-1.1572,-1.171,-1.1696,-1.1769,-1.157,-1.1349,0.0,0.0,0.0,0.0,0.0,0.0,0.0,0.0,0.0,0.0,0.0,0.0,0.0,0.0,0.0,0.0,0.0,0.0,0.0,0.0,0.0,0.0,0.0,0.0,0.0,-2.9893,-3.0889,0.0,0.0,0.0,0.0,0.0,0.0,0.0,0.0,0.0,0.0,0.0,0.0,-3.9697,-3.9697,-3.9697,-3.9697,-3.9697,-3.9697,-3.9697,-3.9697,-3.9697,-3.9697,-3.9597,-3.9346,0.0,0.0,0.0,0.0,0.0,0.0,0.0,0.0,0.0,0.0,0.0,0.0,0.0,0.0,0.0,0.0,0.0,0.0,0.0,0.0,0.0,0.0,0.0,0.0,0.0,0.0,0.0,0.0,0.0,0.0,0.0,0.0,-0.5696,-0.7429,0.0,0.0,0.0,0.0,0.0,0.0,0.0,0.0,0.0,0.0,0.0,0.0,0.0,0.0,-1.1134,-1.1224,-1.1231,-1.1231,-1.1231,-1.1231,-1.1231,-1.2864,-1.3613,-1.3746,-1.5306,0.0,-1.3303,-1.5215,0.0,0.0,0.0,0.0,0.0,0.0,0.0,0.0,0.0,0.0,0.0,0.0,0.0,0.0,0.0,0.0,0.0,0.0,0.0,0.0,0.0,0.0,-2.8792,-3.0206,-3.0762,-3.0889,0.0,-3.0889,-3.0889,-3.0889,0.0,0.0,0.0,0.0,0.0,0.0,0.0,0.0,-3.9697,-3.9697,-3.9697,-3.9697,-3.9697,-3.9697,-3.9697,-3.9697,-3.9697,-3.9697,-3.9245,-3.8994,-3.8919,-3.7927,0.0,0.0,0.0,0.0,0.0,0.0,0.0,0.0,0.0,0.0,0.0,0.0,0.0,0.0,0.0,0.0,0.0,0.0,0.0,0.0,0.0,0.0,0.0,0.0,0.0,0.0,0.0,0.0,0.0,-0.4625,-0.5294,-0.9039,-0.8634,-0.8728,0.0,0.0,0.0,0.0,0.0,0.0,0.0,0.0,0.0,-1.1231,-1.1246,-1.129,-1.129,-1.1379,-1.1973,-1.3009,-1.3009,-1.3566,-1.4605,-1.5441,-1.5788,-1.5927,-1.785,-1.7995,-1.7011,-1.7614,-1.7773,-1.7792,0.0,0.0,0.0,0.0,0.0,-2.1109,-2.1109,0.0,0.0,0.0,0.0,0.0,0.0,0.0,0.0,0.0,0.0,0.0,0.0,0.0,0.0,-3.0704,-3.0889,-3.0889,-3.0889,-3.0889,-3.0889,0.0,-3.0889,-3.1546,-3.3687,0.0,0.0,0.0,0.0,0.0,-3.9697,-3.9697,-3.9697,-3.9697,-3.9697,-3.9697,-3.9697,-3.9697,-3.9559,-3.9245,-3.9057,-3.863,-3.7952,-3.745,-3.7036,0.0,0.0,0.0,0.0,0.0,0.0,0.0,0.0,0.0,0.0,0.0,0.0,0.0,0.0,0.0,0.0,0.0,0.0,0.0,0.0,0.0,0.0,0.0,0.0,0.0,0.0,0.0,0.0,-0.6095,-0.6237,-1.0302,-0.9558,-0.9341,0.0,0.0,0.0,0.0,0.0,0.0,-1.1277,-1.128,-1.128,-1.128,-1.1389,-1.145,-1.145,-1.2055,-1.3028,-1.4432,-1.4924,-1.5844,-1.7253,-1.7744,-1.7954,-1.8024,-1.9987,-2.0646,-2.0421,-2.002,-1.9811,-1.9736,-2.0849,-2.1176,0.0,-2.1109,-2.1109,-2.1109,-2.1109,-2.1109,-2.1109,-2.1109,0.0,-2.1109,-2.1109,0.0,0.0,0.0,0.0,-2.7871,-2.8298,0.0,-3.0889,-3.0889,-3.0889,-3.0889,-3.0889,-3.0889,-3.0889,0.0,-3.0889,-3.1383,-3.2861,0.0,0.0,0.0,0.0,-3.9697,-3.9697,-3.9697,-3.9697,-3.9697,-3.9697,-3.9697,-3.9697,-3.9697,-3.9459,-3.8957,-3.8781,-3.8216,-3.7224,-3.7048,-3.6832,-3.6417,0.0,0.0,0.0,0.0,0.0,0.0,0.0,0.0,0.0,0.0,0.0,0.0,0.0,0.0,0.0,0.0,0.0,0.0,0.0,0.0,0.0,0.0,0.0,0.0,0.0,0.0,0.0,0.0,0.0,-1.0853,-1.0799,0.0,0.0,0.0,0.0,-1.1369,-1.1379,-1.1443,-1.1589,-1.1596,-1.1596,-1.1596,-1.1603,-1.1606,-1.1606,-1.3373,-1.429,-1.4428,-1.6197,-1.7112,-1.7253,-1.9142,-1.9918,-2.0057,-2.1947,-2.2784,-2.2744,-2.2364,-2.1912,-2.1485,-2.1537,-2.1356,-2.1109,-2.1109,-2.1109,-2.1109,-2.1109,-2.1109,-2.1109,-2.1109,-2.1109,-2.1109,-2.1109,-2.1172,0.0,0.0,-2.484,-2.6461,-2.7991,-2.9648,-3.0889,-3.0889,-3.0889,-3.0889,-3.0889,-3.0889,-3.0889,0.0,-3.0889,-3.1383,-3.2861,0.0,0.0,-3.7305,-3.8739,-3.9697,-3.9697,-3.9697,-3.9697,-3.9697,-3.9697,-3.9697,-3.9697,-3.9697,-3.9459,-3.8957,-3.8354,-3.7789,-3.7211,-3.6732,-3.643,-3.6405,-3.6405,0.0,0.0,0.0,0.0,0.0,0.0,0.0,0.0,0.0,0.0,0.0,0.0,0.0,0.0,0.0,0.0,0.0,0.0,0.0,0.0,0.0,0.0,0.0,0.0,0.0,0.0,0.0,0.0,-1.0725,-1.088,0.0,0.0,-1.1311,-1.1372,-1.1528,-1.1538,-1.1562,-1.1616,-1.1619,-1.1619,-1.1619,-1.1619,-1.2183,-1.3377,-1.4081,-1.5628,-1.8084,-1.8723,-1.9704,-2.0894,-2.1596,-2.1878,-2.1947,-2.2578,-2.2928,-2.2921,-2.2746,-2.2358,-2.181,-2.1688,-2.137,-2.1109,-2.1109,-2.1109,-2.1109,-2.1109,-2.1109,-2.1109,-2.1109,-2.1109,-2.1109,-2.1109,-2.1853,-2.2834,-2.345,-2.5513,-2.7683,-2.8239,-2.9648,-3.0889,-3.0889,-3.0889,-3.0889,-3.0889,-3.0889,-3.0889,-3.0889,-3.0889,-3.1054,-3.1604,-3.2918,-3.4403,-3.589,-3.7317,-3.8635,-3.9581,-3.9697,-3.9697,-3.9697,-3.9697,-3.9697,-3.9697,-3.9697,-3.9459,-3.8957,-3.8329,-3.7764,-3.7211,-3.6707,-3.6405,-3.6405,-3.6405,-3.6405,0.0,0.0,0.0,0.0,0.0,0.0,0.0,0.0,0.0,0.0,0.0,0.0,0.0,0.0,0.0,0.0,0.0,0.0,0.0,0.0,0.0,0.0,0.0,0.0,0.0,0.0,-0.9505,-1.0865,-1.1097,-1.1196,-1.1443,-1.1467,-1.1511,-1.1613,-1.1619,-1.1619,-1.1619,-1.1619,-1.1619,-1.1619,-1.2305,-1.3224,-1.4361,-1.5763,-1.7671,-2.0126,-2.0756,-2.1665,-2.2928,-2.2928,-2.2928,-2.2928,-2.2928,-2.2928,-2.2928,-2.2928,-2.2572,-2.2104,-2.181,-2.1516,-2.1243,-2.1149,-2.1109,-2.1109,-2.1109,-2.1109,-2.1109,-2.1109,-2.1109,-2.1109,-2.1109,-2.1853,-2.3014,-2.4116,-2.5932,-2.7871,-2.8979,-3.0089,-3.0889,-3.0889,-3.0889,-3.0889,-3.0889,-3.0889,-3.0889,-3.0889,-3.0889,-3.0889,-3.0889,-3.2092,-3.3406,-3.4403,-3.6259,-3.7849,-3.8856,-3.9413,-3.9697,-3.9697,-3.9697,-3.9697,-3.9697,-3.9697,-3.9459,-3.8957,-3.8504,-3.7965,-3.7211,-3.6883,-3.6593,-3.6405,-3.6405,-3.6405,-3.6405,0.0,0.0,0.0,0.0,0.0,0.0,0.0,0.0,0.0,0.0,0.0,0.0,0.0,0.0,0.0,0.0,0.0,0.0,0.0,0.0,0.0,0.0,0.0,-1.088,-1.0884,-1.1063,-1.1355,-1.1392,-1.145,-1.1606,-1.1619,-1.1619,-1.1619,-1.1619,-1.1619,-1.1626,-1.1698,-1.1698,-1.1633,-1.3846,-1.4847,-1.452,-1.8469,-2.0397,-2.0225,-2.2048,-2.2954,-2.2879,-2.2879,-2.2941,-2.2928,-2.2928,-2.2928,-2.2928,-2.2928,-2.2692,-2.2405,-2.2104,-2.181,-2.1581,-2.1223,-2.1109,-2.1109,-2.1109,-2.1109,-2.1109,-2.1109,-2.1109,-2.1109,-2.1109,-2.1109,-2.1783,-2.5008,-2.5976,-2.6712,-2.9962,-3.083,-3.0889,-3.0889,-3.0889,-3.0889,-3.0889,-3.0889,-3.0889,-3.0889,-3.0889,-3.0889,-3.0889,-3.2092,-3.3077,-3.3077,-3.554,0.0,-3.7412,-3.8739,-3.9633,-3.9581,-3.9645,-3.9685,-3.9633,-3.9697,-3.9471,-3.8982,-3.8932,-3.8429,-3.7262,-3.7199,-3.6923,-3.637,-3.631,-3.631,-3.6358,0.0,0.0,0.0,0.0,0.0,0.0,0.0,0.0,0.0,0.0,0.0,0.0,0.0,0.0,0.0,0.0,0.0,0.0,0.0,0.0,0.0,0.0,-1.088,-1.088,-1.1036,-1.1175,-1.1369,-1.1392,-1.145,-1.1606,-1.1619,-1.1619,-1.1619,-1.1619,-1.1664,-1.1769,-1.3134,-1.3337,-1.2009,-1.5397,-1.7136,-1.6923,-1.9515,-2.1483,-2.2795,-2.3302,-2.3407,-2.32,-2.32,-2.3073,-2.2928,-2.2928,-2.2928,-2.2928,-2.2928,-2.2881,-2.2692,-2.2184,-2.181,-2.1581,-2.1223,-2.1109,-2.1109,-2.1109,-2.1109,-2.1109,-2.1109,-2.1109,-2.1109,-2.1109,-2.1109,-2.1538,-2.3683,-2.5077,-2.647,-2.8545,-2.9962,-3.0889,-3.0889,-3.0889,-3.0889,-3.0889,-3.0889,-3.0889,-3.0889,-3.0889,-3.0889,-3.0889,-3.1218,-3.1883,-3.2907,0.0,0.0,-3.5781,-3.7198,-3.7701,-3.6607,-3.8425,-3.9245,-3.819,-3.9077,-3.9634,0.0,-3.9094,-3.8542,-3.7814,-3.74,-3.6476,-3.4993,-3.3958,-3.3946,0.0,0.0,0.0,0.0,0.0,0.0,0.0,0.0,0.0,0.0,0.0,0.0,0.0,0.0,0.0,0.0,0.0,0.0,0.0,0.0,0.0,0.0,-1.1053,-1.1134,-1.1134,-1.1206,-1.1314,-1.1467,-1.1487,-1.1521,-1.1609,-1.1619,-1.1643,-1.1704,-1.1708,-1.1772,-1.1921,-1.3092,-1.3645,-1.3382,-1.6531,-1.8508,-1.9141,-2.1227,-2.2773,-2.3774,-2.3774,-2.3681,-2.3514,-2.3514,-2.3347,0.0,-2.3053,-2.2986,-2.2928,-2.2928,-2.2928,0.0,0.0,0.0,0.0,0.0,-2.1216,-2.1109,-2.1109,-2.1109,-2.1109,-2.1109,-2.1109,-2.1109,-2.1109,-2.1109,-2.1601,-2.3923,-2.5261,-2.653,-2.8852,-3.0147,-3.0889,-3.0889,-3.0889,-3.0889,-3.0889,-3.0889,-3.0889,-3.0889,0.0,0.0,-3.0889,-3.0889,-3.116,-3.2035,-3.269,-3.3406,0.0,-3.5672,-3.6271,-3.5398,-3.6834,-3.7489,-3.6649,-3.737,0.0,0.0,0.0,-3.708,-3.6249,-3.6232,0.0,0.0,0.0,-3.3304,0.0,0.0,0.0,0.0,-3.5971,-3.6194,0.0,0.0,0.0,0.0,0.0,0.0,0.0,0.0,0.0,0.0,0.0,0.0,0.0,0.0,0.0,0.0,-1.1219,-1.1396,-1.1413,-1.1416,-1.1467,-1.1603,-1.1619,-1.1619,-1.1619,-1.1633,-1.1694,-1.1823,-1.1847,-1.1995,-1.2447,0.0,0.0,0.0,0.0,-1.9648,-2.0981,-2.3147,-2.4122,-2.3868,-2.3868,-2.3848,-2.3821,-2.3821,-2.3661,-2.338,-2.338,-2.32,-2.2919,-2.2919,-2.2961,-2.2901,-2.2532,-2.2398,-2.2305,-2.179,-2.1436,0.0,0.0,0.0,0.0,-2.1122,-2.1109,-2.1109,-2.1109,-2.1109,-2.172,-2.4885,-2.5855,-2.6712,-2.9785,-3.0762,-3.0889,-3.0889,-3.0889,-3.0889,-3.0889,-3.0889,-3.0889,-3.0889,-3.0889,-3.0889,-3.0889,-3.0889,-3.0889,-3.0889,-3.1988,0.0,-3.2861,-3.4136,-3.4969,-3.4803,0.0,0.0,-3.5068,-3.5178,-3.5288,-3.5288,-3.5244,-3.4818,-3.388,-3.4302,-3.3795,-3.2167,-3.3189,-3.3266,-3.228,-3.228,-3.3093,-3.4629,-3.5667,-3.6263,0.0,0.0,0.0,0.0,0.0,0.0,0.0,0.0,0.0,0.0,0.0,0.0,0.0,0.0,0.0,-1.1267,-1.1355,-1.1436,-1.1558,-1.1575,-1.1586,-1.1616,-1.1619,-1.1619,-1.1619,-1.1725,-1.1799,-1.183,-1.1945,-1.2817,-1.4603,-1.6242,0.0,-1.791,-2.1496,-2.2781,-2.1449,-2.3465,-2.4523,-2.4469,0.0,0.0,-2.4122,-2.4122,-2.3961,-2.3688,-2.3688,-2.3514,-2.324,-2.324,-2.3086,-2.2901,-2.2532,-2.2271,-2.2051,-2.1944,-2.1864,-2.1784,-2.1614,-2.1534,-2.1494,-2.1189,-2.1109,-2.1109,-2.1109,-2.1109,0.0,-2.3504,-2.5016,-2.647,-2.8367,-2.9903,-3.0889,-3.0889,-3.0889,-3.0889,-3.0889,-3.0889,-3.0889,-3.0889,-3.0889,-3.0889,-3.0889,-3.0889,-3.0889,-3.0889,-3.116,-3.1334,-3.1334,-3.2587,-3.3088,-3.1883,-3.3866,-3.4792,-3.3631,-3.4626,-3.5288,-3.5288,-3.4853,-3.4486,-3.4285,-3.2658,-3.1591,-3.1243,-3.0055,-3.0421,-3.228,-3.228,-3.3589,-3.6013,-3.5174,-3.5379,0.0,0.0,0.0,0.0,0.0,0.0,0.0,0.0,0.0,0.0,0.0,-1.3556,0.0,0.0,-1.2578,-1.2742,-1.2845,-1.2581,-1.1749,-1.2395,-1.2678,-1.1688,-1.1619,-1.1619,-1.1619,-1.1748,-1.1864,-1.1942,-1.304,-1.4164,-1.5312,-1.735,-1.8976,-2.008,-2.2055,-2.3116,-2.3116,-2.4105,-2.4636,-2.4636,-2.4636,-2.4563,-2.4422,-2.4422,-2.4262,-2.3988,-2.3988,-2.3821,-2.3541,-2.3387,-2.3146,-2.2846,-2.2699,-2.2458,-2.2205,-2.2205,-2.2111,-2.1964,-2.1817,-2.177,-2.1744,-2.1597,-2.145,-2.1329,-2.1329,-2.1229,-2.1601,-2.4108,-2.5375,-2.6591,-2.9039,-3.0274,-3.0889,-3.0889,-3.0889,-3.0889,-3.0889,-3.0889,-3.0889,-3.0889,-3.0889,-3.0889,-3.0889,-3.0889,-3.0889,-3.0889,-3.0889,-3.0889,-3.0889,-3.1546,-3.172,-3.1005,-3.2217,-3.2815,-3.2045,-3.2654,-3.3098,-3.3098,-3.2822,-3.2514,-3.2319,-3.1824,-3.1218,-3.0316,-2.987,-3.0306,-3.1633,-3.1395,-3.2694,-3.5367,-3.4727,-3.5126,0.0,0.0,0.0,0.0,0.0,0.0,0.0,0.0,-1.6302,-1.5978,-1.6161,-1.6394,-1.644,-1.5487,-1.4784,-1.4754,-1.4894,-1.4432,-1.2892,-1.4014,-1.4223,-1.2395,-1.1832,-1.163,-1.1657,-1.1789,-1.2086,-1.2682,-1.4319,-1.5753,-1.6666,-1.8265,-2.0085,-2.213,-2.2205,-2.2961,-2.4562,-2.4636,-2.4636,-2.4636,-2.4636,-2.4636,-2.4636,-2.4636,-2.4509,-2.4282,-2.4229,-2.4068,-2.3834,-2.3534,-2.3233,-2.2953,-2.2953,-2.2766,-2.2505,-2.2505,-2.2358,-2.2144,-2.2091,-2.2071,-2.2064,-2.2004,-2.1824,-2.1688,-2.1635,-2.1639,-2.223,-2.4786,-2.5984,-2.7073,-2.9717,-3.0645,-3.0889,-3.0889,-3.0889,-3.0889,-3.0889,-3.0889,-3.0889,-3.0889,-3.0889,-3.0889,-3.0889,-3.0889,-3.0889,-3.0889,-3.0889,-3.0889,-3.0889,-3.0889,-3.0889,-3.0889,-3.0889,-3.0889,-3.0889,-3.0889,-3.0889,-3.0889,-3.0889,-3.0723,-3.0342,-3.1273,-3.1172,-2.9753,-3.038,-3.0795,-3.1021,-3.0632,-3.1783,-3.4385,-3.4385,-3.5126,-1.5649,-1.5719,-1.6237,-1.7795,-1.8186,-1.8186,0.0,0.0,-1.7795,-1.6237,-1.6161,-1.6445,-1.6577,-1.6611,-1.6703,-1.6832,-1.6882,-1.6831,-1.662,-1.6761,-1.6197,-1.429,-1.2606,-1.167,-1.1796,-1.1945,-1.2906,-1.4769,-1.5249,-1.7104,-2.0686,-2.1141,-2.2205,-2.4179,-2.4253,-2.4334,-2.4636,-2.4636,-2.4636,-2.4636,-2.4636,-2.4636,-2.4636,-2.4636,-2.4542,-2.4576,-2.4315,-2.4182,-2.4128,-2.3841,-2.3547,-2.3273,-2.3273,-2.3086,-2.2812,-2.2812,-2.2861,-2.2726,-2.2458,-2.2372,-2.2331,-2.2071,-2.1964,-2.1891,-2.1695,-2.2595,-2.3688,-2.3835,-2.5932,-2.8239,-2.8605,-2.9776,-3.0889,-3.0889,-3.0889,-3.0889,-3.0889,-3.0889,-3.0889,-3.0889,-3.0889,-3.0889,-3.0889,-3.0889,-3.0889,-3.0889,-3.0889,-3.0889,-3.0889,-3.0889,-3.0889,-3.0889,-3.0889,-3.0889,-3.0889,-3.0889,-3.0889,-3.0889,-3.0889,-3.0869,-3.081,-3.0582,-3.0337,-3.0127,-2.9875,-3.0158,-3.1021,-3.0968,-3.2123,-3.4385,-3.4385,-3.5126,-1.8896,-1.8896,-1.9094,0.0,-1.9998,-1.9998,-1.9998,-1.9998,-1.9851,-1.9358,-1.9464,-1.9736,-1.9934,-1.9301,-1.881,0.0,-1.8863,-1.8514,-1.7393,-1.8164,-1.8282,-1.6501,-1.5596,-1.477,-1.3696,-1.3804,-1.4807,-1.6885,-1.8286,-1.9779,-2.1521,-2.2732,-2.3722,-2.4562,-2.4636,-2.4636,-2.4636,-2.4636,-2.4636,-2.4636,-2.4636,-2.4636,-2.4636,-2.4636,-2.4636,-2.4556,-2.4509,-2.4356,-2.4195,-2.4075,-2.3848,-2.3567,-2.3394,-2.3247,-2.3113,-2.2933,-2.2928,-2.2914,-2.2719,-2.2679,-2.2652,-2.2539,-2.2378,-2.2218,-2.2091,-2.3146,-2.4453,-2.5047,-2.6981,-2.8964,-2.9655,-3.0392,-3.0889,-3.0889,-3.0889,-3.0889,-3.0889,-3.0889,-3.0889,-3.0889,-3.0889,-3.0889,-3.0889,-3.0889,-3.0889,-3.0889,-3.0889,-3.0889,-3.0889,-3.0889,-3.0889,-3.0889,-3.0889,-3.0889,-3.0889,-3.0889,-3.0889,-3.0889,-3.0889,-3.0889,-3.0889,-3.0703,-3.0605,-3.0605,-3.0166,-3.0544,-3.1688,-3.233,-3.3364,-3.4776,-3.5636,-3.6168,-2.1109,0.0,0.0,-2.1109,-2.1109,-2.1109,-2.1109,-2.1109,-2.1196,-2.1554,-2.1784,-2.2078,-2.2365,-2.1543,-2.0894,-2.0894,-2.0894,-2.0403,-1.9002,-1.9982,-2.0296,-1.8626,-1.8497,-1.8058,-1.6812,-1.6351,-1.6987,-1.9064,-2.0659,-2.1826,-2.2434,-2.3803,-2.4636,-2.4636,-2.4636,-2.4636,-2.4636,-2.4636,-2.4636,-2.4636,-2.4636,-2.4636,-2.4636,-2.4636,-2.4636,-2.4636,-2.4636,-2.4516,-2.4322,-2.4322,-2.4155,-2.3861,-2.3567,-2.34,-2.3287,-2.2979,-2.2928,-2.2928,-2.2928,-2.2928,-2.2928,-2.2928,-2.3045,-2.3245,-2.3163,-2.4532,-2.6312,-2.7081,-2.8465,-2.9944,-3.0828,-3.0976,-3.0889,-3.0889,-3.0889,-3.0889,-3.0889,-3.0889,-3.0889,-3.0889,-3.0889,-3.0889,-3.0889,-3.0889,-3.0889,-3.0889,-3.0889,-3.0889,-3.0889,-3.0889,-3.0889,-3.0889,-3.0889,-3.0889,-3.0889,-3.0889,-3.0889,-3.0889,-3.0889,-3.0889,-3.0889,-3.0889,-3.0889,-3.0889,-3.0566,-3.0816,-3.165,-3.2846,-3.387,-3.468,-3.6013,-3.6659,0.0,0.0,-2.1109,-2.1109,-2.1109,-2.1109,-2.1109,-2.1109,-2.1196,-2.1554,-2.1784,-2.2078,-2.2365,-2.2659,-2.2791,-2.2791,-2.2791,-2.2791,-2.2722,-2.2791,-2.2194,-2.0621,-2.0519,-2.077,0.0,-1.9408,-1.9139,-2.1336,-2.159,-2.2434,-2.4408,-2.4562,-2.4636,-2.4636,-2.4636,-2.4636,-2.4636,-2.4636,-2.4636,-2.4636,-2.4636,-2.4636,-2.4636,-2.4636,-2.4636,-2.4636,-2.4636,-2.4636,-2.4623,-2.4623,-2.4449,-2.4162,-2.3875,-2.3581,-2.3287,-2.2979,-2.2928,-2.2928,-2.2928,-2.2928,-2.2928,-2.2928,-2.4053,-2.5375,-2.5128,-2.7344,-2.996,-2.9689,-3.0508,-3.1454,-3.1444,-3.1201,-3.0889,-3.0889,-3.0889,-3.0889,-3.0889,-3.0889,-3.0889,-3.0889,-3.0889,-3.0889,-3.0889,-3.0889,-3.0889,-3.0889,-3.0889,-3.0889,-3.0889,-3.0889,-3.0889,-3.0889,-3.0889,-3.0889,-3.0889,-3.0889,-3.0889,-3.0889,-3.0889,-3.0889,-3.0889,-3.0889,-3.0889,-3.0889,-3.0879,-3.0644,-3.0252,-3.1706,-3.2922,-3.3829,-3.4844,-3.5928,-2.1109,0.0,-2.1109,-2.1109,-2.1109,-2.1109,-2.1109,-2.1109,-2.1249,-2.1737,-2.1917,-2.2138,-2.2625,-2.2792,-2.2928,-2.2928,-2.2928,-2.2928,-2.2928,-2.304,-2.3064,-2.2705,-2.2916,0.0,0.0,0.0,0.0,-2.3413,-2.3574,-2.3877,-2.4562,-2.4636,-2.4636,-2.4636,-2.4636,-2.4636,-2.4636,-2.4636,-2.4636,-2.4636,-2.4636,-2.4636,-2.4636,-2.4636,-2.4636,-2.4636,-2.4636,-2.4636,-2.4636,-2.4636,-2.4576,-2.4442,-2.3955,-2.3708,-2.3561,-2.3053,-2.2928,-2.2928,-2.2928,-2.2928,-2.3058,-2.4256,-2.5053,-2.5696,-2.6838,-2.8756,-3.0492,-3.0167,-3.118,-3.2305,-3.2021,-3.1631,-3.1309,-3.1309,-3.1094,-3.0889,-3.0889,-3.0889,-3.0889,-3.0889,-3.0889,-3.0889,-3.0889,-3.0889,-3.0889,-3.0889,-3.0889,-3.0889,-3.0889,-3.0889,-3.0889,-3.0889,-3.0889,-3.0889,-3.0889,-3.0889,-3.0889,-3.0889,-3.0889,-3.0889,-3.0889,-3.0889,-3.0889,-3.0889,-3.0889,-3.1303,-3.2122,-3.3609,-3.4838,-3.5783,-3.7045,-3.7481,-2.1109,-2.1109,-2.1109,-2.1109,-2.1109,-2.1109,-2.1109,-2.1189,-2.1403,-2.1884,-2.2071,-2.2285,-2.2841,-2.2928,-2.2928,-2.2928,-2.2928,-2.2928,-2.2928,-2.3133,-2.344,-2.3734,-2.4028,-2.4322,0.0,0.0,0.0,-2.4488,-2.4636,-2.4636,-2.4636,-2.4636,-2.4636,-2.4636,-2.4636,-2.4636,-2.4636,-2.4636,-2.4636,-2.4636,-2.4636,-2.4636,-2.4636,-2.4636,-2.4636,-2.4636,-2.4636,-2.4636,-2.4636,-2.4636,-2.4636,-2.4576,-2.3995,-2.3774,-2.3701,-2.3086,-2.2928,-2.2928,-2.2928,-2.3331,-2.3992,-2.5121,-2.6365,-2.7619,-2.8747,-3.0328,-3.1706,-3.1392,-3.206,-3.2734,-3.2461,-3.207,-3.1709,-3.1553,-3.1309,-3.1074,-3.0928,-3.0889,-3.0889,-3.0889,-3.0889,-3.0889,-3.0889,-3.0889,-3.0889,-3.0889,-3.0889,-3.0889,-3.0889,-3.0889,-3.0889,-3.0889,-3.0889,-3.0889,-3.0889,-3.0889,-3.0889,-3.0889,-3.0889,-3.0889,-3.0889,-3.0889,-3.0889,-3.0889,-3.0889,-3.1383,-3.2311,-3.4303,-3.5611,-3.6267,-3.804,-3.8366,-2.1109,-2.1109,-2.1109,-2.1109,-2.1109,-2.1109,-2.1109,-2.1336,-2.1702,-2.1924,-2.2218,-2.2512,0.0,0.0,-2.2928,-2.2928,-2.2928,-2.2928,-2.2928,-2.3146,-2.3454,0.0,0.0,0.0,0.0,0.0,0.0,-2.4636,0.0,-2.4636,-2.4636,-2.4636,-2.4636,-2.4636,-2.4636,-2.4636,-2.4636,-2.4636,-2.4636,-2.4636,-2.4636,-2.4636,-2.4636,-2.4636,-2.4636,-2.4636,-2.4636,-2.4636,-2.4636,-2.4636,-2.4556,-2.4556,-2.3988,-2.3761,-2.3674,-2.3149,-2.2928,-2.2928,-2.2928,-2.3992,-2.5383,-2.5584,-2.7949,-3.0707,-3.09,-3.21,-3.3418,-3.3418,-3.3135,-3.2832,-3.2832,-3.2519,-3.21,-3.168,-3.1543,-3.1406,-3.1006,-3.0908,-3.0889,-3.0889,-3.0889,-3.0889,-3.0889,-3.0889,-3.0889,-3.0889,-3.0889,-3.0889,-3.0889,-3.0889,-3.0889,-3.0889,-3.0889,-3.0889,-3.0889,-3.0889,-3.0889,-3.0889,-3.0889,-3.0889,-3.0889,-3.0889,-3.0889,-3.0889,-3.0889,-3.0947,-3.0995,-3.3923,-3.5343,-3.5442,-3.7849,-3.858,-2.1109,-2.1109,-2.1109,-2.1109,-2.1109,-2.1109,-2.1109,-2.1336,-2.1702,-2.1924,-2.2218,-2.2512,0.0,0.0,0.0,-2.2928,-2.2928,0.0,-2.2928,-2.332,0.0,-2.3761,0.0,-2.4556,-2.4556,-2.4636,0.0,0.0,-2.4636,-2.4636,-2.4636,-2.4636,-2.4636,-2.4636,-2.4636,-2.4636,-2.4636,-2.4636,-2.4636,-2.4636,-2.4636,-2.4636,-2.4636,-2.4636,-2.4636,-2.4636,-2.4636,-2.4636,-2.4636,-2.4636,-2.4509,-2.4282,-2.3915,-2.3634,-2.3394,-2.3006,-2.2928,-2.2928,-2.2928,-2.3195,-2.3992,-2.6647,-2.8098,-2.9344,-3.1963,-3.3029,-3.3418,-3.3418,-3.334,-3.3262,-3.3262,-3.2949,-3.2607,-3.249,-3.1982,-3.1484,-3.1377,-3.1113,-3.0889,-3.0889,-3.0889,-3.0889,-3.0889,-3.0889,-3.0889,-3.0889,-3.0889,-3.0889,-3.0889,-3.0889,-3.0889,-3.0889,-3.0889,-3.0889,-3.0889,-3.0889,-3.0889,-3.0889,-3.0889,-3.0889,-3.0889,-3.0889,-3.0889,-3.0889,-3.0889,-3.1441,-3.253,-3.4414,-3.5836,-3.6972,-3.8721,-3.8956,-2.1109,-2.1109,-2.1109,-2.1109,-2.1109,-2.1142,-2.1276,-2.153,-2.1824,-2.2118,-2.2412,0.0,0.0,0.0,0.0,0.0,0.0,0.0,-2.2928,-2.3387,-2.3774,0.0,-2.4282,0.0,-2.4636,-2.4636,-2.4636,0.0,-2.4636,-2.4636,-2.4636,-2.4636,-2.4636,-2.4636,-2.4636,-2.4636,-2.4636,-2.4636,-2.4636,-2.4636,-2.4636,-2.4636,-2.4636,-2.4636,-2.4636,-2.4636,0.0,-2.4636,-2.4623,-2.4496,-2.4349,-2.4162,-2.3741,-2.3474,-2.3287,-2.2979,-2.2928,-2.2928,-2.2928,-2.2928,-2.3461,-2.7047,-2.8689,-2.9865,-3.2565,-3.3418,-3.3418,-3.3418,-3.3418,-3.3418,-3.3418,-3.3242,-3.3027,-3.2842,-3.2285,-3.1748,-3.1562,-3.1182,-3.0889,-3.0889,-3.0889,-3.0889,-3.0889,-3.0889,-3.0889,-3.0889,-3.0889,-3.0889,-3.0889,-3.0889,-3.0889,-3.0889,-3.0889,-3.0889,-3.0889,-3.0889,-3.0889,-3.0889,-3.0889,-3.0889,-3.0889,-3.0889,-3.0889,-3.0889,-3.0889,-3.1334,-3.215,-3.3631,-3.5112,-3.653,-3.779,-3.8248,-2.1109,-2.1109,-2.1109,-2.1109,-2.1109,-2.1176,-2.1501,-2.175,-2.2058,-2.2311,0.0,-2.2928,-2.2928,-2.2928,-2.2928,-2.2928,0.0,-2.2928,-2.2928,-2.3387,-2.3774,-2.3774,-2.4282,-2.4636,-2.4636,-2.4636,-2.4636,-2.4636,-2.4636,-2.4636,-2.4636,-2.4636,-2.4636,-2.4636,-2.4636,-2.4636,-2.4636,-2.4636,-2.4636,-2.4636,-2.4636,-2.4636,-2.4636,-2.4636,-2.4616,-2.4576,0.0,0.0,-2.4502,-2.4249,-2.4122,-2.4035,-2.3527,-2.33,-2.3233,-2.2966,-2.3065,-2.3195,-2.2996,-2.3195,-2.4128,-2.7179,-2.9213,-3.0845,-3.2829,-3.3418,-3.3418,-3.3418,-3.3418,-3.3418,-3.3418,-3.3418,-3.333,-3.2969,-3.2519,-3.206,-3.168,-3.123,-3.0889,-3.0889,-3.0889,-3.0889,-3.0889,-3.0889,-3.0889,-3.0889,-3.0889,-3.0889,-3.0889,-3.0889,-3.0889,-3.0889,-3.0889,-3.0889,-3.0889,-3.0889,-3.0889,-3.0889,-3.0889,-3.0889,-3.0889,-3.0889,-3.0889,-3.0889,-3.0889,-3.0889,-3.0889,-3.2369,-3.3856,-3.5332,-3.6285,-3.7151,-2.1109,-2.1109,-2.1109,-2.1109,-2.1109,-2.1122,-2.1176,-2.1603,0.0,0.0,0.0,-2.2928,-2.2928,-2.2928,0.0,-2.2928,0.0,0.0,0.0,0.0,-2.3774,0.0,0.0,0.0,0.0,0.0,0.0,0.0,0.0,0.0,-2.4636,-2.4636,-2.4636,-2.4636,-2.4636,-2.4636,-2.4636,-2.4636,-2.4636,-2.4636,-2.4636,-2.4636,-2.4636,-2.4636,-2.4509,-2.4282,0.0,0.0,-2.3921,-2.3868,-2.3701,-2.3467,-2.3367,-2.3166,-2.2939,-2.2954,-2.3795,-2.4851,-2.3393,-2.4791,-2.7379,-2.7974,-2.8435,-2.9222,-3.2428,-3.3418,-3.3418,-3.3418,-3.3418,-3.3418,-3.3418,-3.3418,-3.3408,-3.333,-3.2725,-3.2209,-3.207,-3.1445,-3.0889,-3.0889,-3.0889,-3.0889,-3.0889,-3.0889,-3.0889,-3.0889,-3.0889,-3.0889,-3.0889,-3.0889,-3.0889,-3.0889,-3.0889,-3.0889,-3.0889,-3.0889,-3.0889,-3.0889,-3.0889,-3.0889,-3.0889,-3.0889,-3.0889,-3.0889,-3.0889,-3.0889,-3.0889,-3.2369,-3.3856,-3.5332,-3.6285,-3.7151,-2.1109,-2.1109,-2.1109,-2.1109,-2.1109,-2.1149,-2.1303,0.0,0.0,0.0,-2.2559,-2.2928,-2.2928,0.0,0.0,0.0,0.0,0.0,0.0,0.0,0.0,0.0,0.0,0.0,0.0,0.0,0.0,0.0,0.0,0.0,-2.4636,-2.4636,-2.4636,-2.4636,-2.4636,-2.4636,-2.4636,-2.4636,-2.4636,-2.4636,-2.4636,-2.4556,-2.4409,-2.4409,-2.4255,-2.3981,0.0,0.0,-2.5123,-2.503,-2.5345,-2.6071,-2.5899,-2.5802,-2.5651,-2.5651,-2.618,-2.6781,-2.592,-2.6781,-2.8369,-2.9279,-2.954,-2.9995,-3.2629,-3.3418,-3.3418,-3.3418,-3.3418,-3.3418,-3.3418,-3.3418,-3.3418,-3.3418,-3.2783,-3.2111,-3.1601,-3.1182,-3.0889,-3.0889,-3.0889,-3.0889,-3.0889,-3.0889,-3.0889,-3.0889,-3.0889,-3.0889,-3.0889,-3.0889,-3.0889,-3.0889,-3.0889,-3.0889,-3.0889,-3.0889,-3.0889,-3.0889,-3.0889,-3.0889,-3.0889,-3.0889,-3.0889,-3.0889,-3.0889,-3.0889,-3.0889,-3.2369,-3.3716,-3.4831,-3.5783,-3.6739,-2.1109,-2.1109,-2.1109,-2.1109,-2.1109,-2.1169,-2.1403,-2.1683,0.0,0.0,-2.2559,-2.2786,-2.2921,0.0,0.0,0.0,0.0,0.0,0.0,0.0,0.0,0.0,0.0,0.0,0.0,0.0,0.0,0.0,0.0,0.0,0.0,-2.4636,-2.4636,-2.4636,-2.4636,-2.4636,-2.4636,-2.4636,-2.4603,-2.4543,-2.4543,-2.4601,-2.4665,-2.4665,-2.4708,-2.4841,0.0,0.0,0.0,-2.655,-2.7248,-2.8493,-2.8279,-2.8172,-2.8172,-2.8172,-2.8435,-2.8689,-2.8303,-2.8698,-2.9483,-3.0448,-3.0771,-3.1102,-3.2892,-3.3418,-3.3418,-3.3418,-3.3418,-3.3418,-3.3418,-3.3418,-3.3379,-3.3193,-3.2578,-3.1816,-3.1055,-3.0889,-3.0889,-3.0889,-3.0889,-3.0889,-3.0889,-3.0889,-3.0889,-3.0889,-3.0889,-3.0889,-3.0889,-3.0889,-3.0889,-3.0889,-3.0889,-3.0889,-3.0889,-3.0889,-3.0889,-3.0889,-3.0889,-3.0889,-3.0889,-3.0889,-3.0889,-3.0889,-3.0889,-3.0889,-3.0889,-3.2266,-3.3446,-3.4408,-3.5242,-3.6204,-2.1109,-2.1109,-2.1109,-2.1109,-2.1109,-2.1116,-2.1142,0.0,0.0,-2.1964,-2.2258,-2.2539,-2.2812,-2.2928,0.0,0.0,0.0,0.0,0.0,0.0,0.0,0.0,0.0,0.0,0.0,0.0,0.0,0.0,0.0,0.0,0.0,-2.4636,-2.4636,-2.4636,-2.4636,-2.4636,-2.4636,-2.4636,-2.4502,-2.4242,-2.4242,-2.4918,-2.6199,-2.6199,-2.6908,-2.8151,0.0,0.0,0.0,-2.8031,-2.8089,-2.8213,-2.8188,-2.8172,-2.8172,-2.8172,-2.9213,-3.0319,-2.8755,-3.0263,-3.2702,-3.124,-3.0771,-3.1102,-3.2892,-3.3418,-3.3418,-3.3418,-3.3418,-3.3418,-3.3418,-3.3418,-3.3232,-3.2461,-3.1924,-3.1455,-3.0986,-3.0889,-3.0889,-3.0889,-3.0889,-3.0889,-3.0889,-3.0889,-3.0889,-3.0889,-3.0889,-3.0889,-3.0889,-3.0889,-3.0889,-3.0889,-3.0889,-3.0889,-3.0889,-3.0889,-3.0889,-3.0889,-3.0889,-3.0889,-3.0889,-3.0889,-3.0889,-3.0889,-3.0889,-3.0889,-3.0889,-3.1825,-3.2992,-3.4397,-3.4841,-3.5853,-2.1109,-2.1109,-2.1109,-2.1109,-2.1109,-2.1109,-2.1109,0.0,0.0,-2.1769,-2.2091,-2.2452,-2.2572,-2.2739,-2.2928,0.0,0.0,0.0,0.0,0.0,0.0,0.0,0.0,0.0,0.0,0.0,0.0,0.0,0.0,0.0,0.0,-2.4636,-2.4636,-2.4636,-2.4636,-2.4556,-2.4376,-2.4376,-2.4716,-2.552,-2.552,-2.6316,-2.7692,-2.7692,-2.7976,-2.8386,0.0,0.0,0.0,-2.9735,-3.0393,-3.1322,-3.1322,-3.1322,-3.1322,-3.1322,-3.1771,-3.2301,-3.1579,-3.2237,-3.3292,-3.2556,-3.2365,-3.2492,-3.3155,-3.3418,-3.3418,-3.3418,-3.3418,-3.3418,-3.3418,-3.3232,-3.2832,-3.1982,-3.1641,-3.1406,-3.0986,-3.0889,-3.0889,-3.0889,-3.0889,-3.0889,-3.0889,-3.0889,-3.0889,-3.0889,-3.0889,-3.0889,-3.0889,-3.0889,-3.0889,-3.0889,-3.0889,-3.0889,-3.0889,-3.0889,-3.0889,-3.0889,-3.0889,-3.0889,-3.0889,-3.0889,-3.0889,-3.0889,-3.0889,-3.1325,-3.2254,-3.3095,-3.4101,-3.5248,-3.5994,-3.6441,-2.1109,-2.1109,-2.1109,-2.1109,-2.1109,-2.1109,0.0,0.0,0.0,-2.1601,-2.1877,-2.2218,-2.2385,-2.2585,-2.2759,0.0,0.0,0.0,0.0,0.0,0.0,0.0,0.0,0.0,0.0,0.0,0.0,0.0,0.0,0.0,0.0,0.0,-2.5036,-2.4629,-2.4556,-2.4622,-2.497,-2.4881,-2.5576,-2.7031,-2.7031,-2.7804,-2.9284,-2.9276,-2.9462,0.0,0.0,0.0,0.0,-3.157,-3.2292,-3.3418,-3.3418,-3.3418,-3.3418,-3.3418,-3.3418,-3.3418,-3.3418,-3.3418,-3.3418,-3.3418,-3.3418,-3.3418,-3.3418,-3.3418,-3.3418,-3.3418,-3.333,-3.3203,-3.3086,-3.2734,-3.2266,-3.166,-3.1426,-3.125,-3.0957,-3.0889,-3.0889,-3.0889,-3.0889,-3.0889,-3.0889,-3.0889,-3.0889,-3.0889,-3.0889,-3.0889,-3.0889,-3.0889,-3.0889,-3.0889,-3.0889,-3.0889,-3.0889,-3.0889,-3.0889,-3.0889,-3.0889,-3.0889,-3.0889,-3.0889,-3.0889,-3.0889,-3.1334,-3.1974,-3.2868,-3.4182,-3.508,-3.558,-3.6529,-3.6782,-2.1109,-2.1109,-2.1109,-2.1109,-2.1109,-2.1109,0.0,0.0,-2.1196,-2.1561,-2.1621,-2.1802,-2.2311,-2.2418,-2.2519,-2.2881,0.0,0.0,0.0,0.0,0.0,0.0,0.0,0.0,0.0,0.0,0.0,0.0,0.0,0.0,0.0,0.0,-2.6085,-2.4623,-2.4356,-2.5036,-2.6761,-2.652,-2.7085,-2.8574,-2.8574,-2.9325,-3.0752,-3.0789,0.0,0.0,0.0,0.0,0.0,-3.3355,-3.3355,-3.3418,-3.3418,-3.3418,-3.3418,-3.3418,-3.3418,-3.3418,-3.3418,-3.3418,-3.3418,-3.3418,-3.3418,-3.3418,-3.3418,-3.3418,-3.3418,-3.3418,-3.3115,-3.2705,-3.2285,-3.1855,-3.1533,-3.1514,-3.1201,-3.0898,-3.0889,-3.0889,-3.0889,-3.0889,-3.0889,-3.0889,-3.0889,-3.0889,-3.0889,-3.0889,-3.0889,-3.0889,-3.0889,-3.0889,-3.0889,-3.0889,-3.0889,-3.0889,-3.0889,-3.0889,-3.0889,-3.0889,-3.0889,-3.0889,-3.0889,-3.0889,-3.0889,-3.0889,-3.2311,-3.278,-3.2197,-3.4637,-3.5505,-3.5035,-3.5974,-3.6417,-2.1109,-2.1109,-2.1109,-2.1109,-2.1109,-2.1109,-2.1109,0.0,-2.1136,-2.1229,-2.141,-2.1675,-2.1797,-2.2151,-2.2445,-2.2545,0.0,0.0,0.0,0.0,0.0,0.0,0.0,0.0,0.0,0.0,0.0,0.0,0.0,0.0,0.0,0.0,0.0,-2.8129,-2.7663,-2.7648,-2.8024,-2.798,-2.8616,-3.0105,-3.0105,-3.0971,-3.2575,-3.2565,0.0,0.0,0.0,0.0,0.0,-3.3418,-3.3418,-3.3418,-3.3418,-3.3418,-3.3418,-3.3418,-3.3418,-3.3418,-3.3418,-3.3418,-3.3418,-3.3418,-3.3223,-3.2998,-3.2998,-3.3193,-3.3359,-3.3076,-3.2695,-3.2266,-3.1836,-3.1621,-3.1445,-3.1162,-3.0986,-3.0889,-3.0889,-3.0889,-3.0889,-3.0889,-3.0889,-3.0889,-3.0889,-3.0889,-3.0889,-3.0889,-3.0889,-3.0889,-3.0889,-3.0889,-3.0889,-3.0889,-3.0889,-3.0889,-3.0889,-3.0889,-3.0889,-3.0889,-3.0889,-3.0889,-3.0889,-3.0889,-3.0889,-3.0889,-3.1007,-3.1973,-3.3715,-3.3814,-3.4598,-3.5962,-3.6243,-3.6405,0.0,-2.1109,-2.1109,-2.1109,-2.1109,0.0,0.0,0.0,-2.1109,-2.1109,-2.1256,-2.1423,-2.1594,-2.185,-2.2124,-2.2238,0.0,0.0,0.0,0.0,0.0,0.0,0.0,0.0,0.0,0.0,0.0,0.0,0.0,0.0,0.0,0.0,0.0,-3.1364,-2.9766,-2.9058,-2.9578,-2.95,-3.0232,-3.1762,-3.1762,-3.2355,-3.3418,0.0,0.0,0.0,0.0,0.0,0.0,-3.3418,-3.3418,-3.3418,-3.3418,-3.3418,-3.3418,-3.3418,-3.332,-3.3184,-3.3184,-3.3076,-3.2949,-3.2949,-3.2773,-3.2559,-3.2559,-3.2744,-3.2861,-3.2432,-3.2129,-3.1826,-3.1396,-3.1279,-3.1211,-3.0957,-3.0889,-3.0889,-3.0889,-3.0889,-3.0889,-3.0889,-3.0889,-3.0889,-3.0889,-3.0889,-3.0889,-3.0889,-3.0889,-3.0889,-3.0889,-3.0889,-3.0889,-3.0889,-3.0889,-3.0889,-3.0889,-3.0889,-3.0889,-3.0889,-3.0889,-3.0889,-3.0889,-3.0889,-3.081,-3.0635,-3.0893,-3.1719,-3.3136,-3.34,-3.4523,-3.6405,-3.6405,-3.6405,0.0,-2.1109,0.0,0.0,0.0,0.0,0.0,0.0,0.0,-2.1109,-2.1109,-2.1196,-2.1534,-2.1666,-2.1831,0.0,0.0,0.0,0.0,0.0,0.0,0.0,0.0,0.0,0.0,0.0,0.0,0.0,0.0,0.0,0.0,0.0,0.0,-3.3959,-3.0738,-2.9736,-3.1348,-3.1099,-3.1826,-3.3418,-3.3418,-3.3418,-3.3418,0.0,0.0,0.0,0.0,0.0,0.0,-3.335,-3.333,-3.333,-3.333,-3.333,-3.333,-3.333,-3.3086,-3.2754,-3.2754,-3.249,-3.2158,-3.2129,-3.2119,-3.2119,-3.215,-3.216,-3.2041,-3.1631,-3.1494,-3.1377,-3.0996,-3.0889,-3.0889,-3.0889,-3.0889,-3.0889,-3.0889,-3.0889,-3.0889,-3.0889,-3.0889,-3.0889,-3.0889,-3.0889,-3.0889,-3.0889,-3.0889,-3.0889,-3.0889,-3.0889,-3.0889,-3.0889,-3.0889,-3.0889,-3.0889,-3.0889,-3.0889,-3.0889,-3.0889,-3.0889,-3.0889,-3.0859,-3.0635,-3.0205,-3.1599,-3.1839,-3.0968,-3.3295,-3.503,-3.6263,-3.6358,-3.6405,-2.1109,0.0,-2.1109,-2.1109,-2.1109,-2.1109,0.0,0.0,-2.1109,-2.1109,-2.1109,-2.1129,-2.1203,0.0,0.0,0.0,0.0,0.0,0.0,0.0,0.0,0.0,0.0,0.0,0.0,0.0,0.0,0.0,0.0,0.0,0.0,0.0,0.0,-3.3584,-3.2718,-3.2452,-3.2845,-3.2813,-3.2956,-3.3418,-3.3418,-3.3418,-3.3418,0.0,0.0,0.0,0.0,0.0,-3.292,-3.2598,-3.2461,-3.2461,-3.2461,-3.2461,-3.2461,-3.2461,-3.2402,-3.2314,-3.2314,-3.2256,-3.2119,-3.1777,-3.167,-3.1611,-3.1289,-3.1416,-3.165,-3.1543,-3.1289,-3.1016,-3.0918,-3.0889,-3.0889,-3.0889,-3.0889,-3.0889,-3.0889,-3.0889,-3.0889,-3.0889,-3.0889,-3.0889,-3.0889,-3.0889,-3.0889,-3.0889,-3.0889,-3.0889,-3.0889,-3.0889,-3.0889,-3.0889,-3.0889,-3.0889,-3.0889,-3.0889,-3.0889,-3.0889,-3.0889,-3.0889,-3.0889,-3.0547,-3.0303,-3.0195,-3.0939,-3.1052,-3.0475,-3.3124,-3.4581,-3.4872,-3.5918,-3.6405,-2.3124,-2.2271,-2.1109,-2.1109,-2.1109,-2.1109,-2.1109,0.0,0.0,0.0,0.0,0.0,0.0,0.0,0.0,0.0,0.0,0.0,0.0,0.0,0.0,0.0,0.0,0.0,0.0,0.0,0.0,0.0,0.0,0.0,0.0,0.0,0.0,0.0,-3.3418,-3.3418,-3.3418,-3.3418,-3.3418,-3.3418,-3.3223,-3.3135,-3.3125,0.0,0.0,0.0,0.0,0.0,-3.249,-3.2256,-3.2229,-3.2229,-3.2229,-3.2229,-3.2229,-3.2229,-3.2041,-3.1875,-3.1875,-3.1738,-3.1543,-3.1309,-3.123,-3.1182,-3.0957,-3.1055,-3.123,-3.123,-3.1064,-3.0889,-3.0889,-3.0889,-3.0889,-3.0889,-3.0889,-3.0889,-3.0889,-3.0889,-3.0889,-3.0889,-3.0889,-3.0889,-3.0889,-3.0889,-3.0889,-3.0889,-3.0889,-3.0889,-3.0889,-3.0889,-3.0889,-3.0889,-3.0889,-3.0889,-3.0889,-3.0889,-3.0889,-3.0889,-3.0889,-3.0889,-3.0889,-3.0449,-3.001,-2.9619,-2.9707,-3.0212,-3.1224,-3.2694,-3.4056,-3.5319,-3.6061,-3.6405,-2.5558,-2.397,-2.1846,-2.1846,-2.1846,-2.1846,-2.1846,0.0,0.0,0.0,0.0,0.0,0.0,0.0,0.0,0.0,0.0,0.0,0.0,0.0,0.0,0.0,0.0,0.0,0.0,0.0,0.0,0.0,0.0,0.0,0.0,0.0,0.0,0.0,-3.3359,-3.333,-3.333,-3.333,-3.333,-3.332,-3.29,-3.2695,-3.2685,-3.2334,0.0,0.0,0.0,0.0,-3.206,-3.2002,-3.1973,-3.1973,-3.1973,-3.1842,-3.1651,-3.1912,-3.1419,-3.0672,-3.0921,-3.0808,-3.0577,-3.083,-3.0889,-3.0889,-3.0889,-3.0889,-3.0889,-3.0889,-3.0889,-3.0889,-3.0889,-3.0889,-3.0889,-3.0889,-3.0889,-3.0889,-3.0889,-3.0889,-3.0889,-3.0889,-3.0889,-3.0889,-3.0889,-3.0889,-3.0889,-3.0889,-3.0889,-3.0889,-3.0889,-3.0889,-3.0889,-3.0889,-3.0889,-3.0889,-3.0889,-3.0889,-3.0889,-3.0889,-3.0889,-3.083,-3.0693,-3.0244,-2.9629,-2.8838,-2.8682,-2.9713,-3.1977,-3.2443,-3.3798,-3.6108,-3.631,-3.6405,-2.5558,-2.5611,-2.5253,-2.5253,-2.5253,-2.5253,-2.5253,0.0,0.0,0.0,0.0,0.0,0.0,0.0,0.0,0.0,0.0,0.0,0.0,0.0,0.0,0.0,0.0,0.0,0.0,0.0,0.0,0.0,0.0,0.0,0.0,0.0,0.0,0.0,0.0,-3.2891,-3.2891,-3.2891,-3.2891,-3.2891,-3.2461,-3.2266,-3.2266,-3.2258,-3.2229,0.0,0.0,-3.1621,-3.1592,-3.124,-3.1084,-3.1084,-3.1084,-3.0211,-2.9154,-3.0584,-2.9314,-2.7039,-2.8388,-2.8838,-2.9039,-3.045,-3.0889,-3.0889,-3.0889,-3.0889,-3.0889,-3.0889,-3.0889,-3.0889,-3.0889,-3.0889,-3.0889,-3.0889,-3.0889,-3.0889,-3.0889,-3.0889,-3.0889,-3.0889,-3.0889,-3.0889,-3.0889,-3.0889,-3.0889,-3.0889,-3.0889,-3.0889,-3.0889,-3.0889,-3.0889,-3.0889,-3.0889,-3.0889,-3.0889,-3.0889,-3.0889,-3.0889,-3.0889,-3.0557,-2.9805,-2.9346,-2.8887,-2.8398,-2.9448,-3.0214,-3.0618,-3.2955,-3.4276,-3.4727,-3.587,-3.6405,-2.8188,-2.8673,-2.8673,-2.8673,-2.7323,-2.5976,-2.5976,0.0,0.0,0.0,0.0,0.0,0.0,0.0,0.0,0.0,0.0,0.0,0.0,0.0,0.0,0.0,0.0,0.0,0.0,0.0,0.0,0.0,0.0,0.0,0.0,0.0,0.0,0.0,0.0,0.0,-3.2461,-3.2217,-3.2217,-3.2451,-3.2021,-3.1816,-3.1807,-3.1582,-3.1475,0.0,0.0,-3.1182,-3.1162,-3.0976,-3.0889,-3.0889,-3.0889,-3.046,-2.9717,-2.9589,-2.8059,-2.6219,-2.7871,-2.8417,-2.8664,-3.0333,-3.0889,-3.0889,-3.0889,-3.0889,-3.0889,-3.0889,-3.0889,-3.0889,-3.0889,-3.0889,-3.0889,-3.0889,-3.0889,-3.0889,-3.0889,-3.0889,-3.0889,-3.0889,-3.0889,-3.0889,-3.0889,-3.0889,-3.0889,-3.0889,-3.0889,-3.0889,-3.0889,-3.0889,-3.0889,-3.0889,-3.0889,-3.0889,-3.0889,-3.0889,-3.0781,-3.0537,-3.0518,-3.0127,-2.9258,-2.9023,-2.8721,-2.8301,-2.9608,-3.0669,-3.1378,-3.3415,-3.4775,-3.5523,-3.6108,-3.6405,-3.045,-3.0889,-3.0889,-3.0889,0.0,0.0,0.0,-2.7142,0.0,0.0,0.0,0.0,0.0,0.0,0.0,0.0,0.0,0.0,0.0,0.0,0.0,0.0,0.0,0.0,0.0,0.0,0.0,0.0,0.0,0.0,0.0,0.0,0.0,0.0,0.0,0.0,-3.2012,-3.1592,-3.1592,-3.2012,-3.1572,-3.1367,-3.1357,-3.1035,-3.0889,-3.0889,-3.0889,-3.0889,-3.0889,-3.0889,-3.0889,-3.0889,-3.0889,-3.0889,-3.0645,-2.8605,-2.7323,-2.6772,-2.7991,-2.8417,-2.8664,-3.0333,-3.0889,-3.0889,-3.0889,-3.0889,-3.0889,-3.0889,-3.0889,-3.0889,-3.0889,-3.0889,-3.0889,-3.0889,-3.0889,-3.0889,-3.0889,-3.0889,-3.0889,-3.0889,-3.0889,-3.0889,-3.0889,-3.0889,-3.0889,-3.0889,-3.0889,-3.0889,-3.0889,-3.0889,-3.0889,-3.0889,-3.0889,-3.0889,-3.0889,-3.0791,-3.0537,-3.0078,-2.9951,-2.9609,-2.8945,-2.8818,-2.8775,-2.8761,-3.0068,-3.1429,-3.2794,-3.4215,-3.5415,-3.6405,-3.6405,-3.6405,-3.045,-3.0889,-3.0889,-3.0889,-3.0704,0.0,-3.0518,-3.0518,0.0,-2.8545,0.0,0.0,0.0,0.0,0.0,0.0,0.0,0.0,0.0,0.0,0.0,0.0,0.0,0.0,0.0,0.0,0.0,0.0,0.0,0.0,0.0,0.0,0.0,0.0,0.0,0.0,-3.1562,-3.1152,-3.1152,-3.1562,-3.1133,-3.0937,-3.0937,-3.0898,-3.0889,-3.0889,-3.0889,-3.0889,-3.0889,-3.0889,-3.0889,-3.0889,-3.0889,-3.0889,-3.0518,-2.7323,-2.7013,-2.823,-2.8358,-2.8417,-2.8664,-3.0333,-3.0889,-3.0889,-3.0889,-3.0889,-3.0889,-3.0889,-3.0889,-3.0889,-3.0889,-3.0889,-3.0889,-3.0889,-3.0889,-3.0889,-3.0889,-3.0889,-3.0889,-3.0889,-3.0889,-3.0889,-3.0889,-3.0889,-3.0889,-3.0889,-3.0889,-3.0889,-3.0889,-3.0889,-3.0889,-3.0889,-3.0889,-3.0889,-3.0889,-3.0498,-3.0068,-2.9648,-2.9238,-2.8984,-2.8916,-2.8545,-2.893,-3.012,-3.148,-3.2844,-3.4227,-3.5619,-3.631,-3.6405,-3.6405,-3.6405,-3.0704,-3.0889,-3.0889,-3.0889,-3.0889,0.0,0.0,-3.0889,-3.0704,-3.0089,-3.046,0.0,0.0,0.0,0.0,0.0,0.0,0.0,0.0,0.0,0.0,0.0,0.0,0.0,0.0,0.0,0.0,0.0,0.0,0.0,0.0,0.0,0.0,0.0,0.0,0.0,0.0,-3.0976,-3.0976,-3.1123,-3.0967,-3.0889,-3.0889,-3.0889,-3.0889,-3.0889,-3.0889,-3.0889,-3.0889,-3.0889,-3.0889,-3.0889,-3.0889,-3.0265,-2.9216,-2.7931,-2.7254,-2.7073,-2.8051,-2.8417,-2.8664,-3.0333,-3.0889,-3.0889,-3.0889,-3.0889,-3.0889,-3.0889,-3.0889,-3.0889,-3.0889,-3.0889,-3.0889,-3.0889,-3.0889,-3.0889,-3.0889,-3.0889,-3.0889,-3.0889,-3.0889,-3.0889,-3.0889,-3.0889,-3.0889,-3.0889,-3.0889,-3.0889,-3.0889,-3.0889,-3.0889,-3.0889,-3.0635,-3.0459,-3.0459,-2.9805,-2.9336,-2.917,-2.9014,-2.8799,-2.8535,-2.8379,-2.8548,-2.9059,-3.1173,-3.2543,-3.3105,-3.5307,-3.6405,-3.6405,-3.6405,-3.6405,-3.0889,-3.0889,-3.0889,-3.0889,0.0,0.0,-3.0889,-3.0889,-3.0889,-3.0889,-3.0889,-3.0889,-3.0889,0.0,0.0,0.0,0.0,0.0,0.0,0.0,0.0,0.0,0.0,0.0,0.0,0.0,0.0,0.0,0.0,0.0,0.0,0.0,0.0,0.0,0.0,0.0,0.0,-3.0889,-3.0889,-3.0889,-3.0889,-3.0889,-3.0889,-3.0889,-3.0889,-3.0889,-3.0889,-3.0889,-3.0889,-3.0889,-3.0889,-3.0889,-3.0889,-3.0206,-2.9216,-2.9216,-2.8486,-2.7692,-2.8792,-2.9216,-2.9403,-3.0518,-3.0889,-3.0889,-3.0889,-3.0889,-3.0889,-3.0889,-3.0889,-3.0889,-3.0889,-3.0889,-3.0889,-3.0889,-3.0889,-3.0889,-3.0889,-3.0889,-3.0889,-3.0889,-3.0889,-3.0889,-3.0889,-3.0889,-3.0889,-3.0889,-3.0889,-3.0889,-3.0889,-3.0889,-3.083,-3.0684,-3.0391,-3.0146,-3.001,-2.9336,-2.8916,-2.8916,-2.8789,-2.8594,-2.8301,-2.8291,-2.8495,-2.89,-3.1122,-3.2532,-3.2944,-3.5307,-3.6405,-3.6405,-3.6405,-3.6405,-3.0889,-3.0889,-3.0889,0.0,0.0,0.0,-3.0889,-3.0889,-3.0889,-3.0889,0.0,-3.0889,-3.0889,0.0,0.0,0.0,0.0,0.0,0.0,0.0,0.0,0.0,0.0,0.0,0.0,0.0,0.0,0.0,0.0,0.0,0.0,0.0,0.0,0.0,0.0,0.0,0.0,-3.0889,-3.0889,-3.0889,-3.0889,-3.0889,-3.0889,-3.0889,-3.0889,-3.0889,-3.0889,-3.0889,-3.0889,-3.0889,-3.0889,-3.0889,-3.0889,-3.0889,-3.0889,-3.0889,-3.0889,-3.0889,-3.0889,-3.0889,-3.0889,-3.0889,-3.0889,-3.0889,-3.0889,-3.0889,-3.0889,-3.0889,-3.0889,-3.0889,-3.0889,-3.0889,-3.0889,-3.0889,-3.0889,-3.0889,-3.0889,-3.0889,-3.0889,-3.0889,-3.0889,-3.0889,-3.0889,-3.0889,-3.0889,-3.0889,-3.0889,-3.0889,-3.0889,-3.0889,-3.0703,-3.0244,-3.0185,-3.0019,-2.9655,-2.916,-2.8916,-2.8916,-2.8525,-2.8291,-2.8291,-2.8291,-2.8953,-3.0266,-3.1633,-3.2994,-3.4385,-3.5763,-3.6405,-3.6405,-3.6405,-3.6405,-3.0889,-3.0889,0.0,-3.0889,0.0,0.0,0.0,-3.0889,0.0,0.0,0.0,0.0,0.0,0.0,0.0,0.0,0.0,0.0,0.0,0.0,0.0,0.0,0.0,0.0,0.0,0.0,0.0,0.0,0.0,0.0,0.0,0.0,0.0,0.0,0.0,0.0,0.0,0.0,-3.0889,-3.0889,-3.0889,-3.0889,-3.0889,-3.0889,-3.0889,-3.0889,-3.0889,-3.0889,-3.0889,-3.0889,-3.0889,-3.0889,-3.0889,-3.0889,-3.0889,-3.0889,-3.0889,-3.0889,-3.0889,-3.0889,-3.0889,-3.0889,-3.0889,-3.0889,-3.0889,-3.0889,-3.0889,-3.0889,-3.0889,-3.0889,-3.0889,-3.0889,-3.0889,-3.0889,-3.0889,-3.0889,-3.0889,-3.0889,-3.0889,-3.0889,-3.0889,-3.0889,-3.0889,-3.0889,-3.0889,-3.0889,-3.0889,-3.0889,-3.0889,-3.0605,-3.0342,-3.0215,-2.9658,-2.9248,-2.9121,-2.8721,-2.8476,-2.8476,-2.8359,-2.8291,-2.8291,-2.8291,-2.8953,-3.0266,-3.1633,-3.2994,-3.4385,-3.5763,-3.6405,-3.6405,-3.6405,-3.6405,-3.0889,-3.0889,0.0,-3.0889,-3.0889,-3.0889,-3.0889,0.0,0.0,0.0,0.0,0.0,0.0,0.0,0.0,0.0,0.0,0.0,0.0,0.0,0.0,0.0,0.0,0.0,0.0,0.0,0.0,0.0,0.0,0.0,0.0,0.0,0.0,0.0,0.0,0.0,0.0,0.0,0.0,-3.0889,-3.0889,-3.0889,-3.0889,-3.0889,-3.0889,-3.0889,-3.0889,-3.0889,-3.0889,-3.0889,-3.0889,-3.0889,-3.0889,-3.0889,-3.0889,-3.0889,-3.0889,-3.0889,-3.0889,-3.0889,-3.0889,-3.0889,-3.0889,-3.0889,-3.0889,-3.0889,-3.0889,-3.0889,-3.0889,-3.0889,-3.0889,-3.0889,-3.0889,-3.0889,-3.0889,-3.0889,-3.0889,-3.0889,-3.0889,-3.0889,-3.0889,-3.0889,-3.0889,-3.0889,-3.0889,-3.0889,-3.0732,-3.0615,-3.0615,-3.0225,-2.9883,-2.9707,-2.9228,-2.8848,-2.8682,-2.8437,-2.8291,-2.8291,-2.8291,-2.8291,-2.8291,-2.8794,-2.946,-3.0266,-3.2191,-3.3563,-3.4385,-3.5763,-3.6405,-3.6405,-3.6405,-3.6405,-3.0879,0.0,0.0,0.0,0.0,0.0,0.0,0.0,0.0,0.0,0.0,0.0,0.0,0.0,0.0,0.0,0.0,0.0,0.0,0.0,0.0,0.0,0.0,0.0,0.0,0.0,0.0,0.0,0.0,0.0,0.0,0.0,0.0,0.0,0.0,0.0,0.0,0.0,0.0,0.0,-3.0889,-3.0889,-3.0889,-3.0889,-3.0889,-3.0889,-3.0889,-3.0889,-3.0889,-3.0889,-3.0889,-3.0889,-3.0889,-3.0889,-3.0889,-3.0889,-3.0889,-3.0889,-3.0889,-3.0889,-3.0889,-3.0889,-3.0889,-3.0889,-3.0889,-3.0889,-3.0889,-3.0889,-3.0889,-3.0889,-3.0889,-3.0889,-3.0889,-3.0889,-3.0889,-3.0889,-3.0889,-3.0889,-3.0889,-3.0889,-3.0889,-3.0889,-3.0889,-3.0889,-3.0879,-3.083,-3.0469,-3.0185,-3.0146,-2.9775,-2.9355,-2.8965,-2.8887,-2.8711,-2.833,-2.8291,-2.8291,-2.8291,-2.8291,-2.8344,-2.8495,-2.966,-3.0369,-3.0463,-3.3055,-3.4483,-3.4581,-3.5823,-3.6405,-3.6405,-3.6405,-3.6405,0.0,-3.0625,0.0,0.0,0.0,0.0,0.0,0.0,0.0,0.0,0.0,0.0,0.0,0.0,0.0,0.0,0.0,0.0,0.0,0.0,0.0,0.0,0.0,0.0,0.0,0.0,0.0,0.0,0.0,0.0,0.0,0.0,0.0,0.0,0.0,0.0,-3.0889,-3.0889,-3.0889,0.0,-3.0889,-3.0889,-3.0889,-3.0889,-3.0889,-3.0889,-3.0889,-3.0889,-3.0889,-3.0889,-3.0889,-3.0889,-3.0889,-3.0889,-3.0889,-3.0889,-3.0889,-3.0889,-3.0889,-3.0889,-3.0889,-3.0889,-3.0889,-3.0889,-3.0889,-3.0889,-3.0889,-3.0889,-3.0889,-3.0889,-3.0889,-3.0889,-3.0889,-3.0889,-3.0889,-3.0889,-3.0889,-3.0889,-3.0889,-3.0889,-3.0889,-3.0889,-3.0889,-3.0889,-3.0771,-3.04,-3.0264,-3.0078,-2.9746,-2.9326,-2.9023,-2.8926,-2.8623,-2.8389,-2.8301,-2.8291,-2.8291,-2.8291,-2.8291,-2.8751,-2.9807,-3.0172,-3.0824,-3.1836,-3.3514,-3.4933,-3.5966,-3.6263,-3.6405,-3.6405,-3.6405,-3.6405,0.0,0.0,0.0,0.0,0.0,0.0,0.0,0.0,0.0,0.0,0.0,0.0,0.0,0.0,0.0,0.0,0.0,0.0,0.0,0.0,0.0,0.0,0.0,0.0,0.0,0.0,0.0,0.0,0.0,0.0,0.0,0.0,0.0,0.0,0.0,0.0,-3.0889,-3.0889,-3.0889,-3.0889,-3.0889,-3.0889,-3.0889,-3.0889,-3.0889,-3.0889,-3.0889,-3.0889,-3.0889,-3.0889,-3.0889,-3.0889,-3.0889,-3.0889,-3.0889,-3.0889,-3.0889,-3.0889,-3.0889,-3.0889,-3.0889,-3.0889,-3.0889,-3.0889,-3.0889,-3.0889,-3.0889,-3.0889,-3.0889,-3.0889,-3.0889,-3.0889,-3.0889,-3.0889,-3.0889,-3.0889,-3.0889,-3.0889,-3.0889,-3.0889,-3.0889,-3.0889,-3.0889,-3.0703,-3.041,-2.9961,-2.9717,-2.9502,-2.9287,-2.8887,-2.8613,-2.8613,-2.8428,-2.8291,-2.8291,-2.8291,-2.8291,-2.8291,-2.8291,-2.8591,-2.9303,-2.9964,-3.1235,-3.3254,-3.403,-3.5078,-3.6405,-3.5763,-3.5763,-3.6405,-3.6405,-3.6405,0.0,0.0,0.0,0.0,0.0,0.0,0.0,0.0,0.0,0.0,0.0,0.0,0.0,0.0,0.0,0.0,0.0,0.0,0.0,0.0,0.0,0.0,0.0,0.0,0.0,0.0,0.0,0.0,0.0,0.0,0.0,0.0,0.0,0.0,0.0,-3.0889,-3.0889,-3.0889,-3.085,-3.0771,-3.0693,-3.0664,-3.0664,-3.0664,-3.0752,-3.0889,-3.0889,-3.0889,-3.0889,-3.0889,-3.0889,-3.0889,-3.0889,-3.0889,-3.0889,-3.0889,-3.0889,-3.0889,-3.0889,-3.0889,-3.0889,-3.0889,-3.0889,-3.0889,-3.0889,-3.0889,-3.0889,-3.0889,-3.0889,-3.0889,-3.0889,-3.0889,-3.0889,-3.0889,-3.0889,-3.0889,-3.0889,-3.0889,-3.0889,-3.0889,-3.083,-3.0752,-3.0674,-3.0342,-2.9941,-2.9521,-2.915,-2.8887,-2.8818,-2.8506,-2.8291,-2.8291,-2.8291,-2.8291,-2.8291,-2.8291,-2.8291,-2.8291,-2.8291,-2.8398,-2.8654,-2.9713,-3.1593,-3.4337,-3.4385,-3.4933,-3.6061,-3.5174,-3.5319,-3.6405,-3.6405,-3.6405,0.0,0.0,0.0,0.0,0.0,0.0,0.0,0.0,0.0,0.0,0.0,0.0,0.0,0.0,0.0,0.0,0.0,0.0,0.0,0.0,0.0,0.0,0.0,0.0,0.0,0.0,0.0,0.0,0.0,0.0,0.0,0.0,-3.0889,-3.0889,-3.0889,0.0,-3.0889,-3.0889,-3.0693,-3.0283,-2.9922,-2.9746,-2.9746,-2.9746,-3.0166,-3.0889,-3.0889,-3.0889,-3.0889,-3.0889,-3.0889,-3.0889,-3.0889,-3.0889,-3.0889,-3.0889,-3.0889,-3.0889,-3.0889,-3.0889,-3.0889,-3.0889,-3.0889,-3.0889,-3.0889,-3.0889,-3.0889,-3.0889,-3.0889,-3.0889,-3.0889,-3.0889,-3.0889,-3.0889,-3.0889,-3.0889,-3.0889,-3.0889,-3.0889,-3.0889,-3.0566,-3.0176,-2.9814,-2.9697,-2.9512,-2.9072,-2.8955,-2.8789,-2.8418,-2.833,-2.8291,-2.8291,-2.8291,-2.8291,-2.8291,-2.8291,-2.8291,-2.8291,-2.8291,-2.8804,-2.9964,-3.0214,-3.1593,-3.4337,-3.4385,-3.4483,-3.4678,-3.5667,-3.6203,-3.6405,-3.6405,-3.6405,0.0,0.0,0.0,0.0,0.0,0.0,0.0,0.0,0.0,0.0,0.0,0.0,0.0,0.0,0.0,0.0,0.0,0.0,0.0,0.0,0.0,0.0,0.0,0.0,0.0,0.0,0.0,0.0,0.0,0.0,0.0,-3.0889,-3.0771,-3.0508,-3.0508,0.0,-3.0156,-3.0146,-3.0049,-2.9844,-2.9658,-2.9626,-2.9626,-2.9626,-2.9785,-3.0146,-3.0146,-3.0283,-3.0508,-3.0508,-3.0654,-3.0889,-3.0889,-3.0889,-3.0889,-3.0889,-3.0889,-3.0889,-3.0889,-3.0889,-3.0889,-3.0889,-3.0889,-3.0889,-3.0889,-3.0889,-3.0889,-3.0889,-3.0889,-3.0889,-3.0889,-3.0889,-3.0889,-3.0889,-3.0693,-3.0508,-3.0508,-3.0508,-3.043,-3.0195,-2.999,-2.9707,-2.9277,-2.9209,-2.9062,-2.8633,-2.8564,-2.8506,-2.831,-2.8291,-2.8291,-2.8291,-2.8291,-2.8291,-2.8291,-2.8291,-2.8291,-2.8291,-2.8291,-2.8538,-2.9154,-2.9911,-3.0876,-3.209,-3.2855,-3.3958,-3.5523,-3.5367,-3.5667,-3.6405,-3.6405,-3.6405,0.0,0.0,0.0,0.0,0.0,0.0,0.0,0.0,0.0,0.0,0.0,0.0,0.0,0.0,0.0,0.0,0.0,0.0,0.0,0.0,0.0,0.0,0.0,0.0,0.0,0.0,0.0,0.0,0.0,0.0,-3.0566,-3.0557,-3.04,-3.0049,-3.0039,-2.9893,-2.957,-2.9453,-2.9404,-2.9404,-2.9297,-2.9248,-2.9248,-2.9248,-2.9248,-2.9258,-2.9473,-2.9746,-3.0039,-3.0039,-3.0244,-3.0557,-3.0557,-3.0557,-3.0566,-3.0674,-3.0713,-3.0732,-3.085,-3.0889,-3.0889,-3.0889,-3.0889,-3.0889,-3.0889,-3.0889,-3.0889,-3.0889,-3.0889,-3.0859,-3.0742,-3.0713,-3.0693,-3.0576,-3.0293,-3.0039,-3.0039,-3.0039,-2.9912,-2.9482,-2.9404,-2.9268,-2.8838,-2.876,-2.8652,-2.834,-2.8291,-2.8291,-2.8291,-2.8291,-2.8291,-2.8291,-2.8291,-2.8291,-2.8291,-2.8291,-2.8291,-2.8291,-2.8601,-2.8794,-2.8794,-3.012,-3.0979,-3.1327,-3.2157,-3.3719,-3.5918,-3.5223,-3.5415,-3.6405,-3.6267,-3.6157,0.0,0.0,0.0,0.0,0.0,0.0,0.0,0.0,0.0,0.0,0.0,0.0,0.0,0.0,0.0,0.0,0.0,0.0,0.0,0.0,0.0,0.0,0.0,0.0,0.0,0.0,0.0,0.0,0.0,0.0,-2.9658,-2.9695,-2.9685,-2.96,-2.96,-2.959,-2.9626,-2.916,-2.8955,-2.8945,-2.8555,-2.8359,-2.8359,-2.8359,-2.8359,-2.8398,-2.9219,-2.9636,-2.96,-2.96,-2.9675,-2.9695,-2.9695,-2.9695,-2.9687,-3.0088,-3.0234,-3.0293,-3.0742,-3.0889,-3.0889,-3.0889,-3.0889,-3.0889,-3.0889,-3.0889,-3.0889,-3.0889,-3.0889,-3.0791,-3.0342,-3.0234,-3.0137,-2.9736,-2.9675,-2.96,-2.96,-2.96,-2.9473,-2.9033,-2.8955,-2.8818,-2.8398,-2.833,-2.831,-2.8301,-2.8291,-2.8291,-2.8291,-2.8291,-2.8291,-2.8291,-2.8291,-2.8291,-2.8291,-2.8291,-2.8291,-2.8291,-2.9503,-3.0214,-3.0214,-3.148,-3.2844,-3.4178,-3.3669,-3.3766,-3.4532,-3.5715,-3.631,-3.6405,-3.583,-3.5545,0.0,0.0,0.0,0.0,0.0,0.0,0.0,0.0,0.0,0.0,0.0,0.0,0.0,0.0,0.0,0.0,0.0,0.0,0.0,0.0,0.0,0.0,0.0,0.0,0.0,0.0,0.0,0.0,0.0,0.0,-2.9636,-2.9626,-2.9443,-2.916,-2.915,-2.9023,-2.875,-2.8594,-2.8516,-2.8516,-2.8369,-2.8291,-2.8291,-2.8291,-2.8291,-2.831,-2.8613,-2.8906,-2.915,-2.915,-2.9316,-2.9626,-2.9626,-2.9626,-2.9646,-2.9736,-2.9795,-2.9824,-2.998,-3.0039,-3.0039,-3.0039,-3.0039,-3.0039,-3.0039,-3.0039,-3.0039,-3.0039,-3.0039,-3.001,-2.9834,-2.9795,-2.9687,-2.9258,-2.915,-2.9072,-2.8809,-2.8965,-2.9023,-2.8603,-2.8516,-2.8467,-2.832,-2.8291,-2.8291,-2.8291,-2.8291,-2.8291,-2.8291,-2.8291,-2.8291,-2.8291,-2.8291,-2.8291,-2.8291,-2.8291,-2.8644,-2.9513,-3.0016,-3.0669,-3.1531,-3.2525,-3.3307,-3.3814,-3.4129,-3.4561,-3.5115,-3.5248,-3.5316,-3.5303,-3.5115,-3.4969,-2.8291,0.0,0.0,0.0,0.0,0.0,0.0,0.0,0.0,0.0,0.0,0.0,0.0,0.0,0.0,0.0,0.0,0.0,0.0,0.0,0.0,0.0,0.0,0.0,0.0,0.0,0.0,0.0,0.0,0.0,-2.915,-2.9141,-2.9014,-2.8721,-2.8711,-2.8574,-2.8291,-2.8291,-2.8291,-2.8291,-2.8291,-2.8291,-2.8291,-2.8291,-2.8291,-2.8291,-2.8291,-2.8447,-2.8711,-2.8711,-2.8877,-2.9141,-2.9141,-2.9141,-2.916,-2.9297,-2.9355,-2.9375,-2.9577,-2.9626,-2.9626,-2.9626,-2.9626,-2.9626,-2.9626,-2.9626,-2.9626,-2.9626,-2.9626,-2.9531,-2.9394,-2.9248,-2.9072,-2.8779,-2.8711,-2.8633,-2.8359,-2.8506,-2.8633,-2.835,-2.8291,-2.8291,-2.8291,-2.8291,-2.8291,-2.8291,-2.8291,-2.8291,-2.8291,-2.8291,-2.8291,-2.8291,-2.8291,-2.8291,-2.8291,-2.8698,-2.9154,-2.9608,-3.0726,-3.1594,-3.1984,-3.3242,-3.3893,-3.3893,-3.4247,-3.4625,-3.4944,-3.4768,-3.468,-3.4713,-3.4537,-3.4349,0.0,0.0,0.0,0.0,0.0,0.0,0.0,0.0,0.0,0.0,0.0,0.0,0.0,0.0,0.0,0.0,0.0,0.0,0.0,0.0,0.0,0.0,0.0,0.0,0.0,0.0,0.0,0.0,0.0,-2.8721,-2.831,-2.8291,-2.8291,-2.8291,-2.8291,-2.8291,-2.8291,-2.8291,-2.8291,-2.8291,-2.8291,-2.8291,-2.8291,-2.8291,-2.8291,-2.8291,-2.8291,-2.8291,-2.8291,-2.8291,-2.8291,-2.8291,-2.8291,-2.8291,-2.834,-2.875,-2.8896,-2.8965,-2.9385,-2.9531,-2.9531,-2.9531,-2.9531,-2.9531,-2.9531,-2.9531,-2.9531,-2.9531,-2.9531,-2.9434,-2.9014,-2.8603,-2.8291,-2.8291,-2.8291,-2.8291,-2.8291,-2.8291,-2.8291,-2.8291,-2.8291,-2.8291,-2.8291,-2.8291,-2.8291,-2.8291,-2.8291,-2.8291,-2.8291,-2.8291,-2.8291,-2.8291,-2.8344,-2.8344,-2.8291,-2.9555,-2.9807,-2.8475,-3.1623,-3.293,-3.1629,-3.358,-3.47,-3.47,-3.4161,-3.3872,-3.3872,-3.4412,-3.4675,-3.4618,-3.4123,-3.3583,-2.8291,0.0,0.0,0.0,0.0,0.0,0.0,0.0,0.0,0.0,0.0,0.0,0.0,0.0,0.0,0.0,0.0,0.0,0.0,0.0,0.0,0.0,0.0,0.0,0.0,0.0,0.0,0.0,0.0,-2.8418,-2.8301,-2.8291,-2.8291,-2.8291,-2.8291,-2.8291,-2.8291,-2.8291,-2.8291,-2.8291,-2.8291,-2.8291,-2.8291,-2.8291,-2.8291,-2.8291,-2.8291,-2.8291,-2.8291,-2.8291,-2.8291,-2.8291,-2.8291,-2.8291,-2.8301,-2.8418,-2.8467,-2.8476,-2.8603,-2.8643,-2.8643,-2.8643,-2.8643,-2.8643,-2.8643,-2.8643,-2.8643,-2.8643,-2.8643,-2.8613,-2.8496,-2.8379,-2.8291,-2.8291,-2.8291,-2.8291,-2.8291,-2.8291,-2.8291,-2.8291,-2.8291,-2.8291,-2.8291,-2.8291,-2.8291,-2.8291,-2.8291,-2.8291,-2.8291,-2.8291,-2.8291,-2.8291,-2.9154,-2.9355,-2.8398,-3.0421,-3.1429,-3.0637,-3.2417,-3.3588,-3.3801,-3.3995,-3.4123,-3.4123,-3.3583,-3.3307,-3.3307,-3.3458,-3.3533,-3.3533,-3.337,-3.3219,-2.8291,-2.8291,-2.8291,0.0,0.0,0.0,0.0,0.0,0.0,0.0,0.0,0.0,0.0,0.0,0.0,0.0,0.0,0.0,0.0,0.0,0.0,0.0,0.0,0.0,0.0,0.0,0.0,0.0,-2.8291,-2.8291,-2.8291,-2.8291,-2.8291,-2.8291,-2.8291,-2.8291,-2.8291,-2.8291,-2.8291,-2.8291,-2.8291,-2.8291,-2.8291,-2.8291,-2.8291,-2.8291,-2.8291,-2.8291,-2.8291,-2.8291,-2.8291,-2.8291,-2.8291,-2.8291,-2.8291,-2.8291,-2.8291,-2.8291,-2.8291,-2.8291,-2.8291,-2.8291,-2.8291,-2.8291,-2.8291,-2.8291,-2.8291,-2.8291,-2.8291,-2.8291,-2.8291,-2.8291,-2.8291,-2.8291,-2.8291,-2.8291,-2.8291,-2.8291,-2.8291,-2.8291,-2.8291,-2.8291,-2.8291,-2.8291,-2.8291,-2.8291,-2.8291,-2.8291,-2.8291,-2.8291,-2.8291,-2.8291,-2.8846,-2.9081,-2.883,-3.0597,-3.1553,-3.1165,-3.2748,-3.3603,-3.3539,-3.357,-3.3558,-3.3558,-3.3244,-3.3124,-3.3124,-3.3124,-3.3124,-3.3124,-3.3124,-3.3124,-2.8291,-2.8291,-2.8291,0.0,0.0,0.0,-2.8291,-2.8291,-2.8291,0.0,0.0,0.0,0.0,0.0,0.0,0.0,0.0,0.0,0.0,0.0,0.0,0.0,0.0,0.0,0.0,0.0,0.0,-2.8291,-2.8291,-2.8291,-2.8291,-2.8291,-2.8291,-2.8291,-2.8291,-2.8291,-2.8291,-2.8291,-2.8291,-2.8291,-2.8291,-2.8291,-2.8291,-2.8291,-2.8291,-2.8291,-2.8291,-2.8291,-2.8291,-2.8291,-2.8291,-2.8291,-2.8291,-2.8291,-2.8291,-2.8291,-2.8291,-2.8291,-2.8291,-2.8291,-2.8291,-2.8291,-2.8291,-2.8291,-2.8291,-2.8291,-2.8291,-2.8291,-2.8291,-2.8291,-2.8291,-2.8291,-2.8291,-2.8291,-2.8291,-2.8291,-2.8291,-2.8291,-2.8291,-2.8291,-2.8291,-2.8291,-2.8291,-2.8291,-2.8291,-2.8291,-2.8252,-2.8223,-2.8223,-2.8184,-2.8198,-2.8347,-2.817,-2.848,-2.9551,-3.0694,-3.1188,-3.0833,-3.275,-3.3348,-3.2072,-3.2728,-3.3124,-3.3124,-3.3124,-3.3124,-3.3124,-3.3124,-3.3124,-3.3124,-3.3124,-3.3124,0.0,0.0,0.0,0.0,0.0,0.0,-2.8291,-2.8291,-2.8291,0.0,0.0,0.0,0.0,0.0,0.0,0.0,0.0,0.0,0.0,0.0,0.0,0.0,0.0,0.0,0.0,0.0,-2.8291,-2.8291,-2.8291,-2.8291,-2.8291,-2.8291,-2.8291,-2.8291,-2.8291,-2.8291,-2.8291,-2.8291,-2.8291,-2.8291,-2.8291,-2.8291,-2.8291,-2.8291,-2.8291,-2.8291,-2.8291,-2.8291,-2.8291,-2.8291,-2.8291,-2.8291,-2.8291,-2.8291,-2.8291,-2.8291,-2.8291,-2.8291,-2.8291,-2.8291,-2.8291,-2.8291,-2.8291,-2.8291,-2.8291,-2.8291,-2.8291,-2.8291,-2.8291,-2.8291,-2.8291,-2.8291,-2.8291,-2.8291,-2.8291,-2.8291,-2.8291,-2.8291,-2.8291,-2.8291,-2.8291,-2.8291,-2.8291,-2.8291,-2.8291,-2.8291,-2.7998,-2.7836,-2.7836,-2.748,-2.7657,-2.8623,-2.9668,-3.0351,-3.0486,-3.2606,-3.3283,-3.1761,-3.3065,-3.3608,-3.2885,-3.3045,-3.3124,-3.3124,-3.3124,-3.3124,-3.3124,-3.3124,-3.3124,-3.3124,-3.3124,-3.3124,0.0,0.0,0.0,-2.8027,0.0,0.0,0.0,-2.7656,0.0,0.0,0.0,0.0,0.0,0.0,0.0,0.0,0.0,0.0,0.0,0.0,0.0,0.0,0.0,0.0,0.0,0.0,-2.8291,-2.8291,-2.8096,-2.7978,-2.7978,-2.7978,-2.7978,-2.7978,-2.8184,-2.8291,-2.8291,-2.8291,-2.8291,-2.8291,-2.8291,-2.8291,-2.8291,-2.8291,-2.8291,-2.8291,-2.8291,-2.8291,-2.8291,-2.8291,-2.8291,-2.8291,-2.8291,-2.8291,-2.8291,-2.8291,-2.8291,-2.8291,-2.8291,-2.8291,-2.8291,-2.8291,-2.8291,-2.8291,-2.8291,-2.8291,-2.8291,-2.8291,-2.8291,-2.8291,-2.8291,-2.8291,-2.8291,-2.8291,-2.8291,-2.8291,-2.8291,-2.8125,-2.7978,-2.7978,-2.7803,-2.7725,-2.7939,-2.7978,-2.791,-2.7685,-2.748,-2.7344,-2.7344,-2.7148,-2.7257,-2.7834,-2.8359,-2.9133,-3.0256,-3.1402,-3.2184,-3.2479,-3.3121,-3.337,-3.3124,-3.3124,-3.3124,-3.3124,-3.3124,-3.3124,-3.3124,-3.3124,-3.3124,-3.3124,-3.3124,-3.3124,0.0,0.0,0.0,0.0,0.0,-2.7451,0.0,0.0,0.0,0.0,0.0,0.0,0.0,0.0,0.0,0.0,0.0,0.0,0.0,0.0,0.0,0.0,0.0,0.0,0.0,0.0,-2.8047,-2.8047,-2.7734,-2.7591,-2.7591,-2.7591,-2.7591,-2.7591,-2.7871,-2.8047,-2.8047,-2.8047,-2.8047,-2.8047,-2.8047,-2.8047,-2.8047,-2.8135,-2.8174,-2.8174,-2.8262,-2.8291,-2.8291,-2.8291,-2.8291,-2.8291,-2.8291,-2.8291,-2.8291,-2.8291,-2.8291,-2.8291,-2.8291,-2.8291,-2.8291,-2.8291,-2.8291,-2.8291,-2.8291,-2.8291,-2.8291,-2.8291,-2.8291,-2.8291,-2.8291,-2.8291,-2.8271,-2.8193,-2.8174,-2.8144,-2.8066,-2.7783,-2.7591,-2.7591,-2.7256,-2.7129,-2.748,-2.7591,-2.7422,-2.707,-2.6943,-2.6894,-2.6894,-2.6816,-2.6869,-2.7101,-2.6794,-2.7623,-3.0036,-2.9942,-3.0687,-3.2939,-3.3124,-3.3124,-3.3124,-3.3124,-3.3124,-3.3124,-3.3124,-3.3124,-3.3124,-3.3124,-3.3124,-3.3124,-3.3124,-3.3124,0.0,0.0,0.0,0.0,-2.7373,0.0,0.0,0.0,0.0,0.0,0.0,0.0,0.0,0.0,0.0,0.0,0.0,0.0,0.0,0.0,0.0,0.0,0.0,0.0,0.0,0.0,0.0,-2.7158,-2.7119,-2.709,-2.709,-2.709,-2.709,-2.709,-2.7139,-2.7158,-2.7158,-2.7158,-2.7158,-2.7158,-2.7158,-2.7158,-2.7168,-2.7559,-2.7787,-2.7806,-2.8135,-2.8291,-2.8291,-2.8291,-2.8291,-2.8291,-2.8291,-2.8291,-2.8291,-2.8291,-2.8291,-2.8291,-2.8291,-2.8291,-2.8291,-2.8291,-2.8291,-2.8291,-2.8291,-2.8291,-2.8291,-2.8291,-2.8291,-2.8291,-2.8291,-2.8291,-2.8203,-2.7822,-2.7787,-2.7637,-2.7246,-2.7119,-2.709,-2.709,-2.7051,-2.7031,-2.708,-2.709,-2.707,-2.7021,-2.6699,-2.6455,-2.6455,-2.6123,-2.6298,-2.7423,-2.7514,-2.8441,-3.0847,-3.1024,-3.1589,-3.3025,-3.3124,-3.3124,-3.3124,-3.3124,-3.3124,-3.3124,-3.3124,-3.3124,-3.3124,-3.3124,-3.3124,-3.3124,-3.3124,-3.3124,0.0,0.0,0.0,0.0,0.0,0.0,-2.6328,0.0,-2.6269,0.0,0.0,0.0,0.0,0.0,0.0,0.0,0.0,0.0,0.0,0.0,0.0,0.0,0.0,0.0,0.0,0.0,0.0,0.0,0.0,-2.665,-2.665,-2.665,-2.665,-2.665,-2.6894,-2.7012,-2.7012,-2.7012,-2.7012,-2.7012,-2.7012,-2.7012,-2.7021,-2.7207,-2.7285,-2.7295,-2.7471,-2.7549,-2.7549,-2.7549,-2.7705,-2.793,-2.793,-2.8076,-2.8291,-2.8291,-2.8291,-2.8291,-2.8291,-2.8291,-2.8291,-2.8291,-2.8291,-2.8291,-2.8291,-2.8291,-2.8291,-2.8291,-2.8115,-2.793,-2.793,-2.7744,-2.751,-2.7334,-2.7285,-2.7236,-2.7051,-2.6826,-2.665,-2.665,-2.6445,-2.6269,-2.6269,-2.6484,-2.6562,-2.6318,-2.6123,-2.6006,-2.6006,-2.5801,-2.6207,-2.7447,-2.7589,-2.8588,-3.0989,-3.1223,-3.1733,-3.3025,-3.3124,-3.3124,-3.3124,-3.3124,-3.3124,-3.3124,-3.3124,-3.3124,-3.3124,-3.2742,-3.2579,-3.2591,-3.2918,-3.2893,-2.7806,0.0,0.0,0.0,0.0,0.0,0.0,0.0,0.0,0.0,0.0,0.0,0.0,0.0,0.0,0.0,0.0,0.0,0.0,0.0,0.0,0.0,0.0,0.0,0.0,0.0,0.0,0.0,-2.6377,0.0,-2.6211,-2.6211,-2.6211,-2.6211,-2.6504,-2.667,-2.667,-2.667,-2.667,-2.667,-2.667,-2.667,-2.667,-2.6787,-2.6846,-2.6846,-2.6963,-2.7012,-2.7012,-2.7012,-2.7207,-2.749,-2.749,-2.7676,-2.7969,-2.8203,-2.8291,-2.8291,-2.8291,-2.8291,-2.8291,-2.8291,-2.8213,-2.8125,-2.8125,-2.8037,-2.7939,-2.7939,-2.7725,-2.749,-2.749,-2.7256,-2.6982,-2.6875,-2.6846,-2.6807,-2.6689,-2.6426,-2.6211,-2.6211,-2.5908,-2.5693,-2.5693,-2.5996,-2.6103,-2.5732,-2.5693,-2.5693,-2.5693,-2.5693,-2.6062,-2.6982,-2.7078,-2.8085,-3.0496,-3.0721,-3.1412,-3.2982,-3.3124,-3.3124,-3.3124,-3.3124,-3.3124,-3.3124,-3.2918,-3.2842,-3.283,-3.2265,-3.1989,-3.2001,-3.2416,-3.239,0.0,0.0,0.0,-2.6396,0.0,0.0,0.0,0.0,-2.5693,0.0,0.0,0.0,0.0,0.0,-2.5547,-2.5166,-2.5449,0.0,0.0,0.0,0.0,0.0,0.0,0.0,0.0,0.0,0.0,0.0,-2.5713,0.0,-2.5713,-2.5713,-2.5713,-2.5713,-2.5723,-2.5732,-2.5732,-2.5732,-2.5732,-2.5732,-2.5732,-2.5732,-2.5742,-2.6211,-2.6406,-2.6435,-2.6836,-2.7012,-2.7012,-2.7012,-2.7021,-2.7041,-2.7041,-2.7041,-2.7158,-2.7988,-2.8291,-2.8291,-2.8291,-2.8291,-2.8291,-2.8291,-2.8018,-2.7738,-2.7738,-2.7393,-2.7051,-2.7051,-2.7041,-2.7041,-2.7041,-2.7021,-2.6914,-2.6504,-2.6406,-2.6289,-2.582,-2.5713,-2.5713,-2.5713,-2.5703,-2.5693,-2.5693,-2.5703,-2.5703,-2.5693,-2.5693,-2.5693,-2.5693,-2.5693,-2.5742,-2.5781,-2.5781,-2.6744,-2.9269,-2.9453,-3.0508,-3.2939,-3.3124,-3.3124,-3.3124,-3.3124,-3.3124,-3.3124,-3.2528,-3.224,-3.224,-3.1687,-3.1411,-3.1411,-3.1436,-3.1436,0.0,0.0,-2.6318,-2.6025,0.0,0.0,0.0,0.0,0.0,0.0,0.0,0.0,0.0,-2.5693,-2.5635,-2.5537,-2.5586,-2.5586,0.0,0.0,0.0,0.0,0.0,0.0,0.0,0.0,0.0,-2.5693,-2.5693,-2.5693,0.0,-2.5693,-2.5693,-2.5693,-2.5693,-2.5693,-2.5693,-2.5693,-2.5693,-2.5693,-2.5693,-2.5693,-2.5693,-2.584,-2.5957,-2.5918,-2.6064,-2.6122,-2.6122,-2.6122,-2.6338,-2.6602,-2.6602,-2.6768,-2.7051,-2.7344,-2.7441,-2.7441,-2.7441,-2.7441,-2.7441,-2.7441,-2.7353,-2.7236,-2.7236,-2.7139,-2.7012,-2.7012,-2.6816,-2.6602,-2.6602,-2.6387,-2.6133,-2.5986,-2.5957,-2.5869,-2.5713,-2.5693,-2.5693,-2.5693,-2.5693,-2.5693,-2.5693,-2.5693,-2.5693,-2.5693,-2.5693,-2.5693,-2.5693,-2.5693,-2.6332,-2.7981,-2.8168,-2.9131,-3.1657,-3.1833,-3.2208,-3.3038,-3.3124,-3.3124,-3.3124,-3.2704,-3.2503,-3.2503,-3.1951,-3.1675,-3.1675,-3.1135,-3.0871,-3.0871,-3.0507,-3.0532,-2.6543,-2.6279,0.0,0.0,-2.5693,0.0,-2.5693,0.0,0.0,0.0,0.0,0.0,0.0,0.0,-2.5693,-2.5693,-2.5605,-2.5342,0.0,-2.459,0.0,0.0,0.0,0.0,0.0,0.0,-2.5332,-2.5488,-2.5498,-2.5566,0.0,0.0,-2.5693,-2.5693,-2.5693,-2.5693,-2.5693,-2.5693,-2.5693,-2.5693,-2.5693,-2.5693,-2.5693,-2.5693,-2.5693,-2.5693,-2.5693,-2.5693,-2.5693,-2.5693,-2.5908,-2.6162,-2.6162,-2.6318,-2.6602,-2.6904,-2.7012,-2.7012,-2.7012,-2.7012,-2.7012,-2.7012,-2.6914,-2.6797,-2.6797,-2.6689,-2.6562,-2.6562,-2.6367,-2.6162,-2.6162,-2.5947,-2.5693,-2.5693,-2.5693,-2.5693,-2.5693,-2.5693,-2.5693,-2.5693,-2.5693,-2.5693,-2.5693,-2.6062,-2.6197,-2.5781,-2.611,-2.639,-2.639,-2.6754,-2.7626,-2.9223,-2.9407,-3.0226,-3.2239,-3.284,-3.3124,-3.3124,-3.288,-3.2767,-3.2767,-3.2215,-3.1913,-3.1913,-3.1386,-3.1122,-3.111,-3.0583,-3.0319,-3.0319,-2.9955,-2.998]}]]